<?xml version="1.0" encoding="UTF-8" standalone="no" ?>
<gpx xmlns="http://www.topografix.com/GPX/1/1" xmlns:xsi="http://www.w3.org/2001/XMLSchema-instance" xsi:schemaLocation="http://www.topografix.com/GPX/1/1 http://www.topografix.com/GPX/1/1/gpx.xsd" version="1.1" creator="VisuGPX - https://www.visugpx.com">
  <metadata>
    <name>Rando de La Sauvetat de Blanquefort (47)</name>
    <desc><![CDATA[40kms sur des chemins roulant sans de grosses difficultées.]]></desc>
  </metadata>
  <trk>
    <name><![CDATA[Rando de La Sauvetat de Blanquefort (47)_1]]></name>
    <trkseg>
      <trkpt lat="44.59212" lon="0.92734">
        <ele>241</ele>
        <time>2012-07-22T05:58:10Z</time>
      </trkpt>
      <trkpt lat="44.59224" lon="0.9277">
        <ele>236</ele>
        <time>2012-07-22T05:58:42Z</time>
      </trkpt>
      <trkpt lat="44.59232" lon="0.92783">
        <ele>235</ele>
        <time>2012-07-22T05:58:48Z</time>
      </trkpt>
      <trkpt lat="44.59235" lon="0.92796">
        <ele>234</ele>
        <time>2012-07-22T05:58:53Z</time>
      </trkpt>
      <trkpt lat="44.5924" lon="0.92816">
        <ele>234</ele>
        <time>2012-07-22T05:58:59Z</time>
      </trkpt>
      <trkpt lat="44.59242" lon="0.92835">
        <ele>234</ele>
        <time>2012-07-22T05:59:04Z</time>
      </trkpt>
      <trkpt lat="44.59256" lon="0.92845">
        <ele>234</ele>
        <time>2012-07-22T05:59:09Z</time>
      </trkpt>
      <trkpt lat="44.59273" lon="0.92852">
        <ele>234</ele>
        <time>2012-07-22T05:59:14Z</time>
      </trkpt>
      <trkpt lat="44.59291" lon="0.92862">
        <ele>231</ele>
        <time>2012-07-22T05:59:20Z</time>
      </trkpt>
      <trkpt lat="44.5931" lon="0.92876">
        <ele>229</ele>
        <time>2012-07-22T05:59:26Z</time>
      </trkpt>
      <trkpt lat="44.59324" lon="0.92892">
        <ele>228</ele>
        <time>2012-07-22T05:59:31Z</time>
      </trkpt>
      <trkpt lat="44.59336" lon="0.92908">
        <ele>225</ele>
        <time>2012-07-22T05:59:36Z</time>
      </trkpt>
      <trkpt lat="44.59349" lon="0.92927">
        <ele>225</ele>
        <time>2012-07-22T05:59:41Z</time>
      </trkpt>
      <trkpt lat="44.59366" lon="0.9295">
        <ele>223</ele>
        <time>2012-07-22T05:59:47Z</time>
      </trkpt>
      <trkpt lat="44.59377" lon="0.92967">
        <ele>223</ele>
        <time>2012-07-22T05:59:52Z</time>
      </trkpt>
      <trkpt lat="44.5939" lon="0.92987">
        <ele>218</ele>
        <time>2012-07-22T05:59:58Z</time>
      </trkpt>
      <trkpt lat="44.59404" lon="0.93004">
        <ele>218</ele>
        <time>2012-07-22T06:00:03Z</time>
      </trkpt>
      <trkpt lat="44.59414" lon="0.9302">
        <ele>222</ele>
        <time>2012-07-22T06:00:08Z</time>
      </trkpt>
      <trkpt lat="44.59415" lon="0.93041">
        <ele>227</ele>
        <time>2012-07-22T06:00:13Z</time>
      </trkpt>
      <trkpt lat="44.59417" lon="0.93066">
        <ele>232</ele>
        <time>2012-07-22T06:00:18Z</time>
      </trkpt>
      <trkpt lat="44.59421" lon="0.93089">
        <ele>237</ele>
        <time>2012-07-22T06:00:23Z</time>
      </trkpt>
      <trkpt lat="44.59424" lon="0.9311">
        <ele>242</ele>
        <time>2012-07-22T06:00:28Z</time>
      </trkpt>
      <trkpt lat="44.59428" lon="0.93136">
        <ele>244</ele>
        <time>2012-07-22T06:00:34Z</time>
      </trkpt>
      <trkpt lat="44.59433" lon="0.93159">
        <ele>246</ele>
        <time>2012-07-22T06:00:39Z</time>
      </trkpt>
      <trkpt lat="44.5944" lon="0.93186">
        <ele>247</ele>
        <time>2012-07-22T06:00:45Z</time>
      </trkpt>
      <trkpt lat="44.59445" lon="0.93211">
        <ele>248</ele>
        <time>2012-07-22T06:00:51Z</time>
      </trkpt>
      <trkpt lat="44.59452" lon="0.93234">
        <ele>248</ele>
        <time>2012-07-22T06:00:56Z</time>
      </trkpt>
      <trkpt lat="44.59458" lon="0.93259">
        <ele>249</ele>
        <time>2012-07-22T06:01:01Z</time>
      </trkpt>
      <trkpt lat="44.5947" lon="0.93286">
        <ele>249</ele>
        <time>2012-07-22T06:01:07Z</time>
      </trkpt>
      <trkpt lat="44.59484" lon="0.93307">
        <ele>249</ele>
        <time>2012-07-22T06:01:12Z</time>
      </trkpt>
      <trkpt lat="44.59498" lon="0.93327">
        <ele>249</ele>
        <time>2012-07-22T06:01:17Z</time>
      </trkpt>
      <trkpt lat="44.59508" lon="0.93349">
        <ele>248</ele>
        <time>2012-07-22T06:01:22Z</time>
      </trkpt>
      <trkpt lat="44.59523" lon="0.93378">
        <ele>247</ele>
        <time>2012-07-22T06:01:28Z</time>
      </trkpt>
      <trkpt lat="44.59533" lon="0.93412">
        <ele>246</ele>
        <time>2012-07-22T06:01:34Z</time>
      </trkpt>
      <trkpt lat="44.5955" lon="0.93455">
        <ele>242</ele>
        <time>2012-07-22T06:01:39Z</time>
      </trkpt>
      <trkpt lat="44.5957" lon="0.93512">
        <ele>239</ele>
        <time>2012-07-22T06:01:45Z</time>
      </trkpt>
      <trkpt lat="44.59588" lon="0.93559">
        <ele>236</ele>
        <time>2012-07-22T06:01:50Z</time>
      </trkpt>
      <trkpt lat="44.596" lon="0.93616">
        <ele>234</ele>
        <time>2012-07-22T06:01:56Z</time>
      </trkpt>
      <trkpt lat="44.59598" lon="0.93661">
        <ele>234</ele>
        <time>2012-07-22T06:02:01Z</time>
      </trkpt>
      <trkpt lat="44.59612" lon="0.93709">
        <ele>231</ele>
        <time>2012-07-22T06:02:07Z</time>
      </trkpt>
      <trkpt lat="44.59634" lon="0.93735">
        <ele>228</ele>
        <time>2012-07-22T06:02:12Z</time>
      </trkpt>
      <trkpt lat="44.59658" lon="0.93753">
        <ele>226</ele>
        <time>2012-07-22T06:02:18Z</time>
      </trkpt>
      <trkpt lat="44.59674" lon="0.93776">
        <ele>225</ele>
        <time>2012-07-22T06:02:23Z</time>
      </trkpt>
      <trkpt lat="44.59701" lon="0.9381">
        <ele>225</ele>
        <time>2012-07-22T06:02:29Z</time>
      </trkpt>
      <trkpt lat="44.59722" lon="0.93843">
        <ele>224</ele>
        <time>2012-07-22T06:02:34Z</time>
      </trkpt>
      <trkpt lat="44.59743" lon="0.93871">
        <ele>220</ele>
        <time>2012-07-22T06:02:40Z</time>
      </trkpt>
      <trkpt lat="44.59752" lon="0.93895">
        <ele>219</ele>
        <time>2012-07-22T06:02:45Z</time>
      </trkpt>
      <trkpt lat="44.59758" lon="0.93924">
        <ele>219</ele>
        <time>2012-07-22T06:02:50Z</time>
      </trkpt>
      <trkpt lat="44.59768" lon="0.93953">
        <ele>218</ele>
        <time>2012-07-22T06:02:55Z</time>
      </trkpt>
      <trkpt lat="44.59782" lon="0.9398">
        <ele>213</ele>
        <time>2012-07-22T06:03:00Z</time>
      </trkpt>
      <trkpt lat="44.5979" lon="0.94008">
        <ele>213</ele>
        <time>2012-07-22T06:03:05Z</time>
      </trkpt>
      <trkpt lat="44.5979" lon="0.94035">
        <ele>217</ele>
        <time>2012-07-22T06:03:10Z</time>
      </trkpt>
      <trkpt lat="44.59784" lon="0.94065">
        <ele>225</ele>
        <time>2012-07-22T06:03:15Z</time>
      </trkpt>
      <trkpt lat="44.5978" lon="0.94093">
        <ele>230</ele>
        <time>2012-07-22T06:03:20Z</time>
      </trkpt>
      <trkpt lat="44.59781" lon="0.9412">
        <ele>235</ele>
        <time>2012-07-22T06:03:25Z</time>
      </trkpt>
      <trkpt lat="44.59787" lon="0.94143">
        <ele>239</ele>
        <time>2012-07-22T06:03:30Z</time>
      </trkpt>
      <trkpt lat="44.59799" lon="0.94176">
        <ele>238</ele>
        <time>2012-07-22T06:03:36Z</time>
      </trkpt>
      <trkpt lat="44.59808" lon="0.94199">
        <ele>236</ele>
        <time>2012-07-22T06:03:41Z</time>
      </trkpt>
      <trkpt lat="44.59822" lon="0.94223">
        <ele>235</ele>
        <time>2012-07-22T06:03:47Z</time>
      </trkpt>
      <trkpt lat="44.59837" lon="0.9424">
        <ele>231</ele>
        <time>2012-07-22T06:03:52Z</time>
      </trkpt>
      <trkpt lat="44.59851" lon="0.94262">
        <ele>228</ele>
        <time>2012-07-22T06:03:57Z</time>
      </trkpt>
      <trkpt lat="44.59872" lon="0.94296">
        <ele>225</ele>
        <time>2012-07-22T06:04:02Z</time>
      </trkpt>
      <trkpt lat="44.59897" lon="0.9433">
        <ele>220</ele>
        <time>2012-07-22T06:04:07Z</time>
      </trkpt>
      <trkpt lat="44.59918" lon="0.94362">
        <ele>218</ele>
        <time>2012-07-22T06:04:12Z</time>
      </trkpt>
      <trkpt lat="44.59914" lon="0.94403">
        <ele>221</ele>
        <time>2012-07-22T06:04:17Z</time>
      </trkpt>
      <trkpt lat="44.59908" lon="0.94454">
        <ele>226</ele>
        <time>2012-07-22T06:04:22Z</time>
      </trkpt>
      <trkpt lat="44.59902" lon="0.94504">
        <ele>231</ele>
        <time>2012-07-22T06:04:27Z</time>
      </trkpt>
      <trkpt lat="44.59895" lon="0.94556">
        <ele>235</ele>
        <time>2012-07-22T06:04:32Z</time>
      </trkpt>
      <trkpt lat="44.59885" lon="0.94607">
        <ele>235</ele>
        <time>2012-07-22T06:04:37Z</time>
      </trkpt>
      <trkpt lat="44.59865" lon="0.94659">
        <ele>235</ele>
        <time>2012-07-22T06:04:43Z</time>
      </trkpt>
      <trkpt lat="44.59847" lon="0.94702">
        <ele>235</ele>
        <time>2012-07-22T06:04:48Z</time>
      </trkpt>
      <trkpt lat="44.59831" lon="0.94743">
        <ele>235</ele>
        <time>2012-07-22T06:04:53Z</time>
      </trkpt>
      <trkpt lat="44.59813" lon="0.94777">
        <ele>237</ele>
        <time>2012-07-22T06:04:58Z</time>
      </trkpt>
      <trkpt lat="44.59799" lon="0.94804">
        <ele>242</ele>
        <time>2012-07-22T06:05:03Z</time>
      </trkpt>
      <trkpt lat="44.59784" lon="0.94835">
        <ele>242</ele>
        <time>2012-07-22T06:05:08Z</time>
      </trkpt>
      <trkpt lat="44.59759" lon="0.94867">
        <ele>237</ele>
        <time>2012-07-22T06:05:14Z</time>
      </trkpt>
      <trkpt lat="44.59742" lon="0.94894">
        <ele>232</ele>
        <time>2012-07-22T06:05:19Z</time>
      </trkpt>
      <trkpt lat="44.59726" lon="0.9493">
        <ele>231</ele>
        <time>2012-07-22T06:05:24Z</time>
      </trkpt>
      <trkpt lat="44.5971" lon="0.94969">
        <ele>231</ele>
        <time>2012-07-22T06:05:29Z</time>
      </trkpt>
      <trkpt lat="44.59691" lon="0.94995">
        <ele>231</ele>
        <time>2012-07-22T06:05:34Z</time>
      </trkpt>
      <trkpt lat="44.59663" lon="0.95001">
        <ele>231</ele>
        <time>2012-07-22T06:05:40Z</time>
      </trkpt>
      <trkpt lat="44.59651" lon="0.95042">
        <ele>231</ele>
        <time>2012-07-22T06:05:45Z</time>
      </trkpt>
      <trkpt lat="44.59661" lon="0.95067">
        <ele>229</ele>
        <time>2012-07-22T06:05:51Z</time>
      </trkpt>
      <trkpt lat="44.59675" lon="0.95076">
        <ele>227</ele>
        <time>2012-07-22T06:05:56Z</time>
      </trkpt>
      <trkpt lat="44.59666" lon="0.95093">
        <ele>227</ele>
        <time>2012-07-22T06:06:01Z</time>
      </trkpt>
      <trkpt lat="44.59633" lon="0.95121">
        <ele>227</ele>
        <time>2012-07-22T06:06:07Z</time>
      </trkpt>
      <trkpt lat="44.5961" lon="0.95153">
        <ele>227</ele>
        <time>2012-07-22T06:06:12Z</time>
      </trkpt>
      <trkpt lat="44.59589" lon="0.95194">
        <ele>227</ele>
        <time>2012-07-22T06:06:17Z</time>
      </trkpt>
      <trkpt lat="44.59574" lon="0.95243">
        <ele>227</ele>
        <time>2012-07-22T06:06:22Z</time>
      </trkpt>
      <trkpt lat="44.59576" lon="0.95291">
        <ele>227</ele>
        <time>2012-07-22T06:06:27Z</time>
      </trkpt>
      <trkpt lat="44.59576" lon="0.95346">
        <ele>226</ele>
        <time>2012-07-22T06:06:32Z</time>
      </trkpt>
      <trkpt lat="44.59575" lon="0.95398">
        <ele>222</ele>
        <time>2012-07-22T06:06:37Z</time>
      </trkpt>
      <trkpt lat="44.59569" lon="0.95448">
        <ele>216</ele>
        <time>2012-07-22T06:06:43Z</time>
      </trkpt>
      <trkpt lat="44.59563" lon="0.95487">
        <ele>211</ele>
        <time>2012-07-22T06:06:48Z</time>
      </trkpt>
      <trkpt lat="44.59562" lon="0.95515">
        <ele>206</ele>
        <time>2012-07-22T06:06:53Z</time>
      </trkpt>
      <trkpt lat="44.59564" lon="0.95547">
        <ele>201</ele>
        <time>2012-07-22T06:06:58Z</time>
      </trkpt>
      <trkpt lat="44.59571" lon="0.95586">
        <ele>196</ele>
        <time>2012-07-22T06:07:03Z</time>
      </trkpt>
      <trkpt lat="44.59589" lon="0.95625">
        <ele>190</ele>
        <time>2012-07-22T06:07:08Z</time>
      </trkpt>
      <trkpt lat="44.59614" lon="0.95672">
        <ele>186</ele>
        <time>2012-07-22T06:07:13Z</time>
      </trkpt>
      <trkpt lat="44.59617" lon="0.95705">
        <ele>182</ele>
        <time>2012-07-22T06:07:18Z</time>
      </trkpt>
      <trkpt lat="44.59607" lon="0.95734">
        <ele>182</ele>
        <time>2012-07-22T06:07:23Z</time>
      </trkpt>
      <trkpt lat="44.59598" lon="0.95765">
        <ele>178</ele>
        <time>2012-07-22T06:07:28Z</time>
      </trkpt>
      <trkpt lat="44.59587" lon="0.95792">
        <ele>174</ele>
        <time>2012-07-22T06:07:33Z</time>
      </trkpt>
      <trkpt lat="44.59579" lon="0.95823">
        <ele>173</ele>
        <time>2012-07-22T06:07:38Z</time>
      </trkpt>
      <trkpt lat="44.59572" lon="0.9585">
        <ele>173</ele>
        <time>2012-07-22T06:07:43Z</time>
      </trkpt>
      <trkpt lat="44.59573" lon="0.95881">
        <ele>173</ele>
        <time>2012-07-22T06:07:48Z</time>
      </trkpt>
      <trkpt lat="44.59569" lon="0.95912">
        <ele>169</ele>
        <time>2012-07-22T06:07:53Z</time>
      </trkpt>
      <trkpt lat="44.59569" lon="0.9594">
        <ele>169</ele>
        <time>2012-07-22T06:07:58Z</time>
      </trkpt>
      <trkpt lat="44.59574" lon="0.95985">
        <ele>169</ele>
        <time>2012-07-22T06:08:04Z</time>
      </trkpt>
      <trkpt lat="44.59582" lon="0.96017">
        <ele>165</ele>
        <time>2012-07-22T06:08:09Z</time>
      </trkpt>
      <trkpt lat="44.59579" lon="0.96043">
        <ele>160</ele>
        <time>2012-07-22T06:08:14Z</time>
      </trkpt>
      <trkpt lat="44.59561" lon="0.96062">
        <ele>153</ele>
        <time>2012-07-22T06:08:19Z</time>
      </trkpt>
      <trkpt lat="44.5954" lon="0.96083">
        <ele>149</ele>
        <time>2012-07-22T06:08:24Z</time>
      </trkpt>
      <trkpt lat="44.59523" lon="0.96084">
        <ele>149</ele>
        <time>2012-07-22T06:08:29Z</time>
      </trkpt>
      <trkpt lat="44.59496" lon="0.96083">
        <ele>149</ele>
        <time>2012-07-22T06:08:34Z</time>
      </trkpt>
      <trkpt lat="44.59472" lon="0.9609">
        <ele>149</ele>
        <time>2012-07-22T06:08:39Z</time>
      </trkpt>
      <trkpt lat="44.59448" lon="0.96095">
        <ele>146</ele>
        <time>2012-07-22T06:08:44Z</time>
      </trkpt>
      <trkpt lat="44.59435" lon="0.96101">
        <ele>142</ele>
        <time>2012-07-22T06:08:49Z</time>
      </trkpt>
      <trkpt lat="44.59452" lon="0.96126">
        <ele>137</ele>
        <time>2012-07-22T06:08:54Z</time>
      </trkpt>
      <trkpt lat="44.59469" lon="0.96138">
        <ele>132</ele>
        <time>2012-07-22T06:08:59Z</time>
      </trkpt>
      <trkpt lat="44.59475" lon="0.96153">
        <ele>128</ele>
        <time>2012-07-22T06:09:04Z</time>
      </trkpt>
      <trkpt lat="44.5948" lon="0.96175">
        <ele>127</ele>
        <time>2012-07-22T06:09:09Z</time>
      </trkpt>
      <trkpt lat="44.59475" lon="0.96205">
        <ele>127</ele>
        <time>2012-07-22T06:09:14Z</time>
      </trkpt>
      <trkpt lat="44.5947" lon="0.96237">
        <ele>125</ele>
        <time>2012-07-22T06:09:19Z</time>
      </trkpt>
      <trkpt lat="44.59467" lon="0.96259">
        <ele>124</ele>
        <time>2012-07-22T06:09:24Z</time>
      </trkpt>
      <trkpt lat="44.59459" lon="0.96279">
        <ele>124</ele>
        <time>2012-07-22T06:09:29Z</time>
      </trkpt>
      <trkpt lat="44.59455" lon="0.96295">
        <ele>124</ele>
        <time>2012-07-22T06:09:34Z</time>
      </trkpt>
      <trkpt lat="44.5945" lon="0.96306">
        <ele>124</ele>
        <time>2012-07-22T06:09:39Z</time>
      </trkpt>
      <trkpt lat="44.59443" lon="0.96315">
        <ele>125</ele>
        <time>2012-07-22T06:09:44Z</time>
      </trkpt>
      <trkpt lat="44.59436" lon="0.96324">
        <ele>128</ele>
        <time>2012-07-22T06:09:49Z</time>
      </trkpt>
      <trkpt lat="44.5943" lon="0.96333">
        <ele>133</ele>
        <time>2012-07-22T06:09:54Z</time>
      </trkpt>
      <trkpt lat="44.59422" lon="0.96341">
        <ele>133</ele>
        <time>2012-07-22T06:09:59Z</time>
      </trkpt>
      <trkpt lat="44.59416" lon="0.96349">
        <ele>133</ele>
        <time>2012-07-22T06:10:04Z</time>
      </trkpt>
      <trkpt lat="44.59411" lon="0.96362">
        <ele>133</ele>
        <time>2012-07-22T06:10:09Z</time>
      </trkpt>
      <trkpt lat="44.59408" lon="0.96377">
        <ele>134</ele>
        <time>2012-07-22T06:10:14Z</time>
      </trkpt>
      <trkpt lat="44.59411" lon="0.9639">
        <ele>135</ele>
        <time>2012-07-22T06:10:19Z</time>
      </trkpt>
      <trkpt lat="44.59419" lon="0.96394">
        <ele>135</ele>
        <time>2012-07-22T06:10:24Z</time>
      </trkpt>
      <trkpt lat="44.59441" lon="0.96392">
        <ele>132</ele>
        <time>2012-07-22T06:10:29Z</time>
      </trkpt>
      <trkpt lat="44.59473" lon="0.96391">
        <ele>127</ele>
        <time>2012-07-22T06:10:34Z</time>
      </trkpt>
      <trkpt lat="44.59509" lon="0.96397">
        <ele>122</ele>
        <time>2012-07-22T06:10:39Z</time>
      </trkpt>
      <trkpt lat="44.59552" lon="0.96417">
        <ele>117</ele>
        <time>2012-07-22T06:10:44Z</time>
      </trkpt>
      <trkpt lat="44.59587" lon="0.96437">
        <ele>112</ele>
        <time>2012-07-22T06:10:49Z</time>
      </trkpt>
      <trkpt lat="44.59621" lon="0.96465">
        <ele>109</ele>
        <time>2012-07-22T06:10:54Z</time>
      </trkpt>
      <trkpt lat="44.59656" lon="0.9649">
        <ele>109</ele>
        <time>2012-07-22T06:10:59Z</time>
      </trkpt>
      <trkpt lat="44.59682" lon="0.96518">
        <ele>109</ele>
        <time>2012-07-22T06:11:04Z</time>
      </trkpt>
      <trkpt lat="44.59684" lon="0.9655">
        <ele>109</ele>
        <time>2012-07-22T06:11:09Z</time>
      </trkpt>
      <trkpt lat="44.59682" lon="0.96576">
        <ele>109</ele>
        <time>2012-07-22T06:11:14Z</time>
      </trkpt>
      <trkpt lat="44.5969" lon="0.96586">
        <ele>109</ele>
        <time>2012-07-22T06:11:19Z</time>
      </trkpt>
      <trkpt lat="44.597" lon="0.96595">
        <ele>110</ele>
        <time>2012-07-22T06:11:24Z</time>
      </trkpt>
      <trkpt lat="44.59704" lon="0.96602">
        <ele>110</ele>
        <time>2012-07-22T06:11:30Z</time>
      </trkpt>
      <trkpt lat="44.59703" lon="0.96603">
        <ele>110</ele>
        <time>2012-07-22T06:11:35Z</time>
      </trkpt>
      <trkpt lat="44.59705" lon="0.96601">
        <ele>111</ele>
        <time>2012-07-22T06:11:45Z</time>
      </trkpt>
      <trkpt lat="44.59704" lon="0.96601">
        <ele>128</ele>
        <time>2012-07-22T06:11:58Z</time>
      </trkpt>
      <trkpt lat="44.59703" lon="0.966">
        <ele>136</ele>
        <time>2012-07-22T06:12:06Z</time>
      </trkpt>
      <trkpt lat="44.597" lon="0.96602">
        <ele>137</ele>
        <time>2012-07-22T06:12:17Z</time>
      </trkpt>
      <trkpt lat="44.59692" lon="0.96605">
        <ele>137</ele>
        <time>2012-07-22T06:12:22Z</time>
      </trkpt>
      <trkpt lat="44.59681" lon="0.96601">
        <ele>133</ele>
        <time>2012-07-22T06:12:27Z</time>
      </trkpt>
      <trkpt lat="44.59669" lon="0.96601">
        <ele>128</ele>
        <time>2012-07-22T06:12:32Z</time>
      </trkpt>
      <trkpt lat="44.59658" lon="0.96606">
        <ele>125</ele>
        <time>2012-07-22T06:12:37Z</time>
      </trkpt>
      <trkpt lat="44.59647" lon="0.96608">
        <ele>125</ele>
        <time>2012-07-22T06:12:42Z</time>
      </trkpt>
      <trkpt lat="44.5964" lon="0.96614">
        <ele>125</ele>
        <time>2012-07-22T06:12:47Z</time>
      </trkpt>
      <trkpt lat="44.59635" lon="0.96623">
        <ele>125</ele>
        <time>2012-07-22T06:12:52Z</time>
      </trkpt>
      <trkpt lat="44.59631" lon="0.96636">
        <ele>127</ele>
        <time>2012-07-22T06:12:57Z</time>
      </trkpt>
      <trkpt lat="44.59624" lon="0.96647">
        <ele>128</ele>
        <time>2012-07-22T06:13:02Z</time>
      </trkpt>
      <trkpt lat="44.59617" lon="0.96647">
        <ele>131</ele>
        <time>2012-07-22T06:13:07Z</time>
      </trkpt>
      <trkpt lat="44.59607" lon="0.96646">
        <ele>131</ele>
        <time>2012-07-22T06:13:12Z</time>
      </trkpt>
      <trkpt lat="44.59604" lon="0.96653">
        <ele>131</ele>
        <time>2012-07-22T06:13:17Z</time>
      </trkpt>
      <trkpt lat="44.59607" lon="0.96664">
        <ele>135</ele>
        <time>2012-07-22T06:13:22Z</time>
      </trkpt>
      <trkpt lat="44.59612" lon="0.96674">
        <ele>139</ele>
        <time>2012-07-22T06:13:27Z</time>
      </trkpt>
      <trkpt lat="44.59614" lon="0.96685">
        <ele>139</ele>
        <time>2012-07-22T06:13:32Z</time>
      </trkpt>
      <trkpt lat="44.59617" lon="0.96697">
        <ele>139</ele>
        <time>2012-07-22T06:13:37Z</time>
      </trkpt>
      <trkpt lat="44.5962" lon="0.96709">
        <ele>139</ele>
        <time>2012-07-22T06:13:42Z</time>
      </trkpt>
      <trkpt lat="44.59624" lon="0.96723">
        <ele>139</ele>
        <time>2012-07-22T06:13:47Z</time>
      </trkpt>
      <trkpt lat="44.59629" lon="0.9673">
        <ele>139</ele>
        <time>2012-07-22T06:13:52Z</time>
      </trkpt>
      <trkpt lat="44.59639" lon="0.96738">
        <ele>141</ele>
        <time>2012-07-22T06:13:57Z</time>
      </trkpt>
      <trkpt lat="44.59648" lon="0.96748">
        <ele>141</ele>
        <time>2012-07-22T06:14:02Z</time>
      </trkpt>
      <trkpt lat="44.5966" lon="0.96758">
        <ele>141</ele>
        <time>2012-07-22T06:14:07Z</time>
      </trkpt>
      <trkpt lat="44.5967" lon="0.96768">
        <ele>141</ele>
        <time>2012-07-22T06:14:12Z</time>
      </trkpt>
      <trkpt lat="44.59682" lon="0.96786">
        <ele>141</ele>
        <time>2012-07-22T06:14:17Z</time>
      </trkpt>
      <trkpt lat="44.59691" lon="0.96807">
        <ele>141</ele>
        <time>2012-07-22T06:14:22Z</time>
      </trkpt>
      <trkpt lat="44.597" lon="0.96823">
        <ele>141</ele>
        <time>2012-07-22T06:14:27Z</time>
      </trkpt>
      <trkpt lat="44.59704" lon="0.96836">
        <ele>136</ele>
        <time>2012-07-22T06:14:32Z</time>
      </trkpt>
      <trkpt lat="44.59703" lon="0.96851">
        <ele>131</ele>
        <time>2012-07-22T06:14:37Z</time>
      </trkpt>
      <trkpt lat="44.59703" lon="0.96862">
        <ele>131</ele>
        <time>2012-07-22T06:14:43Z</time>
      </trkpt>
      <trkpt lat="44.59703" lon="0.96872">
        <ele>131</ele>
        <time>2012-07-22T06:14:48Z</time>
      </trkpt>
      <trkpt lat="44.59707" lon="0.96879">
        <ele>131</ele>
        <time>2012-07-22T06:14:53Z</time>
      </trkpt>
      <trkpt lat="44.5971" lon="0.9689">
        <ele>131</ele>
        <time>2012-07-22T06:14:58Z</time>
      </trkpt>
      <trkpt lat="44.59705" lon="0.96907">
        <ele>131</ele>
        <time>2012-07-22T06:15:03Z</time>
      </trkpt>
      <trkpt lat="44.59704" lon="0.96921">
        <ele>131</ele>
        <time>2012-07-22T06:15:08Z</time>
      </trkpt>
      <trkpt lat="44.59704" lon="0.96933">
        <ele>133</ele>
        <time>2012-07-22T06:15:13Z</time>
      </trkpt>
      <trkpt lat="44.59708" lon="0.96953">
        <ele>138</ele>
        <time>2012-07-22T06:15:18Z</time>
      </trkpt>
      <trkpt lat="44.59716" lon="0.96975">
        <ele>143</ele>
        <time>2012-07-22T06:15:23Z</time>
      </trkpt>
      <trkpt lat="44.5972" lon="0.97002">
        <ele>147</ele>
        <time>2012-07-22T06:15:28Z</time>
      </trkpt>
      <trkpt lat="44.59717" lon="0.97032">
        <ele>151</ele>
        <time>2012-07-22T06:15:33Z</time>
      </trkpt>
      <trkpt lat="44.5971" lon="0.97062">
        <ele>156</ele>
        <time>2012-07-22T06:15:38Z</time>
      </trkpt>
      <trkpt lat="44.59701" lon="0.97095">
        <ele>161</ele>
        <time>2012-07-22T06:15:43Z</time>
      </trkpt>
      <trkpt lat="44.5969" lon="0.97138">
        <ele>161</ele>
        <time>2012-07-22T06:15:48Z</time>
      </trkpt>
      <trkpt lat="44.59678" lon="0.97171">
        <ele>159</ele>
        <time>2012-07-22T06:15:53Z</time>
      </trkpt>
      <trkpt lat="44.59663" lon="0.97196">
        <ele>157</ele>
        <time>2012-07-22T06:15:58Z</time>
      </trkpt>
      <trkpt lat="44.59648" lon="0.97217">
        <ele>158</ele>
        <time>2012-07-22T06:16:03Z</time>
      </trkpt>
      <trkpt lat="44.59635" lon="0.9723">
        <ele>160</ele>
        <time>2012-07-22T06:16:08Z</time>
      </trkpt>
      <trkpt lat="44.59623" lon="0.97249">
        <ele>161</ele>
        <time>2012-07-22T06:16:13Z</time>
      </trkpt>
      <trkpt lat="44.59613" lon="0.97266">
        <ele>162</ele>
        <time>2012-07-22T06:16:18Z</time>
      </trkpt>
      <trkpt lat="44.59604" lon="0.97283">
        <ele>162</ele>
        <time>2012-07-22T06:16:23Z</time>
      </trkpt>
      <trkpt lat="44.59591" lon="0.97293">
        <ele>163</ele>
        <time>2012-07-22T06:16:28Z</time>
      </trkpt>
      <trkpt lat="44.59579" lon="0.97304">
        <ele>163</ele>
        <time>2012-07-22T06:16:33Z</time>
      </trkpt>
      <trkpt lat="44.59568" lon="0.97319">
        <ele>163</ele>
        <time>2012-07-22T06:16:38Z</time>
      </trkpt>
      <trkpt lat="44.59561" lon="0.97334">
        <ele>163</ele>
        <time>2012-07-22T06:16:43Z</time>
      </trkpt>
      <trkpt lat="44.59547" lon="0.97348">
        <ele>163</ele>
        <time>2012-07-22T06:16:48Z</time>
      </trkpt>
      <trkpt lat="44.59531" lon="0.97365">
        <ele>163</ele>
        <time>2012-07-22T06:16:53Z</time>
      </trkpt>
      <trkpt lat="44.5952" lon="0.97373">
        <ele>167</ele>
        <time>2012-07-22T06:16:58Z</time>
      </trkpt>
      <trkpt lat="44.59506" lon="0.97382">
        <ele>169</ele>
        <time>2012-07-22T06:17:03Z</time>
      </trkpt>
      <trkpt lat="44.59489" lon="0.974">
        <ele>170</ele>
        <time>2012-07-22T06:17:08Z</time>
      </trkpt>
      <trkpt lat="44.59478" lon="0.97413">
        <ele>170</ele>
        <time>2012-07-22T06:17:13Z</time>
      </trkpt>
      <trkpt lat="44.59467" lon="0.97425">
        <ele>170</ele>
        <time>2012-07-22T06:17:18Z</time>
      </trkpt>
      <trkpt lat="44.59459" lon="0.97435">
        <ele>172</ele>
        <time>2012-07-22T06:17:23Z</time>
      </trkpt>
      <trkpt lat="44.59451" lon="0.97449">
        <ele>172</ele>
        <time>2012-07-22T06:17:28Z</time>
      </trkpt>
      <trkpt lat="44.59443" lon="0.97461">
        <ele>169</ele>
        <time>2012-07-22T06:17:33Z</time>
      </trkpt>
      <trkpt lat="44.59435" lon="0.97472">
        <ele>164</ele>
        <time>2012-07-22T06:17:38Z</time>
      </trkpt>
      <trkpt lat="44.59428" lon="0.97484">
        <ele>160</ele>
        <time>2012-07-22T06:17:43Z</time>
      </trkpt>
      <trkpt lat="44.5942" lon="0.97495">
        <ele>157</ele>
        <time>2012-07-22T06:17:48Z</time>
      </trkpt>
      <trkpt lat="44.59416" lon="0.97508">
        <ele>157</ele>
        <time>2012-07-22T06:17:53Z</time>
      </trkpt>
      <trkpt lat="44.59409" lon="0.97522">
        <ele>157</ele>
        <time>2012-07-22T06:17:58Z</time>
      </trkpt>
      <trkpt lat="44.59403" lon="0.97534">
        <ele>157</ele>
        <time>2012-07-22T06:18:03Z</time>
      </trkpt>
      <trkpt lat="44.59398" lon="0.97541">
        <ele>161</ele>
        <time>2012-07-22T06:18:08Z</time>
      </trkpt>
      <trkpt lat="44.59391" lon="0.97549">
        <ele>166</ele>
        <time>2012-07-22T06:18:13Z</time>
      </trkpt>
      <trkpt lat="44.59386" lon="0.97559">
        <ele>171</ele>
        <time>2012-07-22T06:18:18Z</time>
      </trkpt>
      <trkpt lat="44.59383" lon="0.97567">
        <ele>173</ele>
        <time>2012-07-22T06:18:23Z</time>
      </trkpt>
      <trkpt lat="44.59379" lon="0.97579">
        <ele>173</ele>
        <time>2012-07-22T06:18:28Z</time>
      </trkpt>
      <trkpt lat="44.59372" lon="0.97591">
        <ele>173</ele>
        <time>2012-07-22T06:18:33Z</time>
      </trkpt>
      <trkpt lat="44.59365" lon="0.97601">
        <ele>173</ele>
        <time>2012-07-22T06:18:38Z</time>
      </trkpt>
      <trkpt lat="44.59361" lon="0.9761">
        <ele>173</ele>
        <time>2012-07-22T06:18:43Z</time>
      </trkpt>
      <trkpt lat="44.59355" lon="0.97619">
        <ele>172</ele>
        <time>2012-07-22T06:18:48Z</time>
      </trkpt>
      <trkpt lat="44.59348" lon="0.97632">
        <ele>171</ele>
        <time>2012-07-22T06:18:53Z</time>
      </trkpt>
      <trkpt lat="44.59345" lon="0.97647">
        <ele>171</ele>
        <time>2012-07-22T06:18:58Z</time>
      </trkpt>
      <trkpt lat="44.59338" lon="0.9766">
        <ele>173</ele>
        <time>2012-07-22T06:19:03Z</time>
      </trkpt>
      <trkpt lat="44.59334" lon="0.97671">
        <ele>176</ele>
        <time>2012-07-22T06:19:08Z</time>
      </trkpt>
      <trkpt lat="44.59323" lon="0.9768">
        <ele>182</ele>
        <time>2012-07-22T06:19:14Z</time>
      </trkpt>
      <trkpt lat="44.59314" lon="0.97679">
        <ele>187</ele>
        <time>2012-07-22T06:19:19Z</time>
      </trkpt>
      <trkpt lat="44.59307" lon="0.97678">
        <ele>188</ele>
        <time>2012-07-22T06:19:24Z</time>
      </trkpt>
      <trkpt lat="44.593" lon="0.97679">
        <ele>190</ele>
        <time>2012-07-22T06:19:29Z</time>
      </trkpt>
      <trkpt lat="44.59292" lon="0.97685">
        <ele>192</ele>
        <time>2012-07-22T06:19:34Z</time>
      </trkpt>
      <trkpt lat="44.59285" lon="0.97689">
        <ele>195</ele>
        <time>2012-07-22T06:19:39Z</time>
      </trkpt>
      <trkpt lat="44.59279" lon="0.97697">
        <ele>197</ele>
        <time>2012-07-22T06:19:44Z</time>
      </trkpt>
      <trkpt lat="44.59272" lon="0.97705">
        <ele>198</ele>
        <time>2012-07-22T06:19:49Z</time>
      </trkpt>
      <trkpt lat="44.59264" lon="0.97714">
        <ele>199</ele>
        <time>2012-07-22T06:19:54Z</time>
      </trkpt>
      <trkpt lat="44.59257" lon="0.9772">
        <ele>201</ele>
        <time>2012-07-22T06:19:59Z</time>
      </trkpt>
      <trkpt lat="44.59249" lon="0.97725">
        <ele>204</ele>
        <time>2012-07-22T06:20:04Z</time>
      </trkpt>
      <trkpt lat="44.59241" lon="0.97734">
        <ele>206</ele>
        <time>2012-07-22T06:20:09Z</time>
      </trkpt>
      <trkpt lat="44.59236" lon="0.97742">
        <ele>207</ele>
        <time>2012-07-22T06:20:14Z</time>
      </trkpt>
      <trkpt lat="44.59236" lon="0.97749">
        <ele>209</ele>
        <time>2012-07-22T06:20:19Z</time>
      </trkpt>
      <trkpt lat="44.59238" lon="0.97756">
        <ele>209</ele>
        <time>2012-07-22T06:20:25Z</time>
      </trkpt>
      <trkpt lat="44.59238" lon="0.97767">
        <ele>209</ele>
        <time>2012-07-22T06:20:30Z</time>
      </trkpt>
      <trkpt lat="44.5924" lon="0.97781">
        <ele>210</ele>
        <time>2012-07-22T06:20:35Z</time>
      </trkpt>
      <trkpt lat="44.59244" lon="0.97796">
        <ele>212</ele>
        <time>2012-07-22T06:20:40Z</time>
      </trkpt>
      <trkpt lat="44.59249" lon="0.97809">
        <ele>214</ele>
        <time>2012-07-22T06:20:45Z</time>
      </trkpt>
      <trkpt lat="44.59251" lon="0.97821">
        <ele>214</ele>
        <time>2012-07-22T06:20:50Z</time>
      </trkpt>
      <trkpt lat="44.59255" lon="0.97834">
        <ele>214</ele>
        <time>2012-07-22T06:20:55Z</time>
      </trkpt>
      <trkpt lat="44.59261" lon="0.97852">
        <ele>215</ele>
        <time>2012-07-22T06:21:01Z</time>
      </trkpt>
      <trkpt lat="44.59271" lon="0.97867">
        <ele>217</ele>
        <time>2012-07-22T06:21:06Z</time>
      </trkpt>
      <trkpt lat="44.59278" lon="0.97889">
        <ele>216</ele>
        <time>2012-07-22T06:21:11Z</time>
      </trkpt>
      <trkpt lat="44.5928" lon="0.9791">
        <ele>214</ele>
        <time>2012-07-22T06:21:16Z</time>
      </trkpt>
      <trkpt lat="44.59277" lon="0.97933">
        <ele>214</ele>
        <time>2012-07-22T06:21:21Z</time>
      </trkpt>
      <trkpt lat="44.59277" lon="0.97955">
        <ele>214</ele>
        <time>2012-07-22T06:21:26Z</time>
      </trkpt>
      <trkpt lat="44.59284" lon="0.97973">
        <ele>214</ele>
        <time>2012-07-22T06:21:31Z</time>
      </trkpt>
      <trkpt lat="44.59292" lon="0.97991">
        <ele>216</ele>
        <time>2012-07-22T06:21:36Z</time>
      </trkpt>
      <trkpt lat="44.5931" lon="0.98013">
        <ele>216</ele>
        <time>2012-07-22T06:21:41Z</time>
      </trkpt>
      <trkpt lat="44.59336" lon="0.98041">
        <ele>216</ele>
        <time>2012-07-22T06:21:46Z</time>
      </trkpt>
      <trkpt lat="44.59344" lon="0.98077">
        <ele>212</ele>
        <time>2012-07-22T06:21:51Z</time>
      </trkpt>
      <trkpt lat="44.59349" lon="0.98099">
        <ele>210</ele>
        <time>2012-07-22T06:21:56Z</time>
      </trkpt>
      <trkpt lat="44.59355" lon="0.98113">
        <ele>209</ele>
        <time>2012-07-22T06:22:01Z</time>
      </trkpt>
      <trkpt lat="44.59362" lon="0.98126">
        <ele>209</ele>
        <time>2012-07-22T06:22:06Z</time>
      </trkpt>
      <trkpt lat="44.59363" lon="0.98143">
        <ele>210</ele>
        <time>2012-07-22T06:22:11Z</time>
      </trkpt>
      <trkpt lat="44.59352" lon="0.98167">
        <ele>215</ele>
        <time>2012-07-22T06:22:16Z</time>
      </trkpt>
      <trkpt lat="44.59343" lon="0.98188">
        <ele>220</ele>
        <time>2012-07-22T06:22:21Z</time>
      </trkpt>
      <trkpt lat="44.59341" lon="0.98213">
        <ele>222</ele>
        <time>2012-07-22T06:22:26Z</time>
      </trkpt>
      <trkpt lat="44.59335" lon="0.98234">
        <ele>217</ele>
        <time>2012-07-22T06:22:31Z</time>
      </trkpt>
      <trkpt lat="44.59328" lon="0.98257">
        <ele>212</ele>
        <time>2012-07-22T06:22:36Z</time>
      </trkpt>
      <trkpt lat="44.59318" lon="0.98277">
        <ele>208</ele>
        <time>2012-07-22T06:22:41Z</time>
      </trkpt>
      <trkpt lat="44.59309" lon="0.98296">
        <ele>208</ele>
        <time>2012-07-22T06:22:46Z</time>
      </trkpt>
      <trkpt lat="44.59298" lon="0.98314">
        <ele>208</ele>
        <time>2012-07-22T06:22:51Z</time>
      </trkpt>
      <trkpt lat="44.59284" lon="0.98328">
        <ele>210</ele>
        <time>2012-07-22T06:22:56Z</time>
      </trkpt>
      <trkpt lat="44.5927" lon="0.98348">
        <ele>215</ele>
        <time>2012-07-22T06:23:01Z</time>
      </trkpt>
      <trkpt lat="44.59275" lon="0.98368">
        <ele>217</ele>
        <time>2012-07-22T06:23:06Z</time>
      </trkpt>
      <trkpt lat="44.59283" lon="0.98388">
        <ele>222</ele>
        <time>2012-07-22T06:23:11Z</time>
      </trkpt>
      <trkpt lat="44.59293" lon="0.98413">
        <ele>226</ele>
        <time>2012-07-22T06:23:16Z</time>
      </trkpt>
      <trkpt lat="44.59308" lon="0.9844">
        <ele>226</ele>
        <time>2012-07-22T06:23:21Z</time>
      </trkpt>
      <trkpt lat="44.59325" lon="0.98476">
        <ele>223</ele>
        <time>2012-07-22T06:23:26Z</time>
      </trkpt>
      <trkpt lat="44.59334" lon="0.98515">
        <ele>219</ele>
        <time>2012-07-22T06:23:31Z</time>
      </trkpt>
      <trkpt lat="44.59337" lon="0.98548">
        <ele>214</ele>
        <time>2012-07-22T06:23:36Z</time>
      </trkpt>
      <trkpt lat="44.59347" lon="0.98574">
        <ele>214</ele>
        <time>2012-07-22T06:23:41Z</time>
      </trkpt>
      <trkpt lat="44.59354" lon="0.986">
        <ele>214</ele>
        <time>2012-07-22T06:23:46Z</time>
      </trkpt>
      <trkpt lat="44.59362" lon="0.98622">
        <ele>214</ele>
        <time>2012-07-22T06:23:51Z</time>
      </trkpt>
      <trkpt lat="44.59374" lon="0.98638">
        <ele>214</ele>
        <time>2012-07-22T06:23:56Z</time>
      </trkpt>
      <trkpt lat="44.59387" lon="0.98659">
        <ele>215</ele>
        <time>2012-07-22T06:24:01Z</time>
      </trkpt>
      <trkpt lat="44.59398" lon="0.98682">
        <ele>216</ele>
        <time>2012-07-22T06:24:06Z</time>
      </trkpt>
      <trkpt lat="44.59417" lon="0.98698">
        <ele>219</ele>
        <time>2012-07-22T06:24:12Z</time>
      </trkpt>
      <trkpt lat="44.59436" lon="0.98709">
        <ele>219</ele>
        <time>2012-07-22T06:24:17Z</time>
      </trkpt>
      <trkpt lat="44.59451" lon="0.9872">
        <ele>219</ele>
        <time>2012-07-22T06:24:22Z</time>
      </trkpt>
      <trkpt lat="44.59467" lon="0.9872">
        <ele>220</ele>
        <time>2012-07-22T06:24:27Z</time>
      </trkpt>
      <trkpt lat="44.5948" lon="0.98716">
        <ele>220</ele>
        <time>2012-07-22T06:24:32Z</time>
      </trkpt>
      <trkpt lat="44.59489" lon="0.98726">
        <ele>220</ele>
        <time>2012-07-22T06:24:37Z</time>
      </trkpt>
      <trkpt lat="44.595" lon="0.9873">
        <ele>221</ele>
        <time>2012-07-22T06:24:42Z</time>
      </trkpt>
      <trkpt lat="44.59507" lon="0.98741">
        <ele>221</ele>
        <time>2012-07-22T06:24:47Z</time>
      </trkpt>
      <trkpt lat="44.59514" lon="0.9875">
        <ele>221</ele>
        <time>2012-07-22T06:24:52Z</time>
      </trkpt>
      <trkpt lat="44.5952" lon="0.98762">
        <ele>222</ele>
        <time>2012-07-22T06:24:57Z</time>
      </trkpt>
      <trkpt lat="44.59524" lon="0.98774">
        <ele>224</ele>
        <time>2012-07-22T06:25:02Z</time>
      </trkpt>
      <trkpt lat="44.59529" lon="0.98785">
        <ele>226</ele>
        <time>2012-07-22T06:25:07Z</time>
      </trkpt>
      <trkpt lat="44.59538" lon="0.98794">
        <ele>226</ele>
        <time>2012-07-22T06:25:12Z</time>
      </trkpt>
      <trkpt lat="44.59547" lon="0.98794">
        <ele>227</ele>
        <time>2012-07-22T06:25:17Z</time>
      </trkpt>
      <trkpt lat="44.5956" lon="0.98791">
        <ele>229</ele>
        <time>2012-07-22T06:25:22Z</time>
      </trkpt>
      <trkpt lat="44.59573" lon="0.9879">
        <ele>231</ele>
        <time>2012-07-22T06:25:27Z</time>
      </trkpt>
      <trkpt lat="44.5959" lon="0.98793">
        <ele>231</ele>
        <time>2012-07-22T06:25:32Z</time>
      </trkpt>
      <trkpt lat="44.59607" lon="0.988">
        <ele>231</ele>
        <time>2012-07-22T06:25:37Z</time>
      </trkpt>
      <trkpt lat="44.59627" lon="0.98802">
        <ele>231</ele>
        <time>2012-07-22T06:25:42Z</time>
      </trkpt>
      <trkpt lat="44.59653" lon="0.98793">
        <ele>231</ele>
        <time>2012-07-22T06:25:47Z</time>
      </trkpt>
      <trkpt lat="44.59676" lon="0.9878">
        <ele>231</ele>
        <time>2012-07-22T06:25:52Z</time>
      </trkpt>
      <trkpt lat="44.59696" lon="0.98779">
        <ele>231</ele>
        <time>2012-07-22T06:25:57Z</time>
      </trkpt>
      <trkpt lat="44.59703" lon="0.9881">
        <ele>229</ele>
        <time>2012-07-22T06:26:02Z</time>
      </trkpt>
      <trkpt lat="44.59703" lon="0.98849">
        <ele>224</ele>
        <time>2012-07-22T06:26:07Z</time>
      </trkpt>
      <trkpt lat="44.59714" lon="0.98881">
        <ele>221</ele>
        <time>2012-07-22T06:26:12Z</time>
      </trkpt>
      <trkpt lat="44.59737" lon="0.98905">
        <ele>221</ele>
        <time>2012-07-22T06:26:17Z</time>
      </trkpt>
      <trkpt lat="44.59771" lon="0.98914">
        <ele>220</ele>
        <time>2012-07-22T06:26:22Z</time>
      </trkpt>
      <trkpt lat="44.59806" lon="0.9891">
        <ele>218</ele>
        <time>2012-07-22T06:26:27Z</time>
      </trkpt>
      <trkpt lat="44.59841" lon="0.98913">
        <ele>218</ele>
        <time>2012-07-22T06:26:32Z</time>
      </trkpt>
      <trkpt lat="44.59873" lon="0.98925">
        <ele>219</ele>
        <time>2012-07-22T06:26:37Z</time>
      </trkpt>
      <trkpt lat="44.59904" lon="0.98954">
        <ele>224</ele>
        <time>2012-07-22T06:26:42Z</time>
      </trkpt>
      <trkpt lat="44.5994" lon="0.98985">
        <ele>225</ele>
        <time>2012-07-22T06:26:47Z</time>
      </trkpt>
      <trkpt lat="44.59974" lon="0.99008">
        <ele>224</ele>
        <time>2012-07-22T06:26:52Z</time>
      </trkpt>
      <trkpt lat="44.59972" lon="0.98995">
        <ele>219</ele>
        <time>2012-07-22T06:26:57Z</time>
      </trkpt>
      <trkpt lat="44.59984" lon="0.98957">
        <ele>214</ele>
        <time>2012-07-22T06:27:02Z</time>
      </trkpt>
      <trkpt lat="44.59998" lon="0.98905">
        <ele>211</ele>
        <time>2012-07-22T06:27:07Z</time>
      </trkpt>
      <trkpt lat="44.59998" lon="0.98852">
        <ele>209</ele>
        <time>2012-07-22T06:27:12Z</time>
      </trkpt>
      <trkpt lat="44.60003" lon="0.98794">
        <ele>206</ele>
        <time>2012-07-22T06:27:17Z</time>
      </trkpt>
      <trkpt lat="44.59998" lon="0.98732">
        <ele>205</ele>
        <time>2012-07-22T06:27:22Z</time>
      </trkpt>
      <trkpt lat="44.59988" lon="0.98674">
        <ele>200</ele>
        <time>2012-07-22T06:27:27Z</time>
      </trkpt>
      <trkpt lat="44.60001" lon="0.98623">
        <ele>198</ele>
        <time>2012-07-22T06:27:32Z</time>
      </trkpt>
      <trkpt lat="44.60017" lon="0.98576">
        <ele>198</ele>
        <time>2012-07-22T06:27:37Z</time>
      </trkpt>
      <trkpt lat="44.60038" lon="0.98523">
        <ele>196</ele>
        <time>2012-07-22T06:27:42Z</time>
      </trkpt>
      <trkpt lat="44.60062" lon="0.98472">
        <ele>191</ele>
        <time>2012-07-22T06:27:47Z</time>
      </trkpt>
      <trkpt lat="44.60078" lon="0.98429">
        <ele>186</ele>
        <time>2012-07-22T06:27:52Z</time>
      </trkpt>
      <trkpt lat="44.60082" lon="0.98374">
        <ele>182</ele>
        <time>2012-07-22T06:27:57Z</time>
      </trkpt>
      <trkpt lat="44.60088" lon="0.98309">
        <ele>177</ele>
        <time>2012-07-22T06:28:02Z</time>
      </trkpt>
      <trkpt lat="44.60104" lon="0.98259">
        <ele>172</ele>
        <time>2012-07-22T06:28:07Z</time>
      </trkpt>
      <trkpt lat="44.60135" lon="0.98244">
        <ele>168</ele>
        <time>2012-07-22T06:28:12Z</time>
      </trkpt>
      <trkpt lat="44.60159" lon="0.98224">
        <ele>168</ele>
        <time>2012-07-22T06:28:17Z</time>
      </trkpt>
      <trkpt lat="44.60173" lon="0.98207">
        <ele>168</ele>
        <time>2012-07-22T06:28:22Z</time>
      </trkpt>
      <trkpt lat="44.60184" lon="0.98211">
        <ele>168</ele>
        <time>2012-07-22T06:28:27Z</time>
      </trkpt>
      <trkpt lat="44.60193" lon="0.98215">
        <ele>170</ele>
        <time>2012-07-22T06:28:32Z</time>
      </trkpt>
      <trkpt lat="44.60201" lon="0.9822">
        <ele>175</ele>
        <time>2012-07-22T06:28:37Z</time>
      </trkpt>
      <trkpt lat="44.60212" lon="0.98223">
        <ele>175</ele>
        <time>2012-07-22T06:28:42Z</time>
      </trkpt>
      <trkpt lat="44.60219" lon="0.98221">
        <ele>175</ele>
        <time>2012-07-22T06:28:47Z</time>
      </trkpt>
      <trkpt lat="44.60226" lon="0.98223">
        <ele>179</ele>
        <time>2012-07-22T06:28:53Z</time>
      </trkpt>
      <trkpt lat="44.60234" lon="0.9823">
        <ele>179</ele>
        <time>2012-07-22T06:28:58Z</time>
      </trkpt>
      <trkpt lat="44.60241" lon="0.98238">
        <ele>179</ele>
        <time>2012-07-22T06:29:04Z</time>
      </trkpt>
      <trkpt lat="44.60248" lon="0.98242">
        <ele>181</ele>
        <time>2012-07-22T06:29:10Z</time>
      </trkpt>
      <trkpt lat="44.60254" lon="0.98248">
        <ele>184</ele>
        <time>2012-07-22T06:29:15Z</time>
      </trkpt>
      <trkpt lat="44.6026" lon="0.98253">
        <ele>184</ele>
        <time>2012-07-22T06:29:20Z</time>
      </trkpt>
      <trkpt lat="44.60266" lon="0.98258">
        <ele>187</ele>
        <time>2012-07-22T06:29:25Z</time>
      </trkpt>
      <trkpt lat="44.60273" lon="0.98264">
        <ele>192</ele>
        <time>2012-07-22T06:29:30Z</time>
      </trkpt>
      <trkpt lat="44.60279" lon="0.98269">
        <ele>193</ele>
        <time>2012-07-22T06:29:35Z</time>
      </trkpt>
      <trkpt lat="44.60285" lon="0.98275">
        <ele>193</ele>
        <time>2012-07-22T06:29:40Z</time>
      </trkpt>
      <trkpt lat="44.60296" lon="0.98274">
        <ele>190</ele>
        <time>2012-07-22T06:29:45Z</time>
      </trkpt>
      <trkpt lat="44.60303" lon="0.98271">
        <ele>188</ele>
        <time>2012-07-22T06:29:50Z</time>
      </trkpt>
      <trkpt lat="44.60313" lon="0.98269">
        <ele>187</ele>
        <time>2012-07-22T06:29:55Z</time>
      </trkpt>
      <trkpt lat="44.60323" lon="0.98273">
        <ele>187</ele>
        <time>2012-07-22T06:30:00Z</time>
      </trkpt>
      <trkpt lat="44.60329" lon="0.9828">
        <ele>186</ele>
        <time>2012-07-22T06:30:05Z</time>
      </trkpt>
      <trkpt lat="44.60337" lon="0.98285">
        <ele>186</ele>
        <time>2012-07-22T06:30:10Z</time>
      </trkpt>
      <trkpt lat="44.60347" lon="0.98291">
        <ele>186</ele>
        <time>2012-07-22T06:30:15Z</time>
      </trkpt>
      <trkpt lat="44.60354" lon="0.98298">
        <ele>186</ele>
        <time>2012-07-22T06:30:20Z</time>
      </trkpt>
      <trkpt lat="44.60362" lon="0.98303">
        <ele>186</ele>
        <time>2012-07-22T06:30:25Z</time>
      </trkpt>
      <trkpt lat="44.6037" lon="0.9831">
        <ele>186</ele>
        <time>2012-07-22T06:30:30Z</time>
      </trkpt>
      <trkpt lat="44.60378" lon="0.98317">
        <ele>186</ele>
        <time>2012-07-22T06:30:35Z</time>
      </trkpt>
      <trkpt lat="44.60386" lon="0.98322">
        <ele>186</ele>
        <time>2012-07-22T06:30:40Z</time>
      </trkpt>
      <trkpt lat="44.60396" lon="0.98329">
        <ele>186</ele>
        <time>2012-07-22T06:30:45Z</time>
      </trkpt>
      <trkpt lat="44.60403" lon="0.98322">
        <ele>186</ele>
        <time>2012-07-22T06:30:50Z</time>
      </trkpt>
      <trkpt lat="44.60404" lon="0.98307">
        <ele>186</ele>
        <time>2012-07-22T06:30:55Z</time>
      </trkpt>
      <trkpt lat="44.60405" lon="0.98291">
        <ele>186</ele>
        <time>2012-07-22T06:31:00Z</time>
      </trkpt>
      <trkpt lat="44.60406" lon="0.98276">
        <ele>186</ele>
        <time>2012-07-22T06:31:05Z</time>
      </trkpt>
      <trkpt lat="44.60408" lon="0.9826">
        <ele>186</ele>
        <time>2012-07-22T06:31:10Z</time>
      </trkpt>
      <trkpt lat="44.60408" lon="0.98244">
        <ele>186</ele>
        <time>2012-07-22T06:31:15Z</time>
      </trkpt>
      <trkpt lat="44.60409" lon="0.98226">
        <ele>186</ele>
        <time>2012-07-22T06:31:20Z</time>
      </trkpt>
      <trkpt lat="44.6041" lon="0.98209">
        <ele>186</ele>
        <time>2012-07-22T06:31:25Z</time>
      </trkpt>
      <trkpt lat="44.60413" lon="0.98193">
        <ele>186</ele>
        <time>2012-07-22T06:31:30Z</time>
      </trkpt>
      <trkpt lat="44.60415" lon="0.98176">
        <ele>187</ele>
        <time>2012-07-22T06:31:35Z</time>
      </trkpt>
      <trkpt lat="44.60417" lon="0.98159">
        <ele>189</ele>
        <time>2012-07-22T06:31:40Z</time>
      </trkpt>
      <trkpt lat="44.60418" lon="0.98148">
        <ele>190</ele>
        <time>2012-07-22T06:31:45Z</time>
      </trkpt>
      <trkpt lat="44.6042" lon="0.98148">
        <ele>191</ele>
        <time>2012-07-22T06:32:03Z</time>
      </trkpt>
      <trkpt lat="44.60423" lon="0.9813">
        <ele>192</ele>
        <time>2012-07-22T06:32:08Z</time>
      </trkpt>
      <trkpt lat="44.60426" lon="0.98106">
        <ele>192</ele>
        <time>2012-07-22T06:32:13Z</time>
      </trkpt>
      <trkpt lat="44.60427" lon="0.9808">
        <ele>193</ele>
        <time>2012-07-22T06:32:18Z</time>
      </trkpt>
      <trkpt lat="44.6043" lon="0.98051">
        <ele>195</ele>
        <time>2012-07-22T06:32:23Z</time>
      </trkpt>
      <trkpt lat="44.60431" lon="0.98002">
        <ele>199</ele>
        <time>2012-07-22T06:32:28Z</time>
      </trkpt>
      <trkpt lat="44.60434" lon="0.9795">
        <ele>203</ele>
        <time>2012-07-22T06:32:33Z</time>
      </trkpt>
      <trkpt lat="44.60435" lon="0.979">
        <ele>203</ele>
        <time>2012-07-22T06:32:38Z</time>
      </trkpt>
      <trkpt lat="44.60434" lon="0.97846">
        <ele>203</ele>
        <time>2012-07-22T06:32:43Z</time>
      </trkpt>
      <trkpt lat="44.60427" lon="0.97808">
        <ele>203</ele>
        <time>2012-07-22T06:32:48Z</time>
      </trkpt>
      <trkpt lat="44.60416" lon="0.97797">
        <ele>203</ele>
        <time>2012-07-22T06:32:53Z</time>
      </trkpt>
      <trkpt lat="44.604" lon="0.97776">
        <ele>203</ele>
        <time>2012-07-22T06:32:58Z</time>
      </trkpt>
      <trkpt lat="44.60377" lon="0.97771">
        <ele>203</ele>
        <time>2012-07-22T06:33:03Z</time>
      </trkpt>
      <trkpt lat="44.60358" lon="0.97785">
        <ele>200</ele>
        <time>2012-07-22T06:33:08Z</time>
      </trkpt>
      <trkpt lat="44.60364" lon="0.97816">
        <ele>197</ele>
        <time>2012-07-22T06:33:13Z</time>
      </trkpt>
      <trkpt lat="44.60355" lon="0.97852">
        <ele>197</ele>
        <time>2012-07-22T06:33:18Z</time>
      </trkpt>
      <trkpt lat="44.60333" lon="0.97883">
        <ele>195</ele>
        <time>2012-07-22T06:33:23Z</time>
      </trkpt>
      <trkpt lat="44.60303" lon="0.97882">
        <ele>190</ele>
        <time>2012-07-22T06:33:28Z</time>
      </trkpt>
      <trkpt lat="44.60272" lon="0.97875">
        <ele>181</ele>
        <time>2012-07-22T06:33:33Z</time>
      </trkpt>
      <trkpt lat="44.60243" lon="0.97882">
        <ele>175</ele>
        <time>2012-07-22T06:33:38Z</time>
      </trkpt>
      <trkpt lat="44.60223" lon="0.97907">
        <ele>167</ele>
        <time>2012-07-22T06:33:43Z</time>
      </trkpt>
      <trkpt lat="44.60211" lon="0.97931">
        <ele>165</ele>
        <time>2012-07-22T06:33:48Z</time>
      </trkpt>
      <trkpt lat="44.60194" lon="0.9795">
        <ele>163</ele>
        <time>2012-07-22T06:33:53Z</time>
      </trkpt>
      <trkpt lat="44.60174" lon="0.97945">
        <ele>157</ele>
        <time>2012-07-22T06:33:59Z</time>
      </trkpt>
      <trkpt lat="44.60176" lon="0.97919">
        <ele>154</ele>
        <time>2012-07-22T06:34:04Z</time>
      </trkpt>
      <trkpt lat="44.60185" lon="0.97882">
        <ele>154</ele>
        <time>2012-07-22T06:34:09Z</time>
      </trkpt>
      <trkpt lat="44.60197" lon="0.97839">
        <ele>153</ele>
        <time>2012-07-22T06:34:14Z</time>
      </trkpt>
      <trkpt lat="44.6022" lon="0.97801">
        <ele>152</ele>
        <time>2012-07-22T06:34:19Z</time>
      </trkpt>
      <trkpt lat="44.60233" lon="0.97751">
        <ele>149</ele>
        <time>2012-07-22T06:34:24Z</time>
      </trkpt>
      <trkpt lat="44.60231" lon="0.97698">
        <ele>146</ele>
        <time>2012-07-22T06:34:29Z</time>
      </trkpt>
      <trkpt lat="44.60229" lon="0.97647">
        <ele>141</ele>
        <time>2012-07-22T06:34:34Z</time>
      </trkpt>
      <trkpt lat="44.60233" lon="0.97597">
        <ele>136</ele>
        <time>2012-07-22T06:34:39Z</time>
      </trkpt>
      <trkpt lat="44.60246" lon="0.97549">
        <ele>131</ele>
        <time>2012-07-22T06:34:44Z</time>
      </trkpt>
      <trkpt lat="44.60266" lon="0.97505">
        <ele>131</ele>
        <time>2012-07-22T06:34:49Z</time>
      </trkpt>
      <trkpt lat="44.60281" lon="0.97476">
        <ele>132</ele>
        <time>2012-07-22T06:34:54Z</time>
      </trkpt>
      <trkpt lat="44.6027" lon="0.97461">
        <ele>133</ele>
        <time>2012-07-22T06:34:59Z</time>
      </trkpt>
      <trkpt lat="44.6025" lon="0.9744">
        <ele>133</ele>
        <time>2012-07-22T06:35:04Z</time>
      </trkpt>
      <trkpt lat="44.60237" lon="0.97423">
        <ele>133</ele>
        <time>2012-07-22T06:35:09Z</time>
      </trkpt>
      <trkpt lat="44.60233" lon="0.97408">
        <ele>133</ele>
        <time>2012-07-22T06:35:14Z</time>
      </trkpt>
      <trkpt lat="44.60225" lon="0.97393">
        <ele>134</ele>
        <time>2012-07-22T06:35:20Z</time>
      </trkpt>
      <trkpt lat="44.6022" lon="0.97383">
        <ele>136</ele>
        <time>2012-07-22T06:35:25Z</time>
      </trkpt>
      <trkpt lat="44.60217" lon="0.97373">
        <ele>139</ele>
        <time>2012-07-22T06:35:30Z</time>
      </trkpt>
      <trkpt lat="44.60215" lon="0.9736">
        <ele>144</ele>
        <time>2012-07-22T06:35:35Z</time>
      </trkpt>
      <trkpt lat="44.60214" lon="0.97347">
        <ele>148</ele>
        <time>2012-07-22T06:35:40Z</time>
      </trkpt>
      <trkpt lat="44.6021" lon="0.97334">
        <ele>148</ele>
        <time>2012-07-22T06:35:45Z</time>
      </trkpt>
      <trkpt lat="44.60199" lon="0.97314">
        <ele>148</ele>
        <time>2012-07-22T06:35:50Z</time>
      </trkpt>
      <trkpt lat="44.60175" lon="0.97293">
        <ele>145</ele>
        <time>2012-07-22T06:35:55Z</time>
      </trkpt>
      <trkpt lat="44.60149" lon="0.97271">
        <ele>140</ele>
        <time>2012-07-22T06:36:00Z</time>
      </trkpt>
      <trkpt lat="44.60123" lon="0.97241">
        <ele>136</ele>
        <time>2012-07-22T06:36:05Z</time>
      </trkpt>
      <trkpt lat="44.60097" lon="0.97207">
        <ele>132</ele>
        <time>2012-07-22T06:36:10Z</time>
      </trkpt>
      <trkpt lat="44.60077" lon="0.97174">
        <ele>128</ele>
        <time>2012-07-22T06:36:16Z</time>
      </trkpt>
      <trkpt lat="44.60059" lon="0.97176">
        <ele>124</ele>
        <time>2012-07-22T06:36:22Z</time>
      </trkpt>
      <trkpt lat="44.60043" lon="0.97197">
        <ele>119</ele>
        <time>2012-07-22T06:36:27Z</time>
      </trkpt>
      <trkpt lat="44.60023" lon="0.97199">
        <ele>114</ele>
        <time>2012-07-22T06:36:32Z</time>
      </trkpt>
      <trkpt lat="44.60002" lon="0.9718">
        <ele>111</ele>
        <time>2012-07-22T06:36:37Z</time>
      </trkpt>
      <trkpt lat="44.59976" lon="0.97162">
        <ele>111</ele>
        <time>2012-07-22T06:36:42Z</time>
      </trkpt>
      <trkpt lat="44.59955" lon="0.9714">
        <ele>113</ele>
        <time>2012-07-22T06:36:47Z</time>
      </trkpt>
      <trkpt lat="44.59944" lon="0.97103">
        <ele>114</ele>
        <time>2012-07-22T06:36:52Z</time>
      </trkpt>
      <trkpt lat="44.5994" lon="0.97072">
        <ele>119</ele>
        <time>2012-07-22T06:36:57Z</time>
      </trkpt>
      <trkpt lat="44.5996" lon="0.97047">
        <ele>123</ele>
        <time>2012-07-22T06:37:03Z</time>
      </trkpt>
      <trkpt lat="44.59983" lon="0.97019">
        <ele>128</ele>
        <time>2012-07-22T06:37:08Z</time>
      </trkpt>
      <trkpt lat="44.60016" lon="0.97006">
        <ele>130</ele>
        <time>2012-07-22T06:37:13Z</time>
      </trkpt>
      <trkpt lat="44.60039" lon="0.97023">
        <ele>130</ele>
        <time>2012-07-22T06:37:19Z</time>
      </trkpt>
      <trkpt lat="44.60057" lon="0.9703">
        <ele>128</ele>
        <time>2012-07-22T06:37:24Z</time>
      </trkpt>
      <trkpt lat="44.60073" lon="0.97036">
        <ele>128</ele>
        <time>2012-07-22T06:37:29Z</time>
      </trkpt>
      <trkpt lat="44.60088" lon="0.9704">
        <ele>128</ele>
        <time>2012-07-22T06:37:34Z</time>
      </trkpt>
      <trkpt lat="44.60104" lon="0.97048">
        <ele>128</ele>
        <time>2012-07-22T06:37:39Z</time>
      </trkpt>
      <trkpt lat="44.60121" lon="0.97056">
        <ele>126</ele>
        <time>2012-07-22T06:37:44Z</time>
      </trkpt>
      <trkpt lat="44.60136" lon="0.97064">
        <ele>125</ele>
        <time>2012-07-22T06:37:49Z</time>
      </trkpt>
      <trkpt lat="44.6015" lon="0.97076">
        <ele>124</ele>
        <time>2012-07-22T06:37:55Z</time>
      </trkpt>
      <trkpt lat="44.6016" lon="0.97089">
        <ele>124</ele>
        <time>2012-07-22T06:38:00Z</time>
      </trkpt>
      <trkpt lat="44.60171" lon="0.97093">
        <ele>124</ele>
        <time>2012-07-22T06:38:05Z</time>
      </trkpt>
      <trkpt lat="44.60177" lon="0.97099">
        <ele>124</ele>
        <time>2012-07-22T06:38:10Z</time>
      </trkpt>
      <trkpt lat="44.6018" lon="0.97106">
        <ele>124</ele>
        <time>2012-07-22T06:38:15Z</time>
      </trkpt>
      <trkpt lat="44.60186" lon="0.97115">
        <ele>126</ele>
        <time>2012-07-22T06:38:20Z</time>
      </trkpt>
      <trkpt lat="44.60197" lon="0.97124">
        <ele>127</ele>
        <time>2012-07-22T06:38:25Z</time>
      </trkpt>
      <trkpt lat="44.60207" lon="0.97126">
        <ele>127</ele>
        <time>2012-07-22T06:38:30Z</time>
      </trkpt>
      <trkpt lat="44.60222" lon="0.97126">
        <ele>127</ele>
        <time>2012-07-22T06:38:35Z</time>
      </trkpt>
      <trkpt lat="44.60236" lon="0.97128">
        <ele>127</ele>
        <time>2012-07-22T06:38:40Z</time>
      </trkpt>
      <trkpt lat="44.60249" lon="0.97137">
        <ele>127</ele>
        <time>2012-07-22T06:38:45Z</time>
      </trkpt>
      <trkpt lat="44.60268" lon="0.97142">
        <ele>127</ele>
        <time>2012-07-22T06:38:50Z</time>
      </trkpt>
      <trkpt lat="44.60285" lon="0.97149">
        <ele>127</ele>
        <time>2012-07-22T06:38:55Z</time>
      </trkpt>
      <trkpt lat="44.60299" lon="0.97158">
        <ele>127</ele>
        <time>2012-07-22T06:39:00Z</time>
      </trkpt>
      <trkpt lat="44.6031" lon="0.97164">
        <ele>127</ele>
        <time>2012-07-22T06:39:05Z</time>
      </trkpt>
      <trkpt lat="44.6032" lon="0.9717">
        <ele>130</ele>
        <time>2012-07-22T06:39:11Z</time>
      </trkpt>
      <trkpt lat="44.60331" lon="0.97161">
        <ele>135</ele>
        <time>2012-07-22T06:39:16Z</time>
      </trkpt>
      <trkpt lat="44.60339" lon="0.97149">
        <ele>139</ele>
        <time>2012-07-22T06:39:22Z</time>
      </trkpt>
      <trkpt lat="44.60339" lon="0.97137">
        <ele>141</ele>
        <time>2012-07-22T06:39:27Z</time>
      </trkpt>
      <trkpt lat="44.60337" lon="0.97124">
        <ele>147</ele>
        <time>2012-07-22T06:39:33Z</time>
      </trkpt>
      <trkpt lat="44.60343" lon="0.97113">
        <ele>153</ele>
        <time>2012-07-22T06:39:38Z</time>
      </trkpt>
      <trkpt lat="44.60348" lon="0.97101">
        <ele>158</ele>
        <time>2012-07-22T06:39:43Z</time>
      </trkpt>
      <trkpt lat="44.60353" lon="0.97089">
        <ele>163</ele>
        <time>2012-07-22T06:39:48Z</time>
      </trkpt>
      <trkpt lat="44.60353" lon="0.97081">
        <ele>168</ele>
        <time>2012-07-22T06:39:53Z</time>
      </trkpt>
      <trkpt lat="44.60357" lon="0.97072">
        <ele>173</ele>
        <time>2012-07-22T06:39:58Z</time>
      </trkpt>
      <trkpt lat="44.60359" lon="0.97063">
        <ele>173</ele>
        <time>2012-07-22T06:40:04Z</time>
      </trkpt>
      <trkpt lat="44.60366" lon="0.97054">
        <ele>173</ele>
        <time>2012-07-22T06:40:09Z</time>
      </trkpt>
      <trkpt lat="44.60376" lon="0.97044">
        <ele>173</ele>
        <time>2012-07-22T06:40:14Z</time>
      </trkpt>
      <trkpt lat="44.60382" lon="0.97035">
        <ele>173</ele>
        <time>2012-07-22T06:40:19Z</time>
      </trkpt>
      <trkpt lat="44.60397" lon="0.97026">
        <ele>173</ele>
        <time>2012-07-22T06:40:24Z</time>
      </trkpt>
      <trkpt lat="44.60405" lon="0.97019">
        <ele>173</ele>
        <time>2012-07-22T06:40:29Z</time>
      </trkpt>
      <trkpt lat="44.60419" lon="0.97012">
        <ele>176</ele>
        <time>2012-07-22T06:40:34Z</time>
      </trkpt>
      <trkpt lat="44.60436" lon="0.97005">
        <ele>177</ele>
        <time>2012-07-22T06:40:39Z</time>
      </trkpt>
      <trkpt lat="44.60456" lon="0.96995">
        <ele>177</ele>
        <time>2012-07-22T06:40:44Z</time>
      </trkpt>
      <trkpt lat="44.60474" lon="0.96988">
        <ele>177</ele>
        <time>2012-07-22T06:40:49Z</time>
      </trkpt>
      <trkpt lat="44.60489" lon="0.9698">
        <ele>176</ele>
        <time>2012-07-22T06:40:54Z</time>
      </trkpt>
      <trkpt lat="44.60504" lon="0.96972">
        <ele>176</ele>
        <time>2012-07-22T06:40:59Z</time>
      </trkpt>
      <trkpt lat="44.60517" lon="0.96969">
        <ele>174</ele>
        <time>2012-07-22T06:41:04Z</time>
      </trkpt>
      <trkpt lat="44.60528" lon="0.96965">
        <ele>172</ele>
        <time>2012-07-22T06:41:09Z</time>
      </trkpt>
      <trkpt lat="44.60539" lon="0.96954">
        <ele>172</ele>
        <time>2012-07-22T06:41:15Z</time>
      </trkpt>
      <trkpt lat="44.60549" lon="0.96944">
        <ele>172</ele>
        <time>2012-07-22T06:41:20Z</time>
      </trkpt>
      <trkpt lat="44.60556" lon="0.96931">
        <ele>172</ele>
        <time>2012-07-22T06:41:25Z</time>
      </trkpt>
      <trkpt lat="44.60565" lon="0.96918">
        <ele>172</ele>
        <time>2012-07-22T06:41:30Z</time>
      </trkpt>
      <trkpt lat="44.60575" lon="0.96905">
        <ele>172</ele>
        <time>2012-07-22T06:41:35Z</time>
      </trkpt>
      <trkpt lat="44.60584" lon="0.96891">
        <ele>175</ele>
        <time>2012-07-22T06:41:40Z</time>
      </trkpt>
      <trkpt lat="44.60597" lon="0.96877">
        <ele>177</ele>
        <time>2012-07-22T06:41:45Z</time>
      </trkpt>
      <trkpt lat="44.60611" lon="0.96869">
        <ele>179</ele>
        <time>2012-07-22T06:41:50Z</time>
      </trkpt>
      <trkpt lat="44.60622" lon="0.96856">
        <ele>183</ele>
        <time>2012-07-22T06:41:55Z</time>
      </trkpt>
      <trkpt lat="44.6063" lon="0.96845">
        <ele>188</ele>
        <time>2012-07-22T06:42:00Z</time>
      </trkpt>
      <trkpt lat="44.60638" lon="0.96833">
        <ele>192</ele>
        <time>2012-07-22T06:42:05Z</time>
      </trkpt>
      <trkpt lat="44.60645" lon="0.96817">
        <ele>193</ele>
        <time>2012-07-22T06:42:11Z</time>
      </trkpt>
      <trkpt lat="44.60649" lon="0.96798">
        <ele>197</ele>
        <time>2012-07-22T06:42:16Z</time>
      </trkpt>
      <trkpt lat="44.60641" lon="0.96787">
        <ele>198</ele>
        <time>2012-07-22T06:42:21Z</time>
      </trkpt>
      <trkpt lat="44.60633" lon="0.96772">
        <ele>198</ele>
        <time>2012-07-22T06:42:26Z</time>
      </trkpt>
      <trkpt lat="44.60625" lon="0.96756">
        <ele>198</ele>
        <time>2012-07-22T06:42:31Z</time>
      </trkpt>
      <trkpt lat="44.60619" lon="0.96739">
        <ele>201</ele>
        <time>2012-07-22T06:42:36Z</time>
      </trkpt>
      <trkpt lat="44.60616" lon="0.96722">
        <ele>205</ele>
        <time>2012-07-22T06:42:41Z</time>
      </trkpt>
      <trkpt lat="44.60614" lon="0.96709">
        <ele>208</ele>
        <time>2012-07-22T06:42:46Z</time>
      </trkpt>
      <trkpt lat="44.60615" lon="0.96692">
        <ele>210</ele>
        <time>2012-07-22T06:42:51Z</time>
      </trkpt>
      <trkpt lat="44.60615" lon="0.96672">
        <ele>212</ele>
        <time>2012-07-22T06:42:56Z</time>
      </trkpt>
      <trkpt lat="44.60621" lon="0.96639">
        <ele>215</ele>
        <time>2012-07-22T06:43:01Z</time>
      </trkpt>
      <trkpt lat="44.60626" lon="0.96601">
        <ele>218</ele>
        <time>2012-07-22T06:43:07Z</time>
      </trkpt>
      <trkpt lat="44.60622" lon="0.96562">
        <ele>219</ele>
        <time>2012-07-22T06:43:13Z</time>
      </trkpt>
      <trkpt lat="44.60621" lon="0.96529">
        <ele>219</ele>
        <time>2012-07-22T06:43:19Z</time>
      </trkpt>
      <trkpt lat="44.60625" lon="0.96501">
        <ele>219</ele>
        <time>2012-07-22T06:43:24Z</time>
      </trkpt>
      <trkpt lat="44.6063" lon="0.96478">
        <ele>217</ele>
        <time>2012-07-22T06:43:29Z</time>
      </trkpt>
      <trkpt lat="44.60631" lon="0.96453">
        <ele>212</ele>
        <time>2012-07-22T06:43:34Z</time>
      </trkpt>
      <trkpt lat="44.60629" lon="0.96431">
        <ele>211</ele>
        <time>2012-07-22T06:43:39Z</time>
      </trkpt>
      <trkpt lat="44.60625" lon="0.96408">
        <ele>211</ele>
        <time>2012-07-22T06:43:44Z</time>
      </trkpt>
      <trkpt lat="44.6062" lon="0.96386">
        <ele>211</ele>
        <time>2012-07-22T06:43:49Z</time>
      </trkpt>
      <trkpt lat="44.60624" lon="0.96365">
        <ele>211</ele>
        <time>2012-07-22T06:43:54Z</time>
      </trkpt>
      <trkpt lat="44.6063" lon="0.96347">
        <ele>210</ele>
        <time>2012-07-22T06:43:59Z</time>
      </trkpt>
      <trkpt lat="44.60635" lon="0.96331">
        <ele>208</ele>
        <time>2012-07-22T06:44:04Z</time>
      </trkpt>
      <trkpt lat="44.6064" lon="0.96316">
        <ele>208</ele>
        <time>2012-07-22T06:44:09Z</time>
      </trkpt>
      <trkpt lat="44.60645" lon="0.963">
        <ele>208</ele>
        <time>2012-07-22T06:44:14Z</time>
      </trkpt>
      <trkpt lat="44.60648" lon="0.96284">
        <ele>208</ele>
        <time>2012-07-22T06:44:19Z</time>
      </trkpt>
      <trkpt lat="44.60655" lon="0.96269">
        <ele>208</ele>
        <time>2012-07-22T06:44:24Z</time>
      </trkpt>
      <trkpt lat="44.60664" lon="0.9625">
        <ele>212</ele>
        <time>2012-07-22T06:44:29Z</time>
      </trkpt>
      <trkpt lat="44.60675" lon="0.96231">
        <ele>212</ele>
        <time>2012-07-22T06:44:34Z</time>
      </trkpt>
      <trkpt lat="44.60686" lon="0.96212">
        <ele>212</ele>
        <time>2012-07-22T06:44:39Z</time>
      </trkpt>
      <trkpt lat="44.60696" lon="0.96194">
        <ele>212</ele>
        <time>2012-07-22T06:44:44Z</time>
      </trkpt>
      <trkpt lat="44.607" lon="0.96184">
        <ele>212</ele>
        <time>2012-07-22T06:44:50Z</time>
      </trkpt>
      <trkpt lat="44.60701" lon="0.96182">
        <ele>212</ele>
        <time>2012-07-22T06:44:58Z</time>
      </trkpt>
      <trkpt lat="44.60703" lon="0.96183">
        <ele>218</ele>
        <time>2012-07-22T06:45:49Z</time>
      </trkpt>
      <trkpt lat="44.60703" lon="0.96185">
        <ele>218</ele>
        <time>2012-07-22T06:46:26Z</time>
      </trkpt>
      <trkpt lat="44.60704" lon="0.96184">
        <ele>219</ele>
        <time>2012-07-22T06:47:01Z</time>
      </trkpt>
      <trkpt lat="44.60704" lon="0.96183">
        <ele>219</ele>
        <time>2012-07-22T06:47:17Z</time>
      </trkpt>
      <trkpt lat="44.60705" lon="0.96184">
        <ele>219</ele>
        <time>2012-07-22T06:47:39Z</time>
      </trkpt>
      <trkpt lat="44.60705" lon="0.96186">
        <ele>218</ele>
        <time>2012-07-22T06:48:05Z</time>
      </trkpt>
      <trkpt lat="44.60705" lon="0.96184">
        <ele>218</ele>
        <time>2012-07-22T06:48:39Z</time>
      </trkpt>
      <trkpt lat="44.60704" lon="0.96183">
        <ele>218</ele>
        <time>2012-07-22T06:49:24Z</time>
      </trkpt>
      <trkpt lat="44.60703" lon="0.96182">
        <ele>220</ele>
        <time>2012-07-22T06:49:36Z</time>
      </trkpt>
      <trkpt lat="44.60702" lon="0.9618">
        <ele>220</ele>
        <time>2012-07-22T06:49:51Z</time>
      </trkpt>
      <trkpt lat="44.607" lon="0.96184">
        <ele>220</ele>
        <time>2012-07-22T06:50:17Z</time>
      </trkpt>
      <trkpt lat="44.60701" lon="0.96182">
        <ele>220</ele>
        <time>2012-07-22T06:50:22Z</time>
      </trkpt>
      <trkpt lat="44.60698" lon="0.9618">
        <ele>217</ele>
        <time>2012-07-22T06:50:29Z</time>
      </trkpt>
      <trkpt lat="44.60701" lon="0.96178">
        <ele>215</ele>
        <time>2012-07-22T06:50:34Z</time>
      </trkpt>
      <trkpt lat="44.60699" lon="0.96179">
        <ele>215</ele>
        <time>2012-07-22T06:51:05Z</time>
      </trkpt>
      <trkpt lat="44.60698" lon="0.96176">
        <ele>216</ele>
        <time>2012-07-22T06:51:15Z</time>
      </trkpt>
      <trkpt lat="44.60697" lon="0.96176">
        <ele>216</ele>
        <time>2012-07-22T06:51:20Z</time>
      </trkpt>
      <trkpt lat="44.60699" lon="0.96176">
        <ele>216</ele>
        <time>2012-07-22T06:51:27Z</time>
      </trkpt>
      <trkpt lat="44.60702" lon="0.96176">
        <ele>216</ele>
        <time>2012-07-22T06:51:32Z</time>
      </trkpt>
      <trkpt lat="44.60704" lon="0.96176">
        <ele>211</ele>
        <time>2012-07-22T06:51:45Z</time>
      </trkpt>
      <trkpt lat="44.60703" lon="0.96177">
        <ele>210</ele>
        <time>2012-07-22T06:51:52Z</time>
      </trkpt>
      <trkpt lat="44.60702" lon="0.96176">
        <ele>210</ele>
        <time>2012-07-22T06:52:00Z</time>
      </trkpt>
      <trkpt lat="44.607" lon="0.96176">
        <ele>210</ele>
        <time>2012-07-22T06:52:11Z</time>
      </trkpt>
      <trkpt lat="44.60698" lon="0.96176">
        <ele>208</ele>
        <time>2012-07-22T06:52:25Z</time>
      </trkpt>
      <trkpt lat="44.60703" lon="0.96172">
        <ele>208</ele>
        <time>2012-07-22T06:52:31Z</time>
      </trkpt>
      <trkpt lat="44.60705" lon="0.96171">
        <ele>208</ele>
        <time>2012-07-22T06:52:38Z</time>
      </trkpt>
      <trkpt lat="44.60705" lon="0.96173">
        <ele>208</ele>
        <time>2012-07-22T06:52:44Z</time>
      </trkpt>
      <trkpt lat="44.60704" lon="0.96175">
        <ele>208</ele>
        <time>2012-07-22T06:52:50Z</time>
      </trkpt>
      <trkpt lat="44.60702" lon="0.96178">
        <ele>208</ele>
        <time>2012-07-22T06:52:56Z</time>
      </trkpt>
      <trkpt lat="44.60704" lon="0.96179">
        <ele>208</ele>
        <time>2012-07-22T06:53:02Z</time>
      </trkpt>
      <trkpt lat="44.60703" lon="0.96178">
        <ele>208</ele>
        <time>2012-07-22T06:53:09Z</time>
      </trkpt>
      <trkpt lat="44.60702" lon="0.96178">
        <ele>208</ele>
        <time>2012-07-22T06:53:15Z</time>
      </trkpt>
      <trkpt lat="44.60702" lon="0.96176">
        <ele>208</ele>
        <time>2012-07-22T06:53:25Z</time>
      </trkpt>
      <trkpt lat="44.60701" lon="0.96178">
        <ele>209</ele>
        <time>2012-07-22T06:53:34Z</time>
      </trkpt>
      <trkpt lat="44.60704" lon="0.96174">
        <ele>210</ele>
        <time>2012-07-22T06:53:39Z</time>
      </trkpt>
      <trkpt lat="44.60717" lon="0.96163">
        <ele>211</ele>
        <time>2012-07-22T06:53:44Z</time>
      </trkpt>
      <trkpt lat="44.60732" lon="0.96147">
        <ele>211</ele>
        <time>2012-07-22T06:53:49Z</time>
      </trkpt>
      <trkpt lat="44.6075" lon="0.9613">
        <ele>211</ele>
        <time>2012-07-22T06:53:54Z</time>
      </trkpt>
      <trkpt lat="44.60769" lon="0.96118">
        <ele>210</ele>
        <time>2012-07-22T06:53:59Z</time>
      </trkpt>
      <trkpt lat="44.60789" lon="0.9611">
        <ele>210</ele>
        <time>2012-07-22T06:54:04Z</time>
      </trkpt>
      <trkpt lat="44.60809" lon="0.96098">
        <ele>210</ele>
        <time>2012-07-22T06:54:09Z</time>
      </trkpt>
      <trkpt lat="44.6083" lon="0.96085">
        <ele>210</ele>
        <time>2012-07-22T06:54:14Z</time>
      </trkpt>
      <trkpt lat="44.6085" lon="0.96073">
        <ele>210</ele>
        <time>2012-07-22T06:54:19Z</time>
      </trkpt>
      <trkpt lat="44.6087" lon="0.96059">
        <ele>210</ele>
        <time>2012-07-22T06:54:24Z</time>
      </trkpt>
      <trkpt lat="44.6089" lon="0.96041">
        <ele>212</ele>
        <time>2012-07-22T06:54:29Z</time>
      </trkpt>
      <trkpt lat="44.60907" lon="0.96027">
        <ele>213</ele>
        <time>2012-07-22T06:54:34Z</time>
      </trkpt>
      <trkpt lat="44.60924" lon="0.96009">
        <ele>215</ele>
        <time>2012-07-22T06:54:39Z</time>
      </trkpt>
      <trkpt lat="44.60939" lon="0.95992">
        <ele>215</ele>
        <time>2012-07-22T06:54:44Z</time>
      </trkpt>
      <trkpt lat="44.60954" lon="0.95975">
        <ele>215</ele>
        <time>2012-07-22T06:54:49Z</time>
      </trkpt>
      <trkpt lat="44.60968" lon="0.95955">
        <ele>215</ele>
        <time>2012-07-22T06:54:54Z</time>
      </trkpt>
      <trkpt lat="44.60981" lon="0.95934">
        <ele>215</ele>
        <time>2012-07-22T06:54:59Z</time>
      </trkpt>
      <trkpt lat="44.60988" lon="0.95906">
        <ele>215</ele>
        <time>2012-07-22T06:55:04Z</time>
      </trkpt>
      <trkpt lat="44.60998" lon="0.95879">
        <ele>219</ele>
        <time>2012-07-22T06:55:09Z</time>
      </trkpt>
      <trkpt lat="44.61003" lon="0.9585">
        <ele>222</ele>
        <time>2012-07-22T06:55:14Z</time>
      </trkpt>
      <trkpt lat="44.6101" lon="0.95819">
        <ele>226</ele>
        <time>2012-07-22T06:55:19Z</time>
      </trkpt>
      <trkpt lat="44.61015" lon="0.95793">
        <ele>231</ele>
        <time>2012-07-22T06:55:24Z</time>
      </trkpt>
      <trkpt lat="44.61018" lon="0.95767">
        <ele>236</ele>
        <time>2012-07-22T06:55:29Z</time>
      </trkpt>
      <trkpt lat="44.61025" lon="0.95744">
        <ele>240</ele>
        <time>2012-07-22T06:55:34Z</time>
      </trkpt>
      <trkpt lat="44.61034" lon="0.95721">
        <ele>239</ele>
        <time>2012-07-22T06:55:39Z</time>
      </trkpt>
      <trkpt lat="44.61044" lon="0.95697">
        <ele>234</ele>
        <time>2012-07-22T06:55:44Z</time>
      </trkpt>
      <trkpt lat="44.61053" lon="0.95671">
        <ele>232</ele>
        <time>2012-07-22T06:55:49Z</time>
      </trkpt>
      <trkpt lat="44.61064" lon="0.95644">
        <ele>232</ele>
        <time>2012-07-22T06:55:54Z</time>
      </trkpt>
      <trkpt lat="44.61075" lon="0.95613">
        <ele>231</ele>
        <time>2012-07-22T06:55:59Z</time>
      </trkpt>
      <trkpt lat="44.61089" lon="0.95585">
        <ele>231</ele>
        <time>2012-07-22T06:56:04Z</time>
      </trkpt>
      <trkpt lat="44.61104" lon="0.95554">
        <ele>231</ele>
        <time>2012-07-22T06:56:09Z</time>
      </trkpt>
      <trkpt lat="44.61115" lon="0.95519">
        <ele>230</ele>
        <time>2012-07-22T06:56:14Z</time>
      </trkpt>
      <trkpt lat="44.61134" lon="0.95487">
        <ele>229</ele>
        <time>2012-07-22T06:56:19Z</time>
      </trkpt>
      <trkpt lat="44.61158" lon="0.95467">
        <ele>229</ele>
        <time>2012-07-22T06:56:24Z</time>
      </trkpt>
      <trkpt lat="44.61181" lon="0.95453">
        <ele>228</ele>
        <time>2012-07-22T06:56:29Z</time>
      </trkpt>
      <trkpt lat="44.61205" lon="0.95437">
        <ele>228</ele>
        <time>2012-07-22T06:56:34Z</time>
      </trkpt>
      <trkpt lat="44.61224" lon="0.9542">
        <ele>231</ele>
        <time>2012-07-22T06:56:39Z</time>
      </trkpt>
      <trkpt lat="44.61245" lon="0.95404">
        <ele>232</ele>
        <time>2012-07-22T06:56:44Z</time>
      </trkpt>
      <trkpt lat="44.61267" lon="0.9539">
        <ele>234</ele>
        <time>2012-07-22T06:56:49Z</time>
      </trkpt>
      <trkpt lat="44.61288" lon="0.95376">
        <ele>234</ele>
        <time>2012-07-22T06:56:54Z</time>
      </trkpt>
      <trkpt lat="44.61313" lon="0.95361">
        <ele>236</ele>
        <time>2012-07-22T06:56:59Z</time>
      </trkpt>
      <trkpt lat="44.61334" lon="0.95347">
        <ele>237</ele>
        <time>2012-07-22T06:57:04Z</time>
      </trkpt>
      <trkpt lat="44.61355" lon="0.95333">
        <ele>238</ele>
        <time>2012-07-22T06:57:09Z</time>
      </trkpt>
      <trkpt lat="44.6138" lon="0.9532">
        <ele>241</ele>
        <time>2012-07-22T06:57:14Z</time>
      </trkpt>
      <trkpt lat="44.61401" lon="0.95303">
        <ele>243</ele>
        <time>2012-07-22T06:57:19Z</time>
      </trkpt>
      <trkpt lat="44.61423" lon="0.95284">
        <ele>243</ele>
        <time>2012-07-22T06:57:24Z</time>
      </trkpt>
      <trkpt lat="44.61443" lon="0.95268">
        <ele>243</ele>
        <time>2012-07-22T06:57:29Z</time>
      </trkpt>
      <trkpt lat="44.61458" lon="0.95256">
        <ele>243</ele>
        <time>2012-07-22T06:57:34Z</time>
      </trkpt>
      <trkpt lat="44.61473" lon="0.95245">
        <ele>243</ele>
        <time>2012-07-22T06:57:39Z</time>
      </trkpt>
      <trkpt lat="44.61487" lon="0.95232">
        <ele>243</ele>
        <time>2012-07-22T06:57:44Z</time>
      </trkpt>
      <trkpt lat="44.61498" lon="0.9522">
        <ele>243</ele>
        <time>2012-07-22T06:57:49Z</time>
      </trkpt>
      <trkpt lat="44.61512" lon="0.95208">
        <ele>243</ele>
        <time>2012-07-22T06:57:54Z</time>
      </trkpt>
      <trkpt lat="44.61528" lon="0.952">
        <ele>243</ele>
        <time>2012-07-22T06:57:59Z</time>
      </trkpt>
      <trkpt lat="44.61549" lon="0.95191">
        <ele>243</ele>
        <time>2012-07-22T06:58:04Z</time>
      </trkpt>
      <trkpt lat="44.61573" lon="0.95186">
        <ele>243</ele>
        <time>2012-07-22T06:58:09Z</time>
      </trkpt>
      <trkpt lat="44.6159" lon="0.95184">
        <ele>241</ele>
        <time>2012-07-22T06:58:14Z</time>
      </trkpt>
      <trkpt lat="44.61616" lon="0.95185">
        <ele>239</ele>
        <time>2012-07-22T06:58:19Z</time>
      </trkpt>
      <trkpt lat="44.61643" lon="0.95188">
        <ele>239</ele>
        <time>2012-07-22T06:58:24Z</time>
      </trkpt>
      <trkpt lat="44.61671" lon="0.95185">
        <ele>242</ele>
        <time>2012-07-22T06:58:29Z</time>
      </trkpt>
      <trkpt lat="44.617" lon="0.95186">
        <ele>242</ele>
        <time>2012-07-22T06:58:34Z</time>
      </trkpt>
      <trkpt lat="44.61727" lon="0.95192">
        <ele>242</ele>
        <time>2012-07-22T06:58:39Z</time>
      </trkpt>
      <trkpt lat="44.61751" lon="0.95201">
        <ele>242</ele>
        <time>2012-07-22T06:58:44Z</time>
      </trkpt>
      <trkpt lat="44.61768" lon="0.95217">
        <ele>242</ele>
        <time>2012-07-22T06:58:49Z</time>
      </trkpt>
      <trkpt lat="44.61782" lon="0.95251">
        <ele>242</ele>
        <time>2012-07-22T06:58:54Z</time>
      </trkpt>
      <trkpt lat="44.61805" lon="0.95275">
        <ele>241</ele>
        <time>2012-07-22T06:58:59Z</time>
      </trkpt>
      <trkpt lat="44.61839" lon="0.95295">
        <ele>237</ele>
        <time>2012-07-22T06:59:04Z</time>
      </trkpt>
      <trkpt lat="44.61848" lon="0.95349">
        <ele>233</ele>
        <time>2012-07-22T06:59:09Z</time>
      </trkpt>
      <trkpt lat="44.61819" lon="0.95402">
        <ele>228</ele>
        <time>2012-07-22T06:59:14Z</time>
      </trkpt>
      <trkpt lat="44.61804" lon="0.95461">
        <ele>223</ele>
        <time>2012-07-22T06:59:19Z</time>
      </trkpt>
      <trkpt lat="44.61825" lon="0.95515">
        <ele>217</ele>
        <time>2012-07-22T06:59:24Z</time>
      </trkpt>
      <trkpt lat="44.61873" lon="0.9555">
        <ele>212</ele>
        <time>2012-07-22T06:59:29Z</time>
      </trkpt>
      <trkpt lat="44.61895" lon="0.95612">
        <ele>210</ele>
        <time>2012-07-22T06:59:34Z</time>
      </trkpt>
      <trkpt lat="44.61864" lon="0.95644">
        <ele>209</ele>
        <time>2012-07-22T06:59:39Z</time>
      </trkpt>
      <trkpt lat="44.61816" lon="0.95621">
        <ele>208</ele>
        <time>2012-07-22T06:59:44Z</time>
      </trkpt>
      <trkpt lat="44.61769" lon="0.9559">
        <ele>203</ele>
        <time>2012-07-22T06:59:49Z</time>
      </trkpt>
      <trkpt lat="44.61736" lon="0.95549">
        <ele>198</ele>
        <time>2012-07-22T06:59:54Z</time>
      </trkpt>
      <trkpt lat="44.61705" lon="0.95584">
        <ele>193</ele>
        <time>2012-07-22T06:59:59Z</time>
      </trkpt>
      <trkpt lat="44.61672" lon="0.95644">
        <ele>185</ele>
        <time>2012-07-22T07:00:04Z</time>
      </trkpt>
      <trkpt lat="44.6163" lon="0.9566">
        <ele>179</ele>
        <time>2012-07-22T07:00:09Z</time>
      </trkpt>
      <trkpt lat="44.61599" lon="0.95685">
        <ele>174</ele>
        <time>2012-07-22T07:00:14Z</time>
      </trkpt>
      <trkpt lat="44.61582" lon="0.95757">
        <ele>169</ele>
        <time>2012-07-22T07:00:19Z</time>
      </trkpt>
      <trkpt lat="44.61589" lon="0.95817">
        <ele>164</ele>
        <time>2012-07-22T07:00:24Z</time>
      </trkpt>
      <trkpt lat="44.6164" lon="0.95837">
        <ele>159</ele>
        <time>2012-07-22T07:00:29Z</time>
      </trkpt>
      <trkpt lat="44.61689" lon="0.95866">
        <ele>158</ele>
        <time>2012-07-22T07:00:34Z</time>
      </trkpt>
      <trkpt lat="44.61744" lon="0.95907">
        <ele>158</ele>
        <time>2012-07-22T07:00:39Z</time>
      </trkpt>
      <trkpt lat="44.61797" lon="0.95929">
        <ele>158</ele>
        <time>2012-07-22T07:00:44Z</time>
      </trkpt>
      <trkpt lat="44.61838" lon="0.95948">
        <ele>158</ele>
        <time>2012-07-22T07:00:49Z</time>
      </trkpt>
      <trkpt lat="44.61853" lon="0.95995">
        <ele>158</ele>
        <time>2012-07-22T07:00:54Z</time>
      </trkpt>
      <trkpt lat="44.61852" lon="0.96037">
        <ele>156</ele>
        <time>2012-07-22T07:00:59Z</time>
      </trkpt>
      <trkpt lat="44.6186" lon="0.96064">
        <ele>156</ele>
        <time>2012-07-22T07:01:04Z</time>
      </trkpt>
      <trkpt lat="44.61878" lon="0.96084">
        <ele>156</ele>
        <time>2012-07-22T07:01:09Z</time>
      </trkpt>
      <trkpt lat="44.61898" lon="0.96098">
        <ele>158</ele>
        <time>2012-07-22T07:01:14Z</time>
      </trkpt>
      <trkpt lat="44.61917" lon="0.96114">
        <ele>161</ele>
        <time>2012-07-22T07:01:19Z</time>
      </trkpt>
      <trkpt lat="44.61921" lon="0.96136">
        <ele>166</ele>
        <time>2012-07-22T07:01:24Z</time>
      </trkpt>
      <trkpt lat="44.61919" lon="0.96153">
        <ele>168</ele>
        <time>2012-07-22T07:01:29Z</time>
      </trkpt>
      <trkpt lat="44.61918" lon="0.96166">
        <ele>169</ele>
        <time>2012-07-22T07:01:34Z</time>
      </trkpt>
      <trkpt lat="44.61915" lon="0.9618">
        <ele>171</ele>
        <time>2012-07-22T07:01:39Z</time>
      </trkpt>
      <trkpt lat="44.61914" lon="0.96194">
        <ele>173</ele>
        <time>2012-07-22T07:01:44Z</time>
      </trkpt>
      <trkpt lat="44.61915" lon="0.96205">
        <ele>176</ele>
        <time>2012-07-22T07:01:49Z</time>
      </trkpt>
      <trkpt lat="44.61912" lon="0.96218">
        <ele>179</ele>
        <time>2012-07-22T07:01:54Z</time>
      </trkpt>
      <trkpt lat="44.61911" lon="0.96231">
        <ele>184</ele>
        <time>2012-07-22T07:01:59Z</time>
      </trkpt>
      <trkpt lat="44.6191" lon="0.96244">
        <ele>188</ele>
        <time>2012-07-22T07:02:04Z</time>
      </trkpt>
      <trkpt lat="44.6191" lon="0.96257">
        <ele>188</ele>
        <time>2012-07-22T07:02:09Z</time>
      </trkpt>
      <trkpt lat="44.61909" lon="0.96271">
        <ele>188</ele>
        <time>2012-07-22T07:02:14Z</time>
      </trkpt>
      <trkpt lat="44.61907" lon="0.96283">
        <ele>188</ele>
        <time>2012-07-22T07:02:19Z</time>
      </trkpt>
      <trkpt lat="44.61908" lon="0.96297">
        <ele>190</ele>
        <time>2012-07-22T07:02:24Z</time>
      </trkpt>
      <trkpt lat="44.61909" lon="0.9631">
        <ele>191</ele>
        <time>2012-07-22T07:02:29Z</time>
      </trkpt>
      <trkpt lat="44.6191" lon="0.96324">
        <ele>191</ele>
        <time>2012-07-22T07:02:34Z</time>
      </trkpt>
      <trkpt lat="44.61913" lon="0.96339">
        <ele>191</ele>
        <time>2012-07-22T07:02:39Z</time>
      </trkpt>
      <trkpt lat="44.61914" lon="0.96353">
        <ele>188</ele>
        <time>2012-07-22T07:02:44Z</time>
      </trkpt>
      <trkpt lat="44.61914" lon="0.96365">
        <ele>186</ele>
        <time>2012-07-22T07:02:49Z</time>
      </trkpt>
      <trkpt lat="44.61911" lon="0.96378">
        <ele>186</ele>
        <time>2012-07-22T07:02:54Z</time>
      </trkpt>
      <trkpt lat="44.6191" lon="0.96393">
        <ele>185</ele>
        <time>2012-07-22T07:02:59Z</time>
      </trkpt>
      <trkpt lat="44.61908" lon="0.96404">
        <ele>184</ele>
        <time>2012-07-22T07:03:04Z</time>
      </trkpt>
      <trkpt lat="44.6191" lon="0.96419">
        <ele>184</ele>
        <time>2012-07-22T07:03:09Z</time>
      </trkpt>
      <trkpt lat="44.61913" lon="0.96434">
        <ele>180</ele>
        <time>2012-07-22T07:03:14Z</time>
      </trkpt>
      <trkpt lat="44.61912" lon="0.96447">
        <ele>180</ele>
        <time>2012-07-22T07:03:19Z</time>
      </trkpt>
      <trkpt lat="44.61913" lon="0.96463">
        <ele>180</ele>
        <time>2012-07-22T07:03:24Z</time>
      </trkpt>
      <trkpt lat="44.61912" lon="0.96476">
        <ele>180</ele>
        <time>2012-07-22T07:03:29Z</time>
      </trkpt>
      <trkpt lat="44.6191" lon="0.96489">
        <ele>180</ele>
        <time>2012-07-22T07:03:34Z</time>
      </trkpt>
      <trkpt lat="44.61909" lon="0.96502">
        <ele>180</ele>
        <time>2012-07-22T07:03:39Z</time>
      </trkpt>
      <trkpt lat="44.61907" lon="0.96515">
        <ele>180</ele>
        <time>2012-07-22T07:03:44Z</time>
      </trkpt>
      <trkpt lat="44.61905" lon="0.96529">
        <ele>181</ele>
        <time>2012-07-22T07:03:50Z</time>
      </trkpt>
      <trkpt lat="44.61905" lon="0.96541">
        <ele>183</ele>
        <time>2012-07-22T07:03:55Z</time>
      </trkpt>
      <trkpt lat="44.61903" lon="0.96552">
        <ele>186</ele>
        <time>2012-07-22T07:04:00Z</time>
      </trkpt>
      <trkpt lat="44.61901" lon="0.96565">
        <ele>188</ele>
        <time>2012-07-22T07:04:05Z</time>
      </trkpt>
      <trkpt lat="44.61898" lon="0.96578">
        <ele>191</ele>
        <time>2012-07-22T07:04:10Z</time>
      </trkpt>
      <trkpt lat="44.61894" lon="0.96586">
        <ele>195</ele>
        <time>2012-07-22T07:04:15Z</time>
      </trkpt>
      <trkpt lat="44.61893" lon="0.96598">
        <ele>200</ele>
        <time>2012-07-22T07:04:20Z</time>
      </trkpt>
      <trkpt lat="44.61898" lon="0.96607">
        <ele>205</ele>
        <time>2012-07-22T07:04:25Z</time>
      </trkpt>
      <trkpt lat="44.61906" lon="0.96618">
        <ele>209</ele>
        <time>2012-07-22T07:04:30Z</time>
      </trkpt>
      <trkpt lat="44.61914" lon="0.96629">
        <ele>210</ele>
        <time>2012-07-22T07:04:35Z</time>
      </trkpt>
      <trkpt lat="44.6192" lon="0.9664">
        <ele>211</ele>
        <time>2012-07-22T07:04:40Z</time>
      </trkpt>
      <trkpt lat="44.61921" lon="0.96653">
        <ele>214</ele>
        <time>2012-07-22T07:04:45Z</time>
      </trkpt>
      <trkpt lat="44.61919" lon="0.96665">
        <ele>214</ele>
        <time>2012-07-22T07:04:50Z</time>
      </trkpt>
      <trkpt lat="44.61914" lon="0.96679">
        <ele>214</ele>
        <time>2012-07-22T07:04:55Z</time>
      </trkpt>
      <trkpt lat="44.61904" lon="0.96683">
        <ele>214</ele>
        <time>2012-07-22T07:05:00Z</time>
      </trkpt>
      <trkpt lat="44.61893" lon="0.96679">
        <ele>214</ele>
        <time>2012-07-22T07:05:05Z</time>
      </trkpt>
      <trkpt lat="44.61885" lon="0.9668">
        <ele>214</ele>
        <time>2012-07-22T07:05:10Z</time>
      </trkpt>
      <trkpt lat="44.61879" lon="0.96689">
        <ele>214</ele>
        <time>2012-07-22T07:05:15Z</time>
      </trkpt>
      <trkpt lat="44.61877" lon="0.967">
        <ele>214</ele>
        <time>2012-07-22T07:05:20Z</time>
      </trkpt>
      <trkpt lat="44.61876" lon="0.96712">
        <ele>216</ele>
        <time>2012-07-22T07:05:25Z</time>
      </trkpt>
      <trkpt lat="44.61873" lon="0.96723">
        <ele>221</ele>
        <time>2012-07-22T07:05:30Z</time>
      </trkpt>
      <trkpt lat="44.61869" lon="0.96733">
        <ele>226</ele>
        <time>2012-07-22T07:05:35Z</time>
      </trkpt>
      <trkpt lat="44.61864" lon="0.96749">
        <ele>230</ele>
        <time>2012-07-22T07:05:40Z</time>
      </trkpt>
      <trkpt lat="44.61859" lon="0.96762">
        <ele>231</ele>
        <time>2012-07-22T07:05:45Z</time>
      </trkpt>
      <trkpt lat="44.61856" lon="0.96772">
        <ele>231</ele>
        <time>2012-07-22T07:05:50Z</time>
      </trkpt>
      <trkpt lat="44.61852" lon="0.96779">
        <ele>231</ele>
        <time>2012-07-22T07:05:55Z</time>
      </trkpt>
      <trkpt lat="44.6185" lon="0.96787">
        <ele>231</ele>
        <time>2012-07-22T07:06:00Z</time>
      </trkpt>
      <trkpt lat="44.61848" lon="0.96789">
        <ele>230</ele>
        <time>2012-07-22T07:06:10Z</time>
      </trkpt>
      <trkpt lat="44.61847" lon="0.96791">
        <ele>229</ele>
        <time>2012-07-22T07:06:18Z</time>
      </trkpt>
      <trkpt lat="44.61845" lon="0.96793">
        <ele>229</ele>
        <time>2012-07-22T07:06:29Z</time>
      </trkpt>
      <trkpt lat="44.61844" lon="0.96795">
        <ele>229</ele>
        <time>2012-07-22T07:06:34Z</time>
      </trkpt>
      <trkpt lat="44.61847" lon="0.96801">
        <ele>229</ele>
        <time>2012-07-22T07:06:40Z</time>
      </trkpt>
      <trkpt lat="44.61846" lon="0.96801">
        <ele>229</ele>
        <time>2012-07-22T07:06:51Z</time>
      </trkpt>
      <trkpt lat="44.61842" lon="0.96798">
        <ele>229</ele>
        <time>2012-07-22T07:06:56Z</time>
      </trkpt>
      <trkpt lat="44.61847" lon="0.96794">
        <ele>229</ele>
        <time>2012-07-22T07:07:06Z</time>
      </trkpt>
      <trkpt lat="44.61851" lon="0.96794">
        <ele>229</ele>
        <time>2012-07-22T07:07:13Z</time>
      </trkpt>
      <trkpt lat="44.61852" lon="0.96794">
        <ele>229</ele>
        <time>2012-07-22T07:07:19Z</time>
      </trkpt>
      <trkpt lat="44.6185" lon="0.96795">
        <ele>229</ele>
        <time>2012-07-22T07:07:24Z</time>
      </trkpt>
      <trkpt lat="44.61852" lon="0.96791">
        <ele>229</ele>
        <time>2012-07-22T07:07:29Z</time>
      </trkpt>
      <trkpt lat="44.61855" lon="0.96772">
        <ele>229</ele>
        <time>2012-07-22T07:07:34Z</time>
      </trkpt>
      <trkpt lat="44.61864" lon="0.96744">
        <ele>226</ele>
        <time>2012-07-22T07:07:39Z</time>
      </trkpt>
      <trkpt lat="44.61872" lon="0.96723">
        <ele>222</ele>
        <time>2012-07-22T07:07:44Z</time>
      </trkpt>
      <trkpt lat="44.61879" lon="0.9672">
        <ele>218</ele>
        <time>2012-07-22T07:07:49Z</time>
      </trkpt>
      <trkpt lat="44.61891" lon="0.96731">
        <ele>218</ele>
        <time>2012-07-22T07:07:54Z</time>
      </trkpt>
      <trkpt lat="44.61903" lon="0.96746">
        <ele>218</ele>
        <time>2012-07-22T07:07:59Z</time>
      </trkpt>
      <trkpt lat="44.61909" lon="0.96773">
        <ele>220</ele>
        <time>2012-07-22T07:08:04Z</time>
      </trkpt>
      <trkpt lat="44.61908" lon="0.96798">
        <ele>220</ele>
        <time>2012-07-22T07:08:09Z</time>
      </trkpt>
      <trkpt lat="44.61908" lon="0.96839">
        <ele>220</ele>
        <time>2012-07-22T07:08:14Z</time>
      </trkpt>
      <trkpt lat="44.61908" lon="0.9688">
        <ele>218</ele>
        <time>2012-07-22T07:08:19Z</time>
      </trkpt>
      <trkpt lat="44.61906" lon="0.96908">
        <ele>218</ele>
        <time>2012-07-22T07:08:24Z</time>
      </trkpt>
      <trkpt lat="44.61907" lon="0.96932">
        <ele>218</ele>
        <time>2012-07-22T07:08:29Z</time>
      </trkpt>
      <trkpt lat="44.61909" lon="0.96953">
        <ele>221</ele>
        <time>2012-07-22T07:08:34Z</time>
      </trkpt>
      <trkpt lat="44.61912" lon="0.96973">
        <ele>226</ele>
        <time>2012-07-22T07:08:39Z</time>
      </trkpt>
      <trkpt lat="44.61915" lon="0.96993">
        <ele>231</ele>
        <time>2012-07-22T07:08:44Z</time>
      </trkpt>
      <trkpt lat="44.61917" lon="0.97008">
        <ele>236</ele>
        <time>2012-07-22T07:08:49Z</time>
      </trkpt>
      <trkpt lat="44.61919" lon="0.97025">
        <ele>240</ele>
        <time>2012-07-22T07:08:54Z</time>
      </trkpt>
      <trkpt lat="44.6193" lon="0.97039">
        <ele>243</ele>
        <time>2012-07-22T07:08:59Z</time>
      </trkpt>
      <trkpt lat="44.61941" lon="0.97053">
        <ele>247</ele>
        <time>2012-07-22T07:09:04Z</time>
      </trkpt>
      <trkpt lat="44.61949" lon="0.97055">
        <ele>248</ele>
        <time>2012-07-22T07:09:09Z</time>
      </trkpt>
      <trkpt lat="44.61964" lon="0.97046">
        <ele>247</ele>
        <time>2012-07-22T07:09:14Z</time>
      </trkpt>
      <trkpt lat="44.61977" lon="0.97033">
        <ele>244</ele>
        <time>2012-07-22T07:09:19Z</time>
      </trkpt>
      <trkpt lat="44.61989" lon="0.97021">
        <ele>239</ele>
        <time>2012-07-22T07:09:24Z</time>
      </trkpt>
      <trkpt lat="44.62001" lon="0.97012">
        <ele>236</ele>
        <time>2012-07-22T07:09:29Z</time>
      </trkpt>
      <trkpt lat="44.62011" lon="0.97006">
        <ele>235</ele>
        <time>2012-07-22T07:09:34Z</time>
      </trkpt>
      <trkpt lat="44.62024" lon="0.97">
        <ele>235</ele>
        <time>2012-07-22T07:09:39Z</time>
      </trkpt>
      <trkpt lat="44.62038" lon="0.96992">
        <ele>235</ele>
        <time>2012-07-22T07:09:44Z</time>
      </trkpt>
      <trkpt lat="44.62053" lon="0.96984">
        <ele>235</ele>
        <time>2012-07-22T07:09:49Z</time>
      </trkpt>
      <trkpt lat="44.6207" lon="0.96979">
        <ele>235</ele>
        <time>2012-07-22T07:09:54Z</time>
      </trkpt>
      <trkpt lat="44.62093" lon="0.96978">
        <ele>239</ele>
        <time>2012-07-22T07:09:59Z</time>
      </trkpt>
      <trkpt lat="44.62118" lon="0.96977">
        <ele>243</ele>
        <time>2012-07-22T07:10:04Z</time>
      </trkpt>
      <trkpt lat="44.62137" lon="0.96978">
        <ele>245</ele>
        <time>2012-07-22T07:10:09Z</time>
      </trkpt>
      <trkpt lat="44.62155" lon="0.96985">
        <ele>247</ele>
        <time>2012-07-22T07:10:14Z</time>
      </trkpt>
      <trkpt lat="44.62179" lon="0.96995">
        <ele>249</ele>
        <time>2012-07-22T07:10:19Z</time>
      </trkpt>
      <trkpt lat="44.62204" lon="0.97001">
        <ele>250</ele>
        <time>2012-07-22T07:10:24Z</time>
      </trkpt>
      <trkpt lat="44.62222" lon="0.97001">
        <ele>250</ele>
        <time>2012-07-22T07:10:29Z</time>
      </trkpt>
      <trkpt lat="44.62242" lon="0.97003">
        <ele>248</ele>
        <time>2012-07-22T07:10:34Z</time>
      </trkpt>
      <trkpt lat="44.62257" lon="0.96996">
        <ele>243</ele>
        <time>2012-07-22T07:10:39Z</time>
      </trkpt>
      <trkpt lat="44.62277" lon="0.96988">
        <ele>238</ele>
        <time>2012-07-22T07:10:44Z</time>
      </trkpt>
      <trkpt lat="44.62299" lon="0.96979">
        <ele>235</ele>
        <time>2012-07-22T07:10:49Z</time>
      </trkpt>
      <trkpt lat="44.6232" lon="0.96964">
        <ele>235</ele>
        <time>2012-07-22T07:10:54Z</time>
      </trkpt>
      <trkpt lat="44.62341" lon="0.96951">
        <ele>235</ele>
        <time>2012-07-22T07:10:59Z</time>
      </trkpt>
      <trkpt lat="44.62353" lon="0.96943">
        <ele>235</ele>
        <time>2012-07-22T07:11:04Z</time>
      </trkpt>
      <trkpt lat="44.62363" lon="0.96934">
        <ele>235</ele>
        <time>2012-07-22T07:11:09Z</time>
      </trkpt>
      <trkpt lat="44.62376" lon="0.96939">
        <ele>233</ele>
        <time>2012-07-22T07:11:14Z</time>
      </trkpt>
      <trkpt lat="44.62373" lon="0.96954">
        <ele>230</ele>
        <time>2012-07-22T07:11:19Z</time>
      </trkpt>
      <trkpt lat="44.62368" lon="0.96976">
        <ele>229</ele>
        <time>2012-07-22T07:11:24Z</time>
      </trkpt>
      <trkpt lat="44.62362" lon="0.96996">
        <ele>229</ele>
        <time>2012-07-22T07:11:29Z</time>
      </trkpt>
      <trkpt lat="44.62359" lon="0.97019">
        <ele>229</ele>
        <time>2012-07-22T07:11:34Z</time>
      </trkpt>
      <trkpt lat="44.62356" lon="0.97048">
        <ele>231</ele>
        <time>2012-07-22T07:11:39Z</time>
      </trkpt>
      <trkpt lat="44.62369" lon="0.9707">
        <ele>231</ele>
        <time>2012-07-22T07:11:44Z</time>
      </trkpt>
      <trkpt lat="44.62384" lon="0.97092">
        <ele>231</ele>
        <time>2012-07-22T07:11:49Z</time>
      </trkpt>
      <trkpt lat="44.62398" lon="0.97115">
        <ele>231</ele>
        <time>2012-07-22T07:11:54Z</time>
      </trkpt>
      <trkpt lat="44.624" lon="0.9714">
        <ele>231</ele>
        <time>2012-07-22T07:11:59Z</time>
      </trkpt>
      <trkpt lat="44.624" lon="0.97167">
        <ele>231</ele>
        <time>2012-07-22T07:12:04Z</time>
      </trkpt>
      <trkpt lat="44.62401" lon="0.97195">
        <ele>232</ele>
        <time>2012-07-22T07:12:09Z</time>
      </trkpt>
      <trkpt lat="44.62393" lon="0.97219">
        <ele>233</ele>
        <time>2012-07-22T07:12:14Z</time>
      </trkpt>
      <trkpt lat="44.62375" lon="0.97229">
        <ele>234</ele>
        <time>2012-07-22T07:12:19Z</time>
      </trkpt>
      <trkpt lat="44.62371" lon="0.97255">
        <ele>234</ele>
        <time>2012-07-22T07:12:24Z</time>
      </trkpt>
      <trkpt lat="44.62362" lon="0.9728">
        <ele>234</ele>
        <time>2012-07-22T07:12:29Z</time>
      </trkpt>
      <trkpt lat="44.62371" lon="0.97299">
        <ele>234</ele>
        <time>2012-07-22T07:12:34Z</time>
      </trkpt>
      <trkpt lat="44.62382" lon="0.97313">
        <ele>237</ele>
        <time>2012-07-22T07:12:39Z</time>
      </trkpt>
      <trkpt lat="44.62394" lon="0.9733">
        <ele>242</ele>
        <time>2012-07-22T07:12:44Z</time>
      </trkpt>
      <trkpt lat="44.62401" lon="0.97348">
        <ele>247</ele>
        <time>2012-07-22T07:12:49Z</time>
      </trkpt>
      <trkpt lat="44.6241" lon="0.97374">
        <ele>248</ele>
        <time>2012-07-22T07:12:55Z</time>
      </trkpt>
      <trkpt lat="44.62419" lon="0.97397">
        <ele>248</ele>
        <time>2012-07-22T07:13:00Z</time>
      </trkpt>
      <trkpt lat="44.62427" lon="0.97421">
        <ele>249</ele>
        <time>2012-07-22T07:13:05Z</time>
      </trkpt>
      <trkpt lat="44.62435" lon="0.97437">
        <ele>249</ele>
        <time>2012-07-22T07:13:10Z</time>
      </trkpt>
      <trkpt lat="44.62454" lon="0.97445">
        <ele>249</ele>
        <time>2012-07-22T07:13:16Z</time>
      </trkpt>
      <trkpt lat="44.62462" lon="0.97467">
        <ele>250</ele>
        <time>2012-07-22T07:13:21Z</time>
      </trkpt>
      <trkpt lat="44.62478" lon="0.97487">
        <ele>250</ele>
        <time>2012-07-22T07:13:26Z</time>
      </trkpt>
      <trkpt lat="44.62492" lon="0.97504">
        <ele>250</ele>
        <time>2012-07-22T07:13:31Z</time>
      </trkpt>
      <trkpt lat="44.62507" lon="0.97522">
        <ele>250</ele>
        <time>2012-07-22T07:13:36Z</time>
      </trkpt>
      <trkpt lat="44.62518" lon="0.97533">
        <ele>252</ele>
        <time>2012-07-22T07:13:41Z</time>
      </trkpt>
      <trkpt lat="44.62527" lon="0.97548">
        <ele>254</ele>
        <time>2012-07-22T07:13:46Z</time>
      </trkpt>
      <trkpt lat="44.62534" lon="0.97564">
        <ele>256</ele>
        <time>2012-07-22T07:13:51Z</time>
      </trkpt>
      <trkpt lat="44.62546" lon="0.97578">
        <ele>256</ele>
        <time>2012-07-22T07:13:56Z</time>
      </trkpt>
      <trkpt lat="44.62559" lon="0.97593">
        <ele>256</ele>
        <time>2012-07-22T07:14:01Z</time>
      </trkpt>
      <trkpt lat="44.62569" lon="0.97612">
        <ele>257</ele>
        <time>2012-07-22T07:14:06Z</time>
      </trkpt>
      <trkpt lat="44.62581" lon="0.97631">
        <ele>259</ele>
        <time>2012-07-22T07:14:11Z</time>
      </trkpt>
      <trkpt lat="44.62594" lon="0.97647">
        <ele>260</ele>
        <time>2012-07-22T07:14:16Z</time>
      </trkpt>
      <trkpt lat="44.62608" lon="0.97665">
        <ele>260</ele>
        <time>2012-07-22T07:14:21Z</time>
      </trkpt>
      <trkpt lat="44.62621" lon="0.97688">
        <ele>260</ele>
        <time>2012-07-22T07:14:26Z</time>
      </trkpt>
      <trkpt lat="44.62634" lon="0.97707">
        <ele>260</ele>
        <time>2012-07-22T07:14:31Z</time>
      </trkpt>
      <trkpt lat="44.62653" lon="0.9772">
        <ele>260</ele>
        <time>2012-07-22T07:14:36Z</time>
      </trkpt>
      <trkpt lat="44.62675" lon="0.97729">
        <ele>261</ele>
        <time>2012-07-22T07:14:41Z</time>
      </trkpt>
      <trkpt lat="44.62693" lon="0.97733">
        <ele>262</ele>
        <time>2012-07-22T07:14:46Z</time>
      </trkpt>
      <trkpt lat="44.62709" lon="0.97746">
        <ele>267</ele>
        <time>2012-07-22T07:14:51Z</time>
      </trkpt>
      <trkpt lat="44.62714" lon="0.97767">
        <ele>269</ele>
        <time>2012-07-22T07:14:56Z</time>
      </trkpt>
      <trkpt lat="44.62731" lon="0.97795">
        <ele>270</ele>
        <time>2012-07-22T07:15:02Z</time>
      </trkpt>
      <trkpt lat="44.62747" lon="0.97815">
        <ele>273</ele>
        <time>2012-07-22T07:15:07Z</time>
      </trkpt>
      <trkpt lat="44.62761" lon="0.97815">
        <ele>272</ele>
        <time>2012-07-22T07:15:12Z</time>
      </trkpt>
      <trkpt lat="44.62785" lon="0.97812">
        <ele>268</ele>
        <time>2012-07-22T07:15:17Z</time>
      </trkpt>
      <trkpt lat="44.62808" lon="0.97812">
        <ele>267</ele>
        <time>2012-07-22T07:15:22Z</time>
      </trkpt>
      <trkpt lat="44.62829" lon="0.97811">
        <ele>267</ele>
        <time>2012-07-22T07:15:27Z</time>
      </trkpt>
      <trkpt lat="44.6285" lon="0.97821">
        <ele>267</ele>
        <time>2012-07-22T07:15:32Z</time>
      </trkpt>
      <trkpt lat="44.6287" lon="0.9782">
        <ele>268</ele>
        <time>2012-07-22T07:15:37Z</time>
      </trkpt>
      <trkpt lat="44.62882" lon="0.97818">
        <ele>271</ele>
        <time>2012-07-22T07:15:42Z</time>
      </trkpt>
      <trkpt lat="44.62886" lon="0.97824">
        <ele>275</ele>
        <time>2012-07-22T07:15:47Z</time>
      </trkpt>
      <trkpt lat="44.62887" lon="0.9783">
        <ele>277</ele>
        <time>2012-07-22T07:15:54Z</time>
      </trkpt>
      <trkpt lat="44.62888" lon="0.97833">
        <ele>280</ele>
        <time>2012-07-22T07:15:59Z</time>
      </trkpt>
      <trkpt lat="44.62888" lon="0.97838">
        <ele>280</ele>
        <time>2012-07-22T07:16:04Z</time>
      </trkpt>
      <trkpt lat="44.62897" lon="0.97858">
        <ele>279</ele>
        <time>2012-07-22T07:16:09Z</time>
      </trkpt>
      <trkpt lat="44.62906" lon="0.97878">
        <ele>274</ele>
        <time>2012-07-22T07:16:14Z</time>
      </trkpt>
      <trkpt lat="44.6292" lon="0.97878">
        <ele>273</ele>
        <time>2012-07-22T07:16:19Z</time>
      </trkpt>
      <trkpt lat="44.62929" lon="0.9788">
        <ele>270</ele>
        <time>2012-07-22T07:16:24Z</time>
      </trkpt>
      <trkpt lat="44.62938" lon="0.97876">
        <ele>270</ele>
        <time>2012-07-22T07:16:29Z</time>
      </trkpt>
      <trkpt lat="44.62943" lon="0.97858">
        <ele>268</ele>
        <time>2012-07-22T07:16:34Z</time>
      </trkpt>
      <trkpt lat="44.62948" lon="0.97833">
        <ele>265</ele>
        <time>2012-07-22T07:16:40Z</time>
      </trkpt>
      <trkpt lat="44.6296" lon="0.97814">
        <ele>262</ele>
        <time>2012-07-22T07:16:45Z</time>
      </trkpt>
      <trkpt lat="44.6296" lon="0.9779">
        <ele>258</ele>
        <time>2012-07-22T07:16:50Z</time>
      </trkpt>
      <trkpt lat="44.62957" lon="0.97762">
        <ele>253</ele>
        <time>2012-07-22T07:16:55Z</time>
      </trkpt>
      <trkpt lat="44.62952" lon="0.97732">
        <ele>253</ele>
        <time>2012-07-22T07:17:00Z</time>
      </trkpt>
      <trkpt lat="44.62954" lon="0.97704">
        <ele>251</ele>
        <time>2012-07-22T07:17:05Z</time>
      </trkpt>
      <trkpt lat="44.62957" lon="0.97665">
        <ele>248</ele>
        <time>2012-07-22T07:17:10Z</time>
      </trkpt>
      <trkpt lat="44.62962" lon="0.97632">
        <ele>245</ele>
        <time>2012-07-22T07:17:15Z</time>
      </trkpt>
      <trkpt lat="44.62972" lon="0.97598">
        <ele>242</ele>
        <time>2012-07-22T07:17:20Z</time>
      </trkpt>
      <trkpt lat="44.62977" lon="0.97563">
        <ele>242</ele>
        <time>2012-07-22T07:17:25Z</time>
      </trkpt>
      <trkpt lat="44.62979" lon="0.97528">
        <ele>242</ele>
        <time>2012-07-22T07:17:30Z</time>
      </trkpt>
      <trkpt lat="44.62985" lon="0.97491">
        <ele>241</ele>
        <time>2012-07-22T07:17:35Z</time>
      </trkpt>
      <trkpt lat="44.62995" lon="0.9746">
        <ele>241</ele>
        <time>2012-07-22T07:17:40Z</time>
      </trkpt>
      <trkpt lat="44.63013" lon="0.97433">
        <ele>236</ele>
        <time>2012-07-22T07:17:45Z</time>
      </trkpt>
      <trkpt lat="44.63032" lon="0.97408">
        <ele>235</ele>
        <time>2012-07-22T07:17:50Z</time>
      </trkpt>
      <trkpt lat="44.63054" lon="0.97392">
        <ele>234</ele>
        <time>2012-07-22T07:17:55Z</time>
      </trkpt>
      <trkpt lat="44.63073" lon="0.97372">
        <ele>233</ele>
        <time>2012-07-22T07:18:00Z</time>
      </trkpt>
      <trkpt lat="44.63094" lon="0.97357">
        <ele>229</ele>
        <time>2012-07-22T07:18:05Z</time>
      </trkpt>
      <trkpt lat="44.63124" lon="0.97334">
        <ele>226</ele>
        <time>2012-07-22T07:18:10Z</time>
      </trkpt>
      <trkpt lat="44.63149" lon="0.97323">
        <ele>226</ele>
        <time>2012-07-22T07:18:15Z</time>
      </trkpt>
      <trkpt lat="44.6316" lon="0.97316">
        <ele>226</ele>
        <time>2012-07-22T07:18:20Z</time>
      </trkpt>
      <trkpt lat="44.63163" lon="0.97314">
        <ele>226</ele>
        <time>2012-07-22T07:18:26Z</time>
      </trkpt>
      <trkpt lat="44.63171" lon="0.97309">
        <ele>225</ele>
        <time>2012-07-22T07:18:31Z</time>
      </trkpt>
      <trkpt lat="44.63178" lon="0.9729">
        <ele>222</ele>
        <time>2012-07-22T07:18:36Z</time>
      </trkpt>
      <trkpt lat="44.63198" lon="0.97277">
        <ele>222</ele>
        <time>2012-07-22T07:18:41Z</time>
      </trkpt>
      <trkpt lat="44.63219" lon="0.97268">
        <ele>219</ele>
        <time>2012-07-22T07:18:46Z</time>
      </trkpt>
      <trkpt lat="44.63244" lon="0.97255">
        <ele>214</ele>
        <time>2012-07-22T07:18:51Z</time>
      </trkpt>
      <trkpt lat="44.63267" lon="0.97236">
        <ele>210</ele>
        <time>2012-07-22T07:18:56Z</time>
      </trkpt>
      <trkpt lat="44.63292" lon="0.97206">
        <ele>210</ele>
        <time>2012-07-22T07:19:01Z</time>
      </trkpt>
      <trkpt lat="44.63312" lon="0.97164">
        <ele>210</ele>
        <time>2012-07-22T07:19:06Z</time>
      </trkpt>
      <trkpt lat="44.63338" lon="0.97124">
        <ele>210</ele>
        <time>2012-07-22T07:19:11Z</time>
      </trkpt>
      <trkpt lat="44.63374" lon="0.97088">
        <ele>208</ele>
        <time>2012-07-22T07:19:16Z</time>
      </trkpt>
      <trkpt lat="44.63417" lon="0.97069">
        <ele>203</ele>
        <time>2012-07-22T07:19:21Z</time>
      </trkpt>
      <trkpt lat="44.63455" lon="0.97053">
        <ele>198</ele>
        <time>2012-07-22T07:19:26Z</time>
      </trkpt>
      <trkpt lat="44.63461" lon="0.97009">
        <ele>193</ele>
        <time>2012-07-22T07:19:31Z</time>
      </trkpt>
      <trkpt lat="44.6342" lon="0.96982">
        <ele>190</ele>
        <time>2012-07-22T07:19:36Z</time>
      </trkpt>
      <trkpt lat="44.63371" lon="0.96956">
        <ele>190</ele>
        <time>2012-07-22T07:19:41Z</time>
      </trkpt>
      <trkpt lat="44.6334" lon="0.96921">
        <ele>189</ele>
        <time>2012-07-22T07:19:46Z</time>
      </trkpt>
      <trkpt lat="44.6335" lon="0.96873">
        <ele>184</ele>
        <time>2012-07-22T07:19:51Z</time>
      </trkpt>
      <trkpt lat="44.63371" lon="0.96843">
        <ele>183</ele>
        <time>2012-07-22T07:19:56Z</time>
      </trkpt>
      <trkpt lat="44.63376" lon="0.96804">
        <ele>180</ele>
        <time>2012-07-22T07:20:01Z</time>
      </trkpt>
      <trkpt lat="44.63395" lon="0.96794">
        <ele>179</ele>
        <time>2012-07-22T07:20:06Z</time>
      </trkpt>
      <trkpt lat="44.63423" lon="0.96793">
        <ele>180</ele>
        <time>2012-07-22T07:20:11Z</time>
      </trkpt>
      <trkpt lat="44.6345" lon="0.96797">
        <ele>185</ele>
        <time>2012-07-22T07:20:16Z</time>
      </trkpt>
      <trkpt lat="44.63474" lon="0.96809">
        <ele>188</ele>
        <time>2012-07-22T07:20:21Z</time>
      </trkpt>
      <trkpt lat="44.63495" lon="0.96825">
        <ele>190</ele>
        <time>2012-07-22T07:20:26Z</time>
      </trkpt>
      <trkpt lat="44.63513" lon="0.9684">
        <ele>192</ele>
        <time>2012-07-22T07:20:31Z</time>
      </trkpt>
      <trkpt lat="44.63531" lon="0.96856">
        <ele>193</ele>
        <time>2012-07-22T07:20:36Z</time>
      </trkpt>
      <trkpt lat="44.63548" lon="0.96871">
        <ele>193</ele>
        <time>2012-07-22T07:20:41Z</time>
      </trkpt>
      <trkpt lat="44.63566" lon="0.96887">
        <ele>194</ele>
        <time>2012-07-22T07:20:46Z</time>
      </trkpt>
      <trkpt lat="44.63583" lon="0.96903">
        <ele>196</ele>
        <time>2012-07-22T07:20:51Z</time>
      </trkpt>
      <trkpt lat="44.63602" lon="0.96919">
        <ele>198</ele>
        <time>2012-07-22T07:20:56Z</time>
      </trkpt>
      <trkpt lat="44.63622" lon="0.96933">
        <ele>198</ele>
        <time>2012-07-22T07:21:01Z</time>
      </trkpt>
      <trkpt lat="44.63642" lon="0.96936">
        <ele>196</ele>
        <time>2012-07-22T07:21:06Z</time>
      </trkpt>
      <trkpt lat="44.63661" lon="0.96928">
        <ele>191</ele>
        <time>2012-07-22T07:21:11Z</time>
      </trkpt>
      <trkpt lat="44.63678" lon="0.96919">
        <ele>189</ele>
        <time>2012-07-22T07:21:16Z</time>
      </trkpt>
      <trkpt lat="44.63676" lon="0.96898">
        <ele>189</ele>
        <time>2012-07-22T07:21:21Z</time>
      </trkpt>
      <trkpt lat="44.63671" lon="0.96881">
        <ele>189</ele>
        <time>2012-07-22T07:21:26Z</time>
      </trkpt>
      <trkpt lat="44.63669" lon="0.96861">
        <ele>189</ele>
        <time>2012-07-22T07:21:31Z</time>
      </trkpt>
      <trkpt lat="44.63671" lon="0.96835">
        <ele>189</ele>
        <time>2012-07-22T07:21:36Z</time>
      </trkpt>
      <trkpt lat="44.63676" lon="0.96807">
        <ele>189</ele>
        <time>2012-07-22T07:21:41Z</time>
      </trkpt>
      <trkpt lat="44.63678" lon="0.96781">
        <ele>189</ele>
        <time>2012-07-22T07:21:46Z</time>
      </trkpt>
      <trkpt lat="44.63683" lon="0.96753">
        <ele>189</ele>
        <time>2012-07-22T07:21:51Z</time>
      </trkpt>
      <trkpt lat="44.63691" lon="0.96729">
        <ele>191</ele>
        <time>2012-07-22T07:21:56Z</time>
      </trkpt>
      <trkpt lat="44.63697" lon="0.9671">
        <ele>192</ele>
        <time>2012-07-22T07:22:01Z</time>
      </trkpt>
      <trkpt lat="44.63705" lon="0.96692">
        <ele>194</ele>
        <time>2012-07-22T07:22:06Z</time>
      </trkpt>
      <trkpt lat="44.6371" lon="0.96669">
        <ele>194</ele>
        <time>2012-07-22T07:22:11Z</time>
      </trkpt>
      <trkpt lat="44.63715" lon="0.96648">
        <ele>193</ele>
        <time>2012-07-22T07:22:16Z</time>
      </trkpt>
      <trkpt lat="44.63718" lon="0.96628">
        <ele>191</ele>
        <time>2012-07-22T07:22:21Z</time>
      </trkpt>
      <trkpt lat="44.63722" lon="0.96608">
        <ele>190</ele>
        <time>2012-07-22T07:22:26Z</time>
      </trkpt>
      <trkpt lat="44.63727" lon="0.96587">
        <ele>189</ele>
        <time>2012-07-22T07:22:31Z</time>
      </trkpt>
      <trkpt lat="44.63735" lon="0.96566">
        <ele>189</ele>
        <time>2012-07-22T07:22:36Z</time>
      </trkpt>
      <trkpt lat="44.63743" lon="0.96546">
        <ele>189</ele>
        <time>2012-07-22T07:22:41Z</time>
      </trkpt>
      <trkpt lat="44.63753" lon="0.9653">
        <ele>188</ele>
        <time>2012-07-22T07:22:46Z</time>
      </trkpt>
      <trkpt lat="44.63766" lon="0.96516">
        <ele>187</ele>
        <time>2012-07-22T07:22:51Z</time>
      </trkpt>
      <trkpt lat="44.63784" lon="0.96506">
        <ele>188</ele>
        <time>2012-07-22T07:22:56Z</time>
      </trkpt>
      <trkpt lat="44.63793" lon="0.96488">
        <ele>194</ele>
        <time>2012-07-22T07:23:02Z</time>
      </trkpt>
      <trkpt lat="44.6379" lon="0.96471">
        <ele>199</ele>
        <time>2012-07-22T07:23:07Z</time>
      </trkpt>
      <trkpt lat="44.63791" lon="0.96448">
        <ele>204</ele>
        <time>2012-07-22T07:23:12Z</time>
      </trkpt>
      <trkpt lat="44.63797" lon="0.96425">
        <ele>206</ele>
        <time>2012-07-22T07:23:17Z</time>
      </trkpt>
      <trkpt lat="44.63806" lon="0.96405">
        <ele>208</ele>
        <time>2012-07-22T07:23:22Z</time>
      </trkpt>
      <trkpt lat="44.6382" lon="0.96384">
        <ele>211</ele>
        <time>2012-07-22T07:23:27Z</time>
      </trkpt>
      <trkpt lat="44.63835" lon="0.96366">
        <ele>215</ele>
        <time>2012-07-22T07:23:32Z</time>
      </trkpt>
      <trkpt lat="44.63852" lon="0.96343">
        <ele>216</ele>
        <time>2012-07-22T07:23:38Z</time>
      </trkpt>
      <trkpt lat="44.63868" lon="0.96323">
        <ele>216</ele>
        <time>2012-07-22T07:23:43Z</time>
      </trkpt>
      <trkpt lat="44.63883" lon="0.96299">
        <ele>216</ele>
        <time>2012-07-22T07:23:49Z</time>
      </trkpt>
      <trkpt lat="44.63892" lon="0.96279">
        <ele>216</ele>
        <time>2012-07-22T07:23:54Z</time>
      </trkpt>
      <trkpt lat="44.63901" lon="0.96254">
        <ele>216</ele>
        <time>2012-07-22T07:24:00Z</time>
      </trkpt>
      <trkpt lat="44.63906" lon="0.96228">
        <ele>216</ele>
        <time>2012-07-22T07:24:06Z</time>
      </trkpt>
      <trkpt lat="44.63918" lon="0.96205">
        <ele>216</ele>
        <time>2012-07-22T07:24:12Z</time>
      </trkpt>
      <trkpt lat="44.63928" lon="0.96186">
        <ele>215</ele>
        <time>2012-07-22T07:24:17Z</time>
      </trkpt>
      <trkpt lat="44.63938" lon="0.9617">
        <ele>214</ele>
        <time>2012-07-22T07:24:22Z</time>
      </trkpt>
      <trkpt lat="44.63956" lon="0.96162">
        <ele>212</ele>
        <time>2012-07-22T07:24:27Z</time>
      </trkpt>
      <trkpt lat="44.63975" lon="0.96147">
        <ele>207</ele>
        <time>2012-07-22T07:24:32Z</time>
      </trkpt>
      <trkpt lat="44.64" lon="0.96125">
        <ele>201</ele>
        <time>2012-07-22T07:24:38Z</time>
      </trkpt>
      <trkpt lat="44.64016" lon="0.96103">
        <ele>198</ele>
        <time>2012-07-22T07:24:43Z</time>
      </trkpt>
      <trkpt lat="44.6403" lon="0.96073">
        <ele>198</ele>
        <time>2012-07-22T07:24:48Z</time>
      </trkpt>
      <trkpt lat="44.64045" lon="0.96039">
        <ele>198</ele>
        <time>2012-07-22T07:24:53Z</time>
      </trkpt>
      <trkpt lat="44.64063" lon="0.95998">
        <ele>199</ele>
        <time>2012-07-22T07:24:58Z</time>
      </trkpt>
      <trkpt lat="44.64077" lon="0.95948">
        <ele>201</ele>
        <time>2012-07-22T07:25:03Z</time>
      </trkpt>
      <trkpt lat="44.64068" lon="0.95881">
        <ele>204</ele>
        <time>2012-07-22T07:25:08Z</time>
      </trkpt>
      <trkpt lat="44.64055" lon="0.95862">
        <ele>211</ele>
        <time>2012-07-22T07:25:13Z</time>
      </trkpt>
      <trkpt lat="44.64043" lon="0.95845">
        <ele>218</ele>
        <time>2012-07-22T07:25:18Z</time>
      </trkpt>
      <trkpt lat="44.64037" lon="0.9582">
        <ele>222</ele>
        <time>2012-07-22T07:25:23Z</time>
      </trkpt>
      <trkpt lat="44.64034" lon="0.95789">
        <ele>222</ele>
        <time>2012-07-22T07:25:28Z</time>
      </trkpt>
      <trkpt lat="44.64039" lon="0.9575">
        <ele>222</ele>
        <time>2012-07-22T07:25:34Z</time>
      </trkpt>
      <trkpt lat="44.6403" lon="0.95707">
        <ele>222</ele>
        <time>2012-07-22T07:25:40Z</time>
      </trkpt>
      <trkpt lat="44.64017" lon="0.95684">
        <ele>222</ele>
        <time>2012-07-22T07:25:46Z</time>
      </trkpt>
      <trkpt lat="44.64016" lon="0.95667">
        <ele>225</ele>
        <time>2012-07-22T07:25:51Z</time>
      </trkpt>
      <trkpt lat="44.64022" lon="0.95652">
        <ele>225</ele>
        <time>2012-07-22T07:25:56Z</time>
      </trkpt>
      <trkpt lat="44.64023" lon="0.9564">
        <ele>230</ele>
        <time>2012-07-22T07:26:01Z</time>
      </trkpt>
      <trkpt lat="44.64022" lon="0.95622">
        <ele>234</ele>
        <time>2012-07-22T07:26:06Z</time>
      </trkpt>
      <trkpt lat="44.64025" lon="0.95603">
        <ele>234</ele>
        <time>2012-07-22T07:26:12Z</time>
      </trkpt>
      <trkpt lat="44.64028" lon="0.95584">
        <ele>234</ele>
        <time>2012-07-22T07:26:17Z</time>
      </trkpt>
      <trkpt lat="44.64028" lon="0.95565">
        <ele>234</ele>
        <time>2012-07-22T07:26:22Z</time>
      </trkpt>
      <trkpt lat="44.64025" lon="0.95545">
        <ele>232</ele>
        <time>2012-07-22T07:26:27Z</time>
      </trkpt>
      <trkpt lat="44.64013" lon="0.95522">
        <ele>228</ele>
        <time>2012-07-22T07:26:32Z</time>
      </trkpt>
      <trkpt lat="44.64005" lon="0.95501">
        <ele>228</ele>
        <time>2012-07-22T07:26:37Z</time>
      </trkpt>
      <trkpt lat="44.64005" lon="0.95482">
        <ele>228</ele>
        <time>2012-07-22T07:26:42Z</time>
      </trkpt>
      <trkpt lat="44.64014" lon="0.95467">
        <ele>228</ele>
        <time>2012-07-22T07:26:47Z</time>
      </trkpt>
      <trkpt lat="44.64027" lon="0.95456">
        <ele>228</ele>
        <time>2012-07-22T07:26:52Z</time>
      </trkpt>
      <trkpt lat="44.64041" lon="0.95447">
        <ele>227</ele>
        <time>2012-07-22T07:26:57Z</time>
      </trkpt>
      <trkpt lat="44.64057" lon="0.95448">
        <ele>226</ele>
        <time>2012-07-22T07:27:03Z</time>
      </trkpt>
      <trkpt lat="44.64069" lon="0.95445">
        <ele>226</ele>
        <time>2012-07-22T07:27:08Z</time>
      </trkpt>
      <trkpt lat="44.64078" lon="0.95434">
        <ele>229</ele>
        <time>2012-07-22T07:27:13Z</time>
      </trkpt>
      <trkpt lat="44.64089" lon="0.95424">
        <ele>230</ele>
        <time>2012-07-22T07:27:18Z</time>
      </trkpt>
      <trkpt lat="44.641" lon="0.95419">
        <ele>232</ele>
        <time>2012-07-22T07:27:23Z</time>
      </trkpt>
      <trkpt lat="44.64109" lon="0.95414">
        <ele>235</ele>
        <time>2012-07-22T07:27:28Z</time>
      </trkpt>
      <trkpt lat="44.64117" lon="0.95399">
        <ele>235</ele>
        <time>2012-07-22T07:27:33Z</time>
      </trkpt>
      <trkpt lat="44.64121" lon="0.95376">
        <ele>235</ele>
        <time>2012-07-22T07:27:38Z</time>
      </trkpt>
      <trkpt lat="44.64127" lon="0.95351">
        <ele>237</ele>
        <time>2012-07-22T07:27:44Z</time>
      </trkpt>
      <trkpt lat="44.64133" lon="0.95332">
        <ele>237</ele>
        <time>2012-07-22T07:27:49Z</time>
      </trkpt>
      <trkpt lat="44.64147" lon="0.95314">
        <ele>237</ele>
        <time>2012-07-22T07:27:54Z</time>
      </trkpt>
      <trkpt lat="44.64173" lon="0.95299">
        <ele>233</ele>
        <time>2012-07-22T07:27:59Z</time>
      </trkpt>
      <trkpt lat="44.64178" lon="0.95267">
        <ele>228</ele>
        <time>2012-07-22T07:28:04Z</time>
      </trkpt>
      <trkpt lat="44.64174" lon="0.95239">
        <ele>223</ele>
        <time>2012-07-22T07:28:09Z</time>
      </trkpt>
      <trkpt lat="44.64177" lon="0.95202">
        <ele>219</ele>
        <time>2012-07-22T07:28:14Z</time>
      </trkpt>
      <trkpt lat="44.64177" lon="0.9517">
        <ele>219</ele>
        <time>2012-07-22T07:28:19Z</time>
      </trkpt>
      <trkpt lat="44.64172" lon="0.9514">
        <ele>221</ele>
        <time>2012-07-22T07:28:24Z</time>
      </trkpt>
      <trkpt lat="44.64154" lon="0.95095">
        <ele>227</ele>
        <time>2012-07-22T07:28:29Z</time>
      </trkpt>
      <trkpt lat="44.64148" lon="0.95063">
        <ele>237</ele>
        <time>2012-07-22T07:28:34Z</time>
      </trkpt>
      <trkpt lat="44.64138" lon="0.95037">
        <ele>242</ele>
        <time>2012-07-22T07:28:39Z</time>
      </trkpt>
      <trkpt lat="44.6412" lon="0.95017">
        <ele>247</ele>
        <time>2012-07-22T07:28:44Z</time>
      </trkpt>
      <trkpt lat="44.64107" lon="0.94994">
        <ele>252</ele>
        <time>2012-07-22T07:28:49Z</time>
      </trkpt>
      <trkpt lat="44.64098" lon="0.94975">
        <ele>257</ele>
        <time>2012-07-22T07:28:54Z</time>
      </trkpt>
      <trkpt lat="44.64095" lon="0.94964">
        <ele>257</ele>
        <time>2012-07-22T07:28:59Z</time>
      </trkpt>
      <trkpt lat="44.64098" lon="0.94958">
        <ele>256</ele>
        <time>2012-07-22T07:29:05Z</time>
      </trkpt>
      <trkpt lat="44.64102" lon="0.94952">
        <ele>250</ele>
        <time>2012-07-22T07:29:11Z</time>
      </trkpt>
      <trkpt lat="44.64103" lon="0.94936">
        <ele>247</ele>
        <time>2012-07-22T07:29:16Z</time>
      </trkpt>
      <trkpt lat="44.64108" lon="0.94911">
        <ele>245</ele>
        <time>2012-07-22T07:29:21Z</time>
      </trkpt>
      <trkpt lat="44.64115" lon="0.94884">
        <ele>242</ele>
        <time>2012-07-22T07:29:26Z</time>
      </trkpt>
      <trkpt lat="44.64124" lon="0.94861">
        <ele>240</ele>
        <time>2012-07-22T07:29:31Z</time>
      </trkpt>
      <trkpt lat="44.64132" lon="0.94839">
        <ele>237</ele>
        <time>2012-07-22T07:29:36Z</time>
      </trkpt>
      <trkpt lat="44.64127" lon="0.9482">
        <ele>237</ele>
        <time>2012-07-22T07:29:41Z</time>
      </trkpt>
      <trkpt lat="44.64119" lon="0.94798">
        <ele>237</ele>
        <time>2012-07-22T07:29:46Z</time>
      </trkpt>
      <trkpt lat="44.64112" lon="0.94777">
        <ele>237</ele>
        <time>2012-07-22T07:29:51Z</time>
      </trkpt>
      <trkpt lat="44.64106" lon="0.94756">
        <ele>238</ele>
        <time>2012-07-22T07:29:56Z</time>
      </trkpt>
      <trkpt lat="44.641" lon="0.94734">
        <ele>241</ele>
        <time>2012-07-22T07:30:01Z</time>
      </trkpt>
      <trkpt lat="44.64096" lon="0.94712">
        <ele>241</ele>
        <time>2012-07-22T07:30:06Z</time>
      </trkpt>
      <trkpt lat="44.64088" lon="0.94695">
        <ele>241</ele>
        <time>2012-07-22T07:30:11Z</time>
      </trkpt>
      <trkpt lat="44.64079" lon="0.94676">
        <ele>241</ele>
        <time>2012-07-22T07:30:16Z</time>
      </trkpt>
      <trkpt lat="44.64073" lon="0.94653">
        <ele>241</ele>
        <time>2012-07-22T07:30:21Z</time>
      </trkpt>
      <trkpt lat="44.64065" lon="0.94629">
        <ele>241</ele>
        <time>2012-07-22T07:30:26Z</time>
      </trkpt>
      <trkpt lat="44.64056" lon="0.94604">
        <ele>241</ele>
        <time>2012-07-22T07:30:31Z</time>
      </trkpt>
      <trkpt lat="44.64052" lon="0.94579">
        <ele>241</ele>
        <time>2012-07-22T07:30:36Z</time>
      </trkpt>
      <trkpt lat="44.64049" lon="0.94552">
        <ele>242</ele>
        <time>2012-07-22T07:30:41Z</time>
      </trkpt>
      <trkpt lat="44.64045" lon="0.94524">
        <ele>242</ele>
        <time>2012-07-22T07:30:46Z</time>
      </trkpt>
      <trkpt lat="44.6404" lon="0.94497">
        <ele>242</ele>
        <time>2012-07-22T07:30:51Z</time>
      </trkpt>
      <trkpt lat="44.64034" lon="0.94475">
        <ele>243</ele>
        <time>2012-07-22T07:30:56Z</time>
      </trkpt>
      <trkpt lat="44.64032" lon="0.94447">
        <ele>243</ele>
        <time>2012-07-22T07:31:01Z</time>
      </trkpt>
      <trkpt lat="44.64033" lon="0.9442">
        <ele>244</ele>
        <time>2012-07-22T07:31:06Z</time>
      </trkpt>
      <trkpt lat="44.64025" lon="0.94401">
        <ele>248</ele>
        <time>2012-07-22T07:31:11Z</time>
      </trkpt>
      <trkpt lat="44.64007" lon="0.94395">
        <ele>250</ele>
        <time>2012-07-22T07:31:16Z</time>
      </trkpt>
      <trkpt lat="44.63985" lon="0.9439">
        <ele>251</ele>
        <time>2012-07-22T07:31:21Z</time>
      </trkpt>
      <trkpt lat="44.63964" lon="0.94386">
        <ele>253</ele>
        <time>2012-07-22T07:31:26Z</time>
      </trkpt>
      <trkpt lat="44.63958" lon="0.94364">
        <ele>253</ele>
        <time>2012-07-22T07:31:31Z</time>
      </trkpt>
      <trkpt lat="44.63968" lon="0.9434">
        <ele>253</ele>
        <time>2012-07-22T07:31:36Z</time>
      </trkpt>
      <trkpt lat="44.63968" lon="0.94305">
        <ele>249</ele>
        <time>2012-07-22T07:31:41Z</time>
      </trkpt>
      <trkpt lat="44.6396" lon="0.94269">
        <ele>247</ele>
        <time>2012-07-22T07:31:46Z</time>
      </trkpt>
      <trkpt lat="44.63969" lon="0.94238">
        <ele>247</ele>
        <time>2012-07-22T07:31:51Z</time>
      </trkpt>
      <trkpt lat="44.63979" lon="0.94202">
        <ele>246</ele>
        <time>2012-07-22T07:31:56Z</time>
      </trkpt>
      <trkpt lat="44.63985" lon="0.94175">
        <ele>246</ele>
        <time>2012-07-22T07:32:01Z</time>
      </trkpt>
      <trkpt lat="44.63986" lon="0.94155">
        <ele>245</ele>
        <time>2012-07-22T07:32:06Z</time>
      </trkpt>
      <trkpt lat="44.63985" lon="0.94125">
        <ele>245</ele>
        <time>2012-07-22T07:32:11Z</time>
      </trkpt>
      <trkpt lat="44.63973" lon="0.94104">
        <ele>245</ele>
        <time>2012-07-22T07:32:16Z</time>
      </trkpt>
      <trkpt lat="44.63967" lon="0.94072">
        <ele>246</ele>
        <time>2012-07-22T07:32:21Z</time>
      </trkpt>
      <trkpt lat="44.63963" lon="0.94043">
        <ele>251</ele>
        <time>2012-07-22T07:32:26Z</time>
      </trkpt>
      <trkpt lat="44.63958" lon="0.94013">
        <ele>251</ele>
        <time>2012-07-22T07:32:31Z</time>
      </trkpt>
      <trkpt lat="44.63953" lon="0.93983">
        <ele>251</ele>
        <time>2012-07-22T07:32:36Z</time>
      </trkpt>
      <trkpt lat="44.63961" lon="0.9396">
        <ele>251</ele>
        <time>2012-07-22T07:32:41Z</time>
      </trkpt>
      <trkpt lat="44.63971" lon="0.93936">
        <ele>251</ele>
        <time>2012-07-22T07:32:46Z</time>
      </trkpt>
      <trkpt lat="44.63975" lon="0.93917">
        <ele>250</ele>
        <time>2012-07-22T07:32:51Z</time>
      </trkpt>
      <trkpt lat="44.6397" lon="0.93893">
        <ele>250</ele>
        <time>2012-07-22T07:32:56Z</time>
      </trkpt>
      <trkpt lat="44.63966" lon="0.93866">
        <ele>248</ele>
        <time>2012-07-22T07:33:01Z</time>
      </trkpt>
      <trkpt lat="44.63953" lon="0.93833">
        <ele>247</ele>
        <time>2012-07-22T07:33:07Z</time>
      </trkpt>
      <trkpt lat="44.63942" lon="0.93804">
        <ele>247</ele>
        <time>2012-07-22T07:33:12Z</time>
      </trkpt>
      <trkpt lat="44.63929" lon="0.93785">
        <ele>247</ele>
        <time>2012-07-22T07:33:17Z</time>
      </trkpt>
      <trkpt lat="44.63925" lon="0.93794">
        <ele>247</ele>
        <time>2012-07-22T07:33:22Z</time>
      </trkpt>
      <trkpt lat="44.63907" lon="0.93811">
        <ele>250</ele>
        <time>2012-07-22T07:33:27Z</time>
      </trkpt>
      <trkpt lat="44.63888" lon="0.93789">
        <ele>255</ele>
        <time>2012-07-22T07:33:32Z</time>
      </trkpt>
      <trkpt lat="44.63873" lon="0.93752">
        <ele>259</ele>
        <time>2012-07-22T07:33:37Z</time>
      </trkpt>
      <trkpt lat="44.63857" lon="0.93724">
        <ele>259</ele>
        <time>2012-07-22T07:33:42Z</time>
      </trkpt>
      <trkpt lat="44.63843" lon="0.93701">
        <ele>260</ele>
        <time>2012-07-22T07:33:47Z</time>
      </trkpt>
      <trkpt lat="44.63827" lon="0.93705">
        <ele>263</ele>
        <time>2012-07-22T07:33:52Z</time>
      </trkpt>
      <trkpt lat="44.63807" lon="0.93695">
        <ele>265</ele>
        <time>2012-07-22T07:33:57Z</time>
      </trkpt>
      <trkpt lat="44.63801" lon="0.93664">
        <ele>265</ele>
        <time>2012-07-22T07:34:02Z</time>
      </trkpt>
      <trkpt lat="44.63799" lon="0.93635">
        <ele>261</ele>
        <time>2012-07-22T07:34:07Z</time>
      </trkpt>
      <trkpt lat="44.63801" lon="0.93605">
        <ele>256</ele>
        <time>2012-07-22T07:34:12Z</time>
      </trkpt>
      <trkpt lat="44.63801" lon="0.93584">
        <ele>251</ele>
        <time>2012-07-22T07:34:17Z</time>
      </trkpt>
      <trkpt lat="44.63792" lon="0.93558">
        <ele>249</ele>
        <time>2012-07-22T07:34:22Z</time>
      </trkpt>
      <trkpt lat="44.63779" lon="0.93529">
        <ele>249</ele>
        <time>2012-07-22T07:34:27Z</time>
      </trkpt>
      <trkpt lat="44.63771" lon="0.93503">
        <ele>252</ele>
        <time>2012-07-22T07:34:32Z</time>
      </trkpt>
      <trkpt lat="44.63768" lon="0.93477">
        <ele>255</ele>
        <time>2012-07-22T07:34:37Z</time>
      </trkpt>
      <trkpt lat="44.63761" lon="0.93469">
        <ele>259</ele>
        <time>2012-07-22T07:34:42Z</time>
      </trkpt>
      <trkpt lat="44.63757" lon="0.93458">
        <ele>266</ele>
        <time>2012-07-22T07:34:47Z</time>
      </trkpt>
      <trkpt lat="44.63747" lon="0.93443">
        <ele>271</ele>
        <time>2012-07-22T07:34:52Z</time>
      </trkpt>
      <trkpt lat="44.63735" lon="0.93436">
        <ele>276</ele>
        <time>2012-07-22T07:34:57Z</time>
      </trkpt>
      <trkpt lat="44.6372" lon="0.93436">
        <ele>279</ele>
        <time>2012-07-22T07:35:02Z</time>
      </trkpt>
      <trkpt lat="44.63701" lon="0.93436">
        <ele>284</ele>
        <time>2012-07-22T07:35:07Z</time>
      </trkpt>
      <trkpt lat="44.63685" lon="0.93432">
        <ele>289</ele>
        <time>2012-07-22T07:35:12Z</time>
      </trkpt>
      <trkpt lat="44.63679" lon="0.93428">
        <ele>290</ele>
        <time>2012-07-22T07:35:17Z</time>
      </trkpt>
      <trkpt lat="44.63665" lon="0.93418">
        <ele>290</ele>
        <time>2012-07-22T07:35:22Z</time>
      </trkpt>
      <trkpt lat="44.63652" lon="0.93413">
        <ele>286</ele>
        <time>2012-07-22T07:35:27Z</time>
      </trkpt>
      <trkpt lat="44.63633" lon="0.93407">
        <ele>283</ele>
        <time>2012-07-22T07:35:32Z</time>
      </trkpt>
      <trkpt lat="44.63617" lon="0.93423">
        <ele>283</ele>
        <time>2012-07-22T07:35:37Z</time>
      </trkpt>
      <trkpt lat="44.63591" lon="0.93444">
        <ele>283</ele>
        <time>2012-07-22T07:35:42Z</time>
      </trkpt>
      <trkpt lat="44.63565" lon="0.93455">
        <ele>283</ele>
        <time>2012-07-22T07:35:47Z</time>
      </trkpt>
      <trkpt lat="44.63532" lon="0.93462">
        <ele>283</ele>
        <time>2012-07-22T07:35:52Z</time>
      </trkpt>
      <trkpt lat="44.63506" lon="0.93465">
        <ele>283</ele>
        <time>2012-07-22T07:35:57Z</time>
      </trkpt>
      <trkpt lat="44.63482" lon="0.93472">
        <ele>283</ele>
        <time>2012-07-22T07:36:02Z</time>
      </trkpt>
      <trkpt lat="44.63456" lon="0.93479">
        <ele>281</ele>
        <time>2012-07-22T07:36:07Z</time>
      </trkpt>
      <trkpt lat="44.6343" lon="0.93473">
        <ele>276</ele>
        <time>2012-07-22T07:36:12Z</time>
      </trkpt>
      <trkpt lat="44.63408" lon="0.93477">
        <ele>271</ele>
        <time>2012-07-22T07:36:17Z</time>
      </trkpt>
      <trkpt lat="44.63383" lon="0.93481">
        <ele>271</ele>
        <time>2012-07-22T07:36:22Z</time>
      </trkpt>
      <trkpt lat="44.63359" lon="0.93453">
        <ele>271</ele>
        <time>2012-07-22T07:36:27Z</time>
      </trkpt>
      <trkpt lat="44.63314" lon="0.93421">
        <ele>270</ele>
        <time>2012-07-22T07:36:32Z</time>
      </trkpt>
      <trkpt lat="44.63293" lon="0.9338">
        <ele>266</ele>
        <time>2012-07-22T07:36:37Z</time>
      </trkpt>
      <trkpt lat="44.63274" lon="0.93335">
        <ele>257</ele>
        <time>2012-07-22T07:36:42Z</time>
      </trkpt>
      <trkpt lat="44.63258" lon="0.93281">
        <ele>248</ele>
        <time>2012-07-22T07:36:47Z</time>
      </trkpt>
      <trkpt lat="44.63228" lon="0.93268">
        <ele>243</ele>
        <time>2012-07-22T07:36:52Z</time>
      </trkpt>
      <trkpt lat="44.63198" lon="0.93256">
        <ele>238</ele>
        <time>2012-07-22T07:36:57Z</time>
      </trkpt>
      <trkpt lat="44.63164" lon="0.93249">
        <ele>234</ele>
        <time>2012-07-22T07:37:02Z</time>
      </trkpt>
      <trkpt lat="44.63131" lon="0.93253">
        <ele>232</ele>
        <time>2012-07-22T07:37:07Z</time>
      </trkpt>
      <trkpt lat="44.631" lon="0.93274">
        <ele>231</ele>
        <time>2012-07-22T07:37:12Z</time>
      </trkpt>
      <trkpt lat="44.63068" lon="0.9329">
        <ele>231</ele>
        <time>2012-07-22T07:37:17Z</time>
      </trkpt>
      <trkpt lat="44.63033" lon="0.93288">
        <ele>231</ele>
        <time>2012-07-22T07:37:22Z</time>
      </trkpt>
      <trkpt lat="44.62999" lon="0.93287">
        <ele>231</ele>
        <time>2012-07-22T07:37:27Z</time>
      </trkpt>
      <trkpt lat="44.62963" lon="0.93295">
        <ele>232</ele>
        <time>2012-07-22T07:37:32Z</time>
      </trkpt>
      <trkpt lat="44.62927" lon="0.93302">
        <ele>236</ele>
        <time>2012-07-22T07:37:37Z</time>
      </trkpt>
      <trkpt lat="44.6289" lon="0.93309">
        <ele>238</ele>
        <time>2012-07-22T07:37:42Z</time>
      </trkpt>
      <trkpt lat="44.62854" lon="0.9332">
        <ele>238</ele>
        <time>2012-07-22T07:37:47Z</time>
      </trkpt>
      <trkpt lat="44.62818" lon="0.93334">
        <ele>238</ele>
        <time>2012-07-22T07:37:52Z</time>
      </trkpt>
      <trkpt lat="44.62775" lon="0.93351">
        <ele>238</ele>
        <time>2012-07-22T07:37:57Z</time>
      </trkpt>
      <trkpt lat="44.62728" lon="0.93388">
        <ele>238</ele>
        <time>2012-07-22T07:38:02Z</time>
      </trkpt>
      <trkpt lat="44.62681" lon="0.93417">
        <ele>234</ele>
        <time>2012-07-22T07:38:07Z</time>
      </trkpt>
      <trkpt lat="44.62633" lon="0.93396">
        <ele>229</ele>
        <time>2012-07-22T07:38:12Z</time>
      </trkpt>
      <trkpt lat="44.6261" lon="0.9334">
        <ele>224</ele>
        <time>2012-07-22T07:38:17Z</time>
      </trkpt>
      <trkpt lat="44.62591" lon="0.93284">
        <ele>219</ele>
        <time>2012-07-22T07:38:22Z</time>
      </trkpt>
      <trkpt lat="44.62554" lon="0.93238">
        <ele>214</ele>
        <time>2012-07-22T07:38:27Z</time>
      </trkpt>
      <trkpt lat="44.6252" lon="0.93195">
        <ele>213</ele>
        <time>2012-07-22T07:38:32Z</time>
      </trkpt>
      <trkpt lat="44.62501" lon="0.93151">
        <ele>209</ele>
        <time>2012-07-22T07:38:37Z</time>
      </trkpt>
      <trkpt lat="44.62488" lon="0.93106">
        <ele>207</ele>
        <time>2012-07-22T07:38:42Z</time>
      </trkpt>
      <trkpt lat="44.6246" lon="0.93063">
        <ele>206</ele>
        <time>2012-07-22T07:38:47Z</time>
      </trkpt>
      <trkpt lat="44.62436" lon="0.93035">
        <ele>206</ele>
        <time>2012-07-22T07:38:52Z</time>
      </trkpt>
      <trkpt lat="44.62414" lon="0.92998">
        <ele>206</ele>
        <time>2012-07-22T07:38:57Z</time>
      </trkpt>
      <trkpt lat="44.62394" lon="0.9296">
        <ele>207</ele>
        <time>2012-07-22T07:39:02Z</time>
      </trkpt>
      <trkpt lat="44.62378" lon="0.92924">
        <ele>208</ele>
        <time>2012-07-22T07:39:07Z</time>
      </trkpt>
      <trkpt lat="44.62363" lon="0.92888">
        <ele>208</ele>
        <time>2012-07-22T07:39:12Z</time>
      </trkpt>
      <trkpt lat="44.62348" lon="0.92851">
        <ele>208</ele>
        <time>2012-07-22T07:39:17Z</time>
      </trkpt>
      <trkpt lat="44.62343" lon="0.92826">
        <ele>208</ele>
        <time>2012-07-22T07:39:22Z</time>
      </trkpt>
      <trkpt lat="44.62342" lon="0.92803">
        <ele>208</ele>
        <time>2012-07-22T07:39:27Z</time>
      </trkpt>
      <trkpt lat="44.62341" lon="0.92781">
        <ele>208</ele>
        <time>2012-07-22T07:39:32Z</time>
      </trkpt>
      <trkpt lat="44.62338" lon="0.92762">
        <ele>211</ele>
        <time>2012-07-22T07:39:37Z</time>
      </trkpt>
      <trkpt lat="44.62334" lon="0.92741">
        <ele>215</ele>
        <time>2012-07-22T07:39:42Z</time>
      </trkpt>
      <trkpt lat="44.62334" lon="0.92724">
        <ele>217</ele>
        <time>2012-07-22T07:39:47Z</time>
      </trkpt>
      <trkpt lat="44.62332" lon="0.92707">
        <ele>219</ele>
        <time>2012-07-22T07:39:52Z</time>
      </trkpt>
      <trkpt lat="44.62324" lon="0.92687">
        <ele>219</ele>
        <time>2012-07-22T07:39:58Z</time>
      </trkpt>
      <trkpt lat="44.62307" lon="0.92661">
        <ele>219</ele>
        <time>2012-07-22T07:40:03Z</time>
      </trkpt>
      <trkpt lat="44.62291" lon="0.92638">
        <ele>216</ele>
        <time>2012-07-22T07:40:08Z</time>
      </trkpt>
      <trkpt lat="44.62275" lon="0.92611">
        <ele>216</ele>
        <time>2012-07-22T07:40:13Z</time>
      </trkpt>
      <trkpt lat="44.62266" lon="0.92594">
        <ele>216</ele>
        <time>2012-07-22T07:40:18Z</time>
      </trkpt>
      <trkpt lat="44.62262" lon="0.92588">
        <ele>216</ele>
        <time>2012-07-22T07:40:23Z</time>
      </trkpt>
      <trkpt lat="44.62267" lon="0.92589">
        <ele>223</ele>
        <time>2012-07-22T07:40:30Z</time>
      </trkpt>
      <trkpt lat="44.6227" lon="0.9259">
        <ele>236</ele>
        <time>2012-07-22T07:40:46Z</time>
      </trkpt>
      <trkpt lat="44.62272" lon="0.9259">
        <ele>239</ele>
        <time>2012-07-22T07:40:52Z</time>
      </trkpt>
      <trkpt lat="44.62278" lon="0.92589">
        <ele>241</ele>
        <time>2012-07-22T07:40:57Z</time>
      </trkpt>
      <trkpt lat="44.62282" lon="0.92586">
        <ele>259</ele>
        <time>2012-07-22T07:41:19Z</time>
      </trkpt>
      <trkpt lat="44.62283" lon="0.92585">
        <ele>264</ele>
        <time>2012-07-22T07:41:24Z</time>
      </trkpt>
      <trkpt lat="44.62284" lon="0.92586">
        <ele>271</ele>
        <time>2012-07-22T07:41:31Z</time>
      </trkpt>
      <trkpt lat="44.62291" lon="0.92585">
        <ele>278</ele>
        <time>2012-07-22T07:41:37Z</time>
      </trkpt>
      <trkpt lat="44.62294" lon="0.92585">
        <ele>283</ele>
        <time>2012-07-22T07:41:42Z</time>
      </trkpt>
      <trkpt lat="44.62296" lon="0.92584">
        <ele>290</ele>
        <time>2012-07-22T07:41:51Z</time>
      </trkpt>
      <trkpt lat="44.62296" lon="0.92583">
        <ele>291</ele>
        <time>2012-07-22T07:42:17Z</time>
      </trkpt>
      <trkpt lat="44.62297" lon="0.92581">
        <ele>291</ele>
        <time>2012-07-22T07:42:31Z</time>
      </trkpt>
      <trkpt lat="44.62294" lon="0.92581">
        <ele>289</ele>
        <time>2012-07-22T07:42:39Z</time>
      </trkpt>
      <trkpt lat="44.62286" lon="0.92583">
        <ele>285</ele>
        <time>2012-07-22T07:42:44Z</time>
      </trkpt>
      <trkpt lat="44.62285" lon="0.92582">
        <ele>278</ele>
        <time>2012-07-22T07:42:52Z</time>
      </trkpt>
      <trkpt lat="44.62288" lon="0.92581">
        <ele>278</ele>
        <time>2012-07-22T07:42:59Z</time>
      </trkpt>
      <trkpt lat="44.62289" lon="0.92581">
        <ele>278</ele>
        <time>2012-07-22T07:43:09Z</time>
      </trkpt>
      <trkpt lat="44.62284" lon="0.92581">
        <ele>278</ele>
        <time>2012-07-22T07:43:14Z</time>
      </trkpt>
      <trkpt lat="44.62281" lon="0.92582">
        <ele>281</ele>
        <time>2012-07-22T07:43:19Z</time>
      </trkpt>
      <trkpt lat="44.62281" lon="0.92581">
        <ele>285</ele>
        <time>2012-07-22T07:43:25Z</time>
      </trkpt>
      <trkpt lat="44.62284" lon="0.92579">
        <ele>285</ele>
        <time>2012-07-22T07:43:30Z</time>
      </trkpt>
      <trkpt lat="44.62286" lon="0.92576">
        <ele>281</ele>
        <time>2012-07-22T07:43:35Z</time>
      </trkpt>
      <trkpt lat="44.62292" lon="0.9257">
        <ele>270</ele>
        <time>2012-07-22T07:43:42Z</time>
      </trkpt>
      <trkpt lat="44.62292" lon="0.92569">
        <ele>260</ele>
        <time>2012-07-22T07:43:47Z</time>
      </trkpt>
      <trkpt lat="44.6229" lon="0.9257">
        <ele>255</ele>
        <time>2012-07-22T07:43:52Z</time>
      </trkpt>
      <trkpt lat="44.62287" lon="0.92571">
        <ele>253</ele>
        <time>2012-07-22T07:43:58Z</time>
      </trkpt>
      <trkpt lat="44.62289" lon="0.92571">
        <ele>253</ele>
        <time>2012-07-22T07:44:04Z</time>
      </trkpt>
      <trkpt lat="44.62289" lon="0.92572">
        <ele>254</ele>
        <time>2012-07-22T07:44:13Z</time>
      </trkpt>
      <trkpt lat="44.62284" lon="0.92574">
        <ele>254</ele>
        <time>2012-07-22T07:44:19Z</time>
      </trkpt>
      <trkpt lat="44.62282" lon="0.92574">
        <ele>254</ele>
        <time>2012-07-22T07:44:24Z</time>
      </trkpt>
      <trkpt lat="44.6228" lon="0.92575">
        <ele>254</ele>
        <time>2012-07-22T07:44:38Z</time>
      </trkpt>
      <trkpt lat="44.62279" lon="0.92576">
        <ele>254</ele>
        <time>2012-07-22T07:44:48Z</time>
      </trkpt>
      <trkpt lat="44.62278" lon="0.92577">
        <ele>254</ele>
        <time>2012-07-22T07:44:58Z</time>
      </trkpt>
      <trkpt lat="44.62276" lon="0.92577">
        <ele>254</ele>
        <time>2012-07-22T07:45:03Z</time>
      </trkpt>
      <trkpt lat="44.62272" lon="0.92579">
        <ele>254</ele>
        <time>2012-07-22T07:45:10Z</time>
      </trkpt>
      <trkpt lat="44.62272" lon="0.9258">
        <ele>252</ele>
        <time>2012-07-22T07:45:19Z</time>
      </trkpt>
      <trkpt lat="44.62271" lon="0.92581">
        <ele>250</ele>
        <time>2012-07-22T07:45:27Z</time>
      </trkpt>
      <trkpt lat="44.62272" lon="0.92583">
        <ele>250</ele>
        <time>2012-07-22T07:45:42Z</time>
      </trkpt>
      <trkpt lat="44.62275" lon="0.92581">
        <ele>250</ele>
        <time>2012-07-22T07:45:48Z</time>
      </trkpt>
      <trkpt lat="44.62278" lon="0.92579">
        <ele>250</ele>
        <time>2012-07-22T07:45:55Z</time>
      </trkpt>
      <trkpt lat="44.62281" lon="0.92579">
        <ele>250</ele>
        <time>2012-07-22T07:46:01Z</time>
      </trkpt>
      <trkpt lat="44.62281" lon="0.92578">
        <ele>250</ele>
        <time>2012-07-22T07:46:06Z</time>
      </trkpt>
      <trkpt lat="44.62278" lon="0.92578">
        <ele>249</ele>
        <time>2012-07-22T07:46:11Z</time>
      </trkpt>
      <trkpt lat="44.62278" lon="0.92576">
        <ele>243</ele>
        <time>2012-07-22T07:46:18Z</time>
      </trkpt>
      <trkpt lat="44.62277" lon="0.92575">
        <ele>240</ele>
        <time>2012-07-22T07:46:27Z</time>
      </trkpt>
      <trkpt lat="44.62274" lon="0.92577">
        <ele>240</ele>
        <time>2012-07-22T07:46:35Z</time>
      </trkpt>
      <trkpt lat="44.62272" lon="0.9258">
        <ele>245</ele>
        <time>2012-07-22T07:46:43Z</time>
      </trkpt>
      <trkpt lat="44.62271" lon="0.92582">
        <ele>249</ele>
        <time>2012-07-22T07:46:48Z</time>
      </trkpt>
      <trkpt lat="44.6227" lon="0.92584">
        <ele>252</ele>
        <time>2012-07-22T07:46:57Z</time>
      </trkpt>
      <trkpt lat="44.62268" lon="0.92585">
        <ele>254</ele>
        <time>2012-07-22T07:47:03Z</time>
      </trkpt>
      <trkpt lat="44.6227" lon="0.92586">
        <ele>257</ele>
        <time>2012-07-22T07:47:21Z</time>
      </trkpt>
      <trkpt lat="44.62271" lon="0.92586">
        <ele>257</ele>
        <time>2012-07-22T07:47:26Z</time>
      </trkpt>
      <trkpt lat="44.62275" lon="0.92585">
        <ele>258</ele>
        <time>2012-07-22T07:47:34Z</time>
      </trkpt>
      <trkpt lat="44.62277" lon="0.92584">
        <ele>258</ele>
        <time>2012-07-22T07:47:42Z</time>
      </trkpt>
      <trkpt lat="44.6228" lon="0.92581">
        <ele>259</ele>
        <time>2012-07-22T07:47:50Z</time>
      </trkpt>
      <trkpt lat="44.62281" lon="0.9258">
        <ele>262</ele>
        <time>2012-07-22T07:47:57Z</time>
      </trkpt>
      <trkpt lat="44.62281" lon="0.92582">
        <ele>264</ele>
        <time>2012-07-22T07:48:07Z</time>
      </trkpt>
      <trkpt lat="44.6228" lon="0.92583">
        <ele>264</ele>
        <time>2012-07-22T07:48:14Z</time>
      </trkpt>
      <trkpt lat="44.62281" lon="0.92584">
        <ele>267</ele>
        <time>2012-07-22T07:48:23Z</time>
      </trkpt>
      <trkpt lat="44.62278" lon="0.92583">
        <ele>269</ele>
        <time>2012-07-22T07:48:29Z</time>
      </trkpt>
      <trkpt lat="44.62277" lon="0.92583">
        <ele>269</ele>
        <time>2012-07-22T07:48:34Z</time>
      </trkpt>
      <trkpt lat="44.62273" lon="0.92584">
        <ele>269</ele>
        <time>2012-07-22T07:48:40Z</time>
      </trkpt>
      <trkpt lat="44.6227" lon="0.92585">
        <ele>269</ele>
        <time>2012-07-22T07:48:45Z</time>
      </trkpt>
      <trkpt lat="44.62269" lon="0.92586">
        <ele>269</ele>
        <time>2012-07-22T07:48:50Z</time>
      </trkpt>
      <trkpt lat="44.62268" lon="0.92585">
        <ele>267</ele>
        <time>2012-07-22T07:48:56Z</time>
      </trkpt>
      <trkpt lat="44.6227" lon="0.92582">
        <ele>267</ele>
        <time>2012-07-22T07:49:03Z</time>
      </trkpt>
      <trkpt lat="44.62271" lon="0.92578">
        <ele>267</ele>
        <time>2012-07-22T07:49:08Z</time>
      </trkpt>
      <trkpt lat="44.62271" lon="0.92574">
        <ele>261</ele>
        <time>2012-07-22T07:49:14Z</time>
      </trkpt>
      <trkpt lat="44.62272" lon="0.92576">
        <ele>254</ele>
        <time>2012-07-22T07:49:24Z</time>
      </trkpt>
      <trkpt lat="44.62269" lon="0.92578">
        <ele>247</ele>
        <time>2012-07-22T07:49:30Z</time>
      </trkpt>
      <trkpt lat="44.62267" lon="0.92581">
        <ele>246</ele>
        <time>2012-07-22T07:49:37Z</time>
      </trkpt>
      <trkpt lat="44.62265" lon="0.92584">
        <ele>243</ele>
        <time>2012-07-22T07:49:42Z</time>
      </trkpt>
      <trkpt lat="44.62266" lon="0.92587">
        <ele>241</ele>
        <time>2012-07-22T07:49:47Z</time>
      </trkpt>
      <trkpt lat="44.62272" lon="0.92587">
        <ele>239</ele>
        <time>2012-07-22T07:49:52Z</time>
      </trkpt>
      <trkpt lat="44.62277" lon="0.92586">
        <ele>239</ele>
        <time>2012-07-22T07:49:58Z</time>
      </trkpt>
      <trkpt lat="44.62276" lon="0.92582">
        <ele>239</ele>
        <time>2012-07-22T07:50:03Z</time>
      </trkpt>
      <trkpt lat="44.62277" lon="0.9258">
        <ele>239</ele>
        <time>2012-07-22T07:50:10Z</time>
      </trkpt>
      <trkpt lat="44.62276" lon="0.92578">
        <ele>239</ele>
        <time>2012-07-22T07:50:15Z</time>
      </trkpt>
      <trkpt lat="44.62275" lon="0.92574">
        <ele>239</ele>
        <time>2012-07-22T07:50:21Z</time>
      </trkpt>
      <trkpt lat="44.6227" lon="0.92576">
        <ele>239</ele>
        <time>2012-07-22T07:50:26Z</time>
      </trkpt>
      <trkpt lat="44.62267" lon="0.92564">
        <ele>239</ele>
        <time>2012-07-22T07:50:31Z</time>
      </trkpt>
      <trkpt lat="44.62268" lon="0.92548">
        <ele>239</ele>
        <time>2012-07-22T07:50:36Z</time>
      </trkpt>
      <trkpt lat="44.62273" lon="0.9253">
        <ele>239</ele>
        <time>2012-07-22T07:50:41Z</time>
      </trkpt>
      <trkpt lat="44.62282" lon="0.92502">
        <ele>239</ele>
        <time>2012-07-22T07:50:46Z</time>
      </trkpt>
      <trkpt lat="44.62288" lon="0.92474">
        <ele>239</ele>
        <time>2012-07-22T07:50:51Z</time>
      </trkpt>
      <trkpt lat="44.62294" lon="0.92439">
        <ele>237</ele>
        <time>2012-07-22T07:50:56Z</time>
      </trkpt>
      <trkpt lat="44.62298" lon="0.92403">
        <ele>233</ele>
        <time>2012-07-22T07:51:01Z</time>
      </trkpt>
      <trkpt lat="44.62305" lon="0.92364">
        <ele>233</ele>
        <time>2012-07-22T07:51:06Z</time>
      </trkpt>
      <trkpt lat="44.62307" lon="0.92329">
        <ele>230</ele>
        <time>2012-07-22T07:51:11Z</time>
      </trkpt>
      <trkpt lat="44.62315" lon="0.923">
        <ele>225</ele>
        <time>2012-07-22T07:51:16Z</time>
      </trkpt>
      <trkpt lat="44.62336" lon="0.92271">
        <ele>224</ele>
        <time>2012-07-22T07:51:21Z</time>
      </trkpt>
      <trkpt lat="44.62351" lon="0.9224">
        <ele>223</ele>
        <time>2012-07-22T07:51:26Z</time>
      </trkpt>
      <trkpt lat="44.62356" lon="0.92214">
        <ele>226</ele>
        <time>2012-07-22T07:51:31Z</time>
      </trkpt>
      <trkpt lat="44.62362" lon="0.9219">
        <ele>231</ele>
        <time>2012-07-22T07:51:36Z</time>
      </trkpt>
      <trkpt lat="44.62369" lon="0.92164">
        <ele>233</ele>
        <time>2012-07-22T07:51:41Z</time>
      </trkpt>
      <trkpt lat="44.62369" lon="0.92138">
        <ele>233</ele>
        <time>2012-07-22T07:51:46Z</time>
      </trkpt>
      <trkpt lat="44.62371" lon="0.92109">
        <ele>233</ele>
        <time>2012-07-22T07:51:51Z</time>
      </trkpt>
      <trkpt lat="44.62371" lon="0.92062">
        <ele>230</ele>
        <time>2012-07-22T07:51:56Z</time>
      </trkpt>
      <trkpt lat="44.62378" lon="0.91996">
        <ele>225</ele>
        <time>2012-07-22T07:52:01Z</time>
      </trkpt>
      <trkpt lat="44.62387" lon="0.91952">
        <ele>221</ele>
        <time>2012-07-22T07:52:06Z</time>
      </trkpt>
      <trkpt lat="44.62389" lon="0.91916">
        <ele>221</ele>
        <time>2012-07-22T07:52:11Z</time>
      </trkpt>
      <trkpt lat="44.62397" lon="0.91884">
        <ele>221</ele>
        <time>2012-07-22T07:52:16Z</time>
      </trkpt>
      <trkpt lat="44.62406" lon="0.91859">
        <ele>221</ele>
        <time>2012-07-22T07:52:21Z</time>
      </trkpt>
      <trkpt lat="44.62409" lon="0.91841">
        <ele>221</ele>
        <time>2012-07-22T07:52:26Z</time>
      </trkpt>
      <trkpt lat="44.62411" lon="0.91828">
        <ele>221</ele>
        <time>2012-07-22T07:52:31Z</time>
      </trkpt>
      <trkpt lat="44.62413" lon="0.91818">
        <ele>224</ele>
        <time>2012-07-22T07:52:36Z</time>
      </trkpt>
      <trkpt lat="44.62418" lon="0.91801">
        <ele>227</ele>
        <time>2012-07-22T07:52:41Z</time>
      </trkpt>
      <trkpt lat="44.62421" lon="0.91784">
        <ele>228</ele>
        <time>2012-07-22T07:52:46Z</time>
      </trkpt>
      <trkpt lat="44.62421" lon="0.91764">
        <ele>228</ele>
        <time>2012-07-22T07:52:51Z</time>
      </trkpt>
      <trkpt lat="44.62426" lon="0.91743">
        <ele>228</ele>
        <time>2012-07-22T07:52:56Z</time>
      </trkpt>
      <trkpt lat="44.62434" lon="0.91709">
        <ele>228</ele>
        <time>2012-07-22T07:53:01Z</time>
      </trkpt>
      <trkpt lat="44.62431" lon="0.91657">
        <ele>223</ele>
        <time>2012-07-22T07:53:06Z</time>
      </trkpt>
      <trkpt lat="44.62428" lon="0.91623">
        <ele>221</ele>
        <time>2012-07-22T07:53:11Z</time>
      </trkpt>
      <trkpt lat="44.62439" lon="0.91598">
        <ele>221</ele>
        <time>2012-07-22T07:53:16Z</time>
      </trkpt>
      <trkpt lat="44.62452" lon="0.91576">
        <ele>221</ele>
        <time>2012-07-22T07:53:22Z</time>
      </trkpt>
      <trkpt lat="44.62461" lon="0.91556">
        <ele>221</ele>
        <time>2012-07-22T07:53:27Z</time>
      </trkpt>
      <trkpt lat="44.62473" lon="0.91544">
        <ele>221</ele>
        <time>2012-07-22T07:53:32Z</time>
      </trkpt>
      <trkpt lat="44.62482" lon="0.91526">
        <ele>222</ele>
        <time>2012-07-22T07:53:37Z</time>
      </trkpt>
      <trkpt lat="44.62482" lon="0.91502">
        <ele>223</ele>
        <time>2012-07-22T07:53:42Z</time>
      </trkpt>
      <trkpt lat="44.62478" lon="0.91478">
        <ele>225</ele>
        <time>2012-07-22T07:53:47Z</time>
      </trkpt>
      <trkpt lat="44.62468" lon="0.91445">
        <ele>227</ele>
        <time>2012-07-22T07:53:53Z</time>
      </trkpt>
      <trkpt lat="44.62455" lon="0.91417">
        <ele>229</ele>
        <time>2012-07-22T07:53:58Z</time>
      </trkpt>
      <trkpt lat="44.6244" lon="0.91379">
        <ele>234</ele>
        <time>2012-07-22T07:54:04Z</time>
      </trkpt>
      <trkpt lat="44.62429" lon="0.91343">
        <ele>235</ele>
        <time>2012-07-22T07:54:09Z</time>
      </trkpt>
      <trkpt lat="44.62405" lon="0.91297">
        <ele>235</ele>
        <time>2012-07-22T07:54:14Z</time>
      </trkpt>
      <trkpt lat="44.62389" lon="0.91255">
        <ele>235</ele>
        <time>2012-07-22T07:54:19Z</time>
      </trkpt>
      <trkpt lat="44.62371" lon="0.91217">
        <ele>230</ele>
        <time>2012-07-22T07:54:24Z</time>
      </trkpt>
      <trkpt lat="44.62347" lon="0.9118">
        <ele>225</ele>
        <time>2012-07-22T07:54:29Z</time>
      </trkpt>
      <trkpt lat="44.62324" lon="0.91147">
        <ele>220</ele>
        <time>2012-07-22T07:54:34Z</time>
      </trkpt>
      <trkpt lat="44.62304" lon="0.91119">
        <ele>219</ele>
        <time>2012-07-22T07:54:39Z</time>
      </trkpt>
      <trkpt lat="44.62285" lon="0.91093">
        <ele>219</ele>
        <time>2012-07-22T07:54:44Z</time>
      </trkpt>
      <trkpt lat="44.62271" lon="0.91073">
        <ele>221</ele>
        <time>2012-07-22T07:54:49Z</time>
      </trkpt>
      <trkpt lat="44.62261" lon="0.91053">
        <ele>222</ele>
        <time>2012-07-22T07:54:54Z</time>
      </trkpt>
      <trkpt lat="44.6225" lon="0.91024">
        <ele>222</ele>
        <time>2012-07-22T07:54:59Z</time>
      </trkpt>
      <trkpt lat="44.62237" lon="0.9099">
        <ele>222</ele>
        <time>2012-07-22T07:55:04Z</time>
      </trkpt>
      <trkpt lat="44.62229" lon="0.90957">
        <ele>222</ele>
        <time>2012-07-22T07:55:09Z</time>
      </trkpt>
      <trkpt lat="44.62222" lon="0.90927">
        <ele>223</ele>
        <time>2012-07-22T07:55:14Z</time>
      </trkpt>
      <trkpt lat="44.62217" lon="0.90894">
        <ele>228</ele>
        <time>2012-07-22T07:55:19Z</time>
      </trkpt>
      <trkpt lat="44.62213" lon="0.90862">
        <ele>231</ele>
        <time>2012-07-22T07:55:24Z</time>
      </trkpt>
      <trkpt lat="44.62207" lon="0.90826">
        <ele>235</ele>
        <time>2012-07-22T07:55:29Z</time>
      </trkpt>
      <trkpt lat="44.62201" lon="0.9079">
        <ele>236</ele>
        <time>2012-07-22T07:55:34Z</time>
      </trkpt>
      <trkpt lat="44.62188" lon="0.90755">
        <ele>236</ele>
        <time>2012-07-22T07:55:39Z</time>
      </trkpt>
      <trkpt lat="44.62177" lon="0.90716">
        <ele>235</ele>
        <time>2012-07-22T07:55:44Z</time>
      </trkpt>
      <trkpt lat="44.62173" lon="0.90674">
        <ele>230</ele>
        <time>2012-07-22T07:55:49Z</time>
      </trkpt>
      <trkpt lat="44.62165" lon="0.90629">
        <ele>228</ele>
        <time>2012-07-22T07:55:54Z</time>
      </trkpt>
      <trkpt lat="44.62139" lon="0.90583">
        <ele>224</ele>
        <time>2012-07-22T07:55:59Z</time>
      </trkpt>
      <trkpt lat="44.62103" lon="0.90534">
        <ele>223</ele>
        <time>2012-07-22T07:56:04Z</time>
      </trkpt>
      <trkpt lat="44.62076" lon="0.90483">
        <ele>218</ele>
        <time>2012-07-22T07:56:09Z</time>
      </trkpt>
      <trkpt lat="44.62041" lon="0.90449">
        <ele>213</ele>
        <time>2012-07-22T07:56:14Z</time>
      </trkpt>
      <trkpt lat="44.62006" lon="0.9042">
        <ele>211</ele>
        <time>2012-07-22T07:56:19Z</time>
      </trkpt>
      <trkpt lat="44.61981" lon="0.90383">
        <ele>209</ele>
        <time>2012-07-22T07:56:24Z</time>
      </trkpt>
      <trkpt lat="44.61953" lon="0.90354">
        <ele>208</ele>
        <time>2012-07-22T07:56:29Z</time>
      </trkpt>
      <trkpt lat="44.61927" lon="0.9034">
        <ele>207</ele>
        <time>2012-07-22T07:56:34Z</time>
      </trkpt>
      <trkpt lat="44.61895" lon="0.90316">
        <ele>205</ele>
        <time>2012-07-22T07:56:39Z</time>
      </trkpt>
      <trkpt lat="44.61863" lon="0.90291">
        <ele>203</ele>
        <time>2012-07-22T07:56:44Z</time>
      </trkpt>
      <trkpt lat="44.61834" lon="0.90251">
        <ele>201</ele>
        <time>2012-07-22T07:56:49Z</time>
      </trkpt>
      <trkpt lat="44.61814" lon="0.90204">
        <ele>200</ele>
        <time>2012-07-22T07:56:54Z</time>
      </trkpt>
      <trkpt lat="44.61792" lon="0.90156">
        <ele>198</ele>
        <time>2012-07-22T07:56:59Z</time>
      </trkpt>
      <trkpt lat="44.61766" lon="0.90105">
        <ele>196</ele>
        <time>2012-07-22T07:57:04Z</time>
      </trkpt>
      <trkpt lat="44.61747" lon="0.90065">
        <ele>195</ele>
        <time>2012-07-22T07:57:09Z</time>
      </trkpt>
      <trkpt lat="44.61735" lon="0.90039">
        <ele>195</ele>
        <time>2012-07-22T07:57:14Z</time>
      </trkpt>
      <trkpt lat="44.6172" lon="0.90036">
        <ele>192</ele>
        <time>2012-07-22T07:57:19Z</time>
      </trkpt>
      <trkpt lat="44.617" lon="0.90042">
        <ele>192</ele>
        <time>2012-07-22T07:57:24Z</time>
      </trkpt>
      <trkpt lat="44.61677" lon="0.90047">
        <ele>192</ele>
        <time>2012-07-22T07:57:29Z</time>
      </trkpt>
      <trkpt lat="44.61652" lon="0.90052">
        <ele>192</ele>
        <time>2012-07-22T07:57:34Z</time>
      </trkpt>
      <trkpt lat="44.61628" lon="0.90057">
        <ele>192</ele>
        <time>2012-07-22T07:57:39Z</time>
      </trkpt>
      <trkpt lat="44.61608" lon="0.90058">
        <ele>193</ele>
        <time>2012-07-22T07:57:44Z</time>
      </trkpt>
      <trkpt lat="44.61594" lon="0.9006">
        <ele>194</ele>
        <time>2012-07-22T07:57:49Z</time>
      </trkpt>
      <trkpt lat="44.61572" lon="0.90061">
        <ele>194</ele>
        <time>2012-07-22T07:57:54Z</time>
      </trkpt>
      <trkpt lat="44.61554" lon="0.90064">
        <ele>195</ele>
        <time>2012-07-22T07:57:59Z</time>
      </trkpt>
      <trkpt lat="44.61537" lon="0.90068">
        <ele>196</ele>
        <time>2012-07-22T07:58:04Z</time>
      </trkpt>
      <trkpt lat="44.61511" lon="0.9007">
        <ele>201</ele>
        <time>2012-07-22T07:58:09Z</time>
      </trkpt>
      <trkpt lat="44.61491" lon="0.90074">
        <ele>203</ele>
        <time>2012-07-22T07:58:14Z</time>
      </trkpt>
      <trkpt lat="44.61467" lon="0.90076">
        <ele>208</ele>
        <time>2012-07-22T07:58:19Z</time>
      </trkpt>
      <trkpt lat="44.61442" lon="0.90079">
        <ele>211</ele>
        <time>2012-07-22T07:58:24Z</time>
      </trkpt>
      <trkpt lat="44.61419" lon="0.90086">
        <ele>212</ele>
        <time>2012-07-22T07:58:29Z</time>
      </trkpt>
      <trkpt lat="44.61431" lon="0.90109">
        <ele>212</ele>
        <time>2012-07-22T07:58:35Z</time>
      </trkpt>
      <trkpt lat="44.61445" lon="0.90127">
        <ele>212</ele>
        <time>2012-07-22T07:58:40Z</time>
      </trkpt>
      <trkpt lat="44.61459" lon="0.90146">
        <ele>212</ele>
        <time>2012-07-22T07:58:45Z</time>
      </trkpt>
      <trkpt lat="44.61474" lon="0.90169">
        <ele>212</ele>
        <time>2012-07-22T07:58:50Z</time>
      </trkpt>
      <trkpt lat="44.6149" lon="0.90194">
        <ele>212</ele>
        <time>2012-07-22T07:58:55Z</time>
      </trkpt>
      <trkpt lat="44.61504" lon="0.90222">
        <ele>213</ele>
        <time>2012-07-22T07:59:00Z</time>
      </trkpt>
      <trkpt lat="44.61518" lon="0.90249">
        <ele>217</ele>
        <time>2012-07-22T07:59:05Z</time>
      </trkpt>
      <trkpt lat="44.61525" lon="0.90272">
        <ele>221</ele>
        <time>2012-07-22T07:59:10Z</time>
      </trkpt>
      <trkpt lat="44.61536" lon="0.90301">
        <ele>222</ele>
        <time>2012-07-22T07:59:15Z</time>
      </trkpt>
      <trkpt lat="44.61534" lon="0.90324">
        <ele>223</ele>
        <time>2012-07-22T07:59:20Z</time>
      </trkpt>
      <trkpt lat="44.61514" lon="0.90328">
        <ele>223</ele>
        <time>2012-07-22T07:59:25Z</time>
      </trkpt>
      <trkpt lat="44.61486" lon="0.90329">
        <ele>219</ele>
        <time>2012-07-22T07:59:30Z</time>
      </trkpt>
      <trkpt lat="44.61457" lon="0.90344">
        <ele>215</ele>
        <time>2012-07-22T07:59:35Z</time>
      </trkpt>
      <trkpt lat="44.6143" lon="0.90364">
        <ele>213</ele>
        <time>2012-07-22T07:59:40Z</time>
      </trkpt>
      <trkpt lat="44.61407" lon="0.90385">
        <ele>213</ele>
        <time>2012-07-22T07:59:45Z</time>
      </trkpt>
      <trkpt lat="44.61391" lon="0.90421">
        <ele>212</ele>
        <time>2012-07-22T07:59:50Z</time>
      </trkpt>
      <trkpt lat="44.61386" lon="0.90461">
        <ele>212</ele>
        <time>2012-07-22T07:59:55Z</time>
      </trkpt>
      <trkpt lat="44.61383" lon="0.905">
        <ele>212</ele>
        <time>2012-07-22T08:00:00Z</time>
      </trkpt>
      <trkpt lat="44.61377" lon="0.90539">
        <ele>212</ele>
        <time>2012-07-22T08:00:05Z</time>
      </trkpt>
      <trkpt lat="44.61383" lon="0.90582">
        <ele>212</ele>
        <time>2012-07-22T08:00:10Z</time>
      </trkpt>
      <trkpt lat="44.61406" lon="0.90655">
        <ele>207</ele>
        <time>2012-07-22T08:00:16Z</time>
      </trkpt>
      <trkpt lat="44.61421" lon="0.90737">
        <ele>202</ele>
        <time>2012-07-22T08:00:21Z</time>
      </trkpt>
      <trkpt lat="44.61417" lon="0.90811">
        <ele>197</ele>
        <time>2012-07-22T08:00:26Z</time>
      </trkpt>
      <trkpt lat="44.61416" lon="0.9088">
        <ele>193</ele>
        <time>2012-07-22T08:00:31Z</time>
      </trkpt>
      <trkpt lat="44.61416" lon="0.90945">
        <ele>188</ele>
        <time>2012-07-22T08:00:36Z</time>
      </trkpt>
      <trkpt lat="44.61422" lon="0.91011">
        <ele>183</ele>
        <time>2012-07-22T08:00:41Z</time>
      </trkpt>
      <trkpt lat="44.61424" lon="0.91071">
        <ele>180</ele>
        <time>2012-07-22T08:00:46Z</time>
      </trkpt>
      <trkpt lat="44.61422" lon="0.91107">
        <ele>180</ele>
        <time>2012-07-22T08:00:51Z</time>
      </trkpt>
      <trkpt lat="44.61397" lon="0.91117">
        <ele>180</ele>
        <time>2012-07-22T08:00:56Z</time>
      </trkpt>
      <trkpt lat="44.61365" lon="0.9112">
        <ele>180</ele>
        <time>2012-07-22T08:01:01Z</time>
      </trkpt>
      <trkpt lat="44.61329" lon="0.91126">
        <ele>180</ele>
        <time>2012-07-22T08:01:06Z</time>
      </trkpt>
      <trkpt lat="44.61293" lon="0.91121">
        <ele>178</ele>
        <time>2012-07-22T08:01:11Z</time>
      </trkpt>
      <trkpt lat="44.61258" lon="0.91117">
        <ele>175</ele>
        <time>2012-07-22T08:01:16Z</time>
      </trkpt>
      <trkpt lat="44.61224" lon="0.91122">
        <ele>174</ele>
        <time>2012-07-22T08:01:21Z</time>
      </trkpt>
      <trkpt lat="44.61189" lon="0.91125">
        <ele>173</ele>
        <time>2012-07-22T08:01:26Z</time>
      </trkpt>
      <trkpt lat="44.61153" lon="0.91124">
        <ele>171</ele>
        <time>2012-07-22T08:01:31Z</time>
      </trkpt>
      <trkpt lat="44.61117" lon="0.91139">
        <ele>167</ele>
        <time>2012-07-22T08:01:36Z</time>
      </trkpt>
      <trkpt lat="44.61089" lon="0.91173">
        <ele>166</ele>
        <time>2012-07-22T08:01:41Z</time>
      </trkpt>
      <trkpt lat="44.61076" lon="0.91205">
        <ele>165</ele>
        <time>2012-07-22T08:01:46Z</time>
      </trkpt>
      <trkpt lat="44.61065" lon="0.91199">
        <ele>164</ele>
        <time>2012-07-22T08:01:51Z</time>
      </trkpt>
      <trkpt lat="44.61054" lon="0.91177">
        <ele>164</ele>
        <time>2012-07-22T08:01:56Z</time>
      </trkpt>
      <trkpt lat="44.6104" lon="0.91177">
        <ele>163</ele>
        <time>2012-07-22T08:02:01Z</time>
      </trkpt>
      <trkpt lat="44.61029" lon="0.91205">
        <ele>161</ele>
        <time>2012-07-22T08:02:06Z</time>
      </trkpt>
      <trkpt lat="44.61018" lon="0.91234">
        <ele>158</ele>
        <time>2012-07-22T08:02:11Z</time>
      </trkpt>
      <trkpt lat="44.61005" lon="0.91267">
        <ele>156</ele>
        <time>2012-07-22T08:02:16Z</time>
      </trkpt>
      <trkpt lat="44.60991" lon="0.91299">
        <ele>156</ele>
        <time>2012-07-22T08:02:21Z</time>
      </trkpt>
      <trkpt lat="44.60983" lon="0.91333">
        <ele>156</ele>
        <time>2012-07-22T08:02:26Z</time>
      </trkpt>
      <trkpt lat="44.60982" lon="0.91361">
        <ele>156</ele>
        <time>2012-07-22T08:02:31Z</time>
      </trkpt>
      <trkpt lat="44.60982" lon="0.91384">
        <ele>156</ele>
        <time>2012-07-22T08:02:36Z</time>
      </trkpt>
      <trkpt lat="44.60982" lon="0.91405">
        <ele>159</ele>
        <time>2012-07-22T08:02:41Z</time>
      </trkpt>
      <trkpt lat="44.60981" lon="0.91428">
        <ele>162</ele>
        <time>2012-07-22T08:02:46Z</time>
      </trkpt>
      <trkpt lat="44.6098" lon="0.91451">
        <ele>166</ele>
        <time>2012-07-22T08:02:51Z</time>
      </trkpt>
      <trkpt lat="44.6098" lon="0.91475">
        <ele>168</ele>
        <time>2012-07-22T08:02:56Z</time>
      </trkpt>
      <trkpt lat="44.60975" lon="0.91497">
        <ele>170</ele>
        <time>2012-07-22T08:03:01Z</time>
      </trkpt>
      <trkpt lat="44.60964" lon="0.91515">
        <ele>171</ele>
        <time>2012-07-22T08:03:06Z</time>
      </trkpt>
      <trkpt lat="44.60951" lon="0.91528">
        <ele>171</ele>
        <time>2012-07-22T08:03:11Z</time>
      </trkpt>
      <trkpt lat="44.60939" lon="0.9154">
        <ele>172</ele>
        <time>2012-07-22T08:03:16Z</time>
      </trkpt>
      <trkpt lat="44.60927" lon="0.91552">
        <ele>173</ele>
        <time>2012-07-22T08:03:21Z</time>
      </trkpt>
      <trkpt lat="44.60914" lon="0.91563">
        <ele>174</ele>
        <time>2012-07-22T08:03:26Z</time>
      </trkpt>
      <trkpt lat="44.60902" lon="0.91575">
        <ele>176</ele>
        <time>2012-07-22T08:03:31Z</time>
      </trkpt>
      <trkpt lat="44.60889" lon="0.91586">
        <ele>177</ele>
        <time>2012-07-22T08:03:36Z</time>
      </trkpt>
      <trkpt lat="44.60878" lon="0.91601">
        <ele>178</ele>
        <time>2012-07-22T08:03:41Z</time>
      </trkpt>
      <trkpt lat="44.60865" lon="0.91612">
        <ele>178</ele>
        <time>2012-07-22T08:03:46Z</time>
      </trkpt>
      <trkpt lat="44.60855" lon="0.91624">
        <ele>180</ele>
        <time>2012-07-22T08:03:51Z</time>
      </trkpt>
      <trkpt lat="44.60846" lon="0.91638">
        <ele>182</ele>
        <time>2012-07-22T08:03:56Z</time>
      </trkpt>
      <trkpt lat="44.60839" lon="0.91654">
        <ele>184</ele>
        <time>2012-07-22T08:04:01Z</time>
      </trkpt>
      <trkpt lat="44.60832" lon="0.91672">
        <ele>185</ele>
        <time>2012-07-22T08:04:06Z</time>
      </trkpt>
      <trkpt lat="44.60828" lon="0.91694">
        <ele>185</ele>
        <time>2012-07-22T08:04:11Z</time>
      </trkpt>
      <trkpt lat="44.60829" lon="0.91713">
        <ele>185</ele>
        <time>2012-07-22T08:04:16Z</time>
      </trkpt>
      <trkpt lat="44.60839" lon="0.9173">
        <ele>185</ele>
        <time>2012-07-22T08:04:21Z</time>
      </trkpt>
      <trkpt lat="44.6084" lon="0.91752">
        <ele>188</ele>
        <time>2012-07-22T08:04:26Z</time>
      </trkpt>
      <trkpt lat="44.60832" lon="0.9177">
        <ele>188</ele>
        <time>2012-07-22T08:04:31Z</time>
      </trkpt>
      <trkpt lat="44.60818" lon="0.91788">
        <ele>188</ele>
        <time>2012-07-22T08:04:36Z</time>
      </trkpt>
      <trkpt lat="44.60803" lon="0.91807">
        <ele>188</ele>
        <time>2012-07-22T08:04:41Z</time>
      </trkpt>
      <trkpt lat="44.60784" lon="0.91821">
        <ele>188</ele>
        <time>2012-07-22T08:04:46Z</time>
      </trkpt>
      <trkpt lat="44.60762" lon="0.91833">
        <ele>188</ele>
        <time>2012-07-22T08:04:51Z</time>
      </trkpt>
      <trkpt lat="44.6074" lon="0.91847">
        <ele>188</ele>
        <time>2012-07-22T08:04:56Z</time>
      </trkpt>
      <trkpt lat="44.60718" lon="0.91861">
        <ele>188</ele>
        <time>2012-07-22T08:05:01Z</time>
      </trkpt>
      <trkpt lat="44.60691" lon="0.91881">
        <ele>188</ele>
        <time>2012-07-22T08:05:07Z</time>
      </trkpt>
      <trkpt lat="44.60672" lon="0.91901">
        <ele>189</ele>
        <time>2012-07-22T08:05:12Z</time>
      </trkpt>
      <trkpt lat="44.60657" lon="0.91918">
        <ele>191</ele>
        <time>2012-07-22T08:05:17Z</time>
      </trkpt>
      <trkpt lat="44.60644" lon="0.91936">
        <ele>192</ele>
        <time>2012-07-22T08:05:22Z</time>
      </trkpt>
      <trkpt lat="44.60632" lon="0.91947">
        <ele>192</ele>
        <time>2012-07-22T08:05:27Z</time>
      </trkpt>
      <trkpt lat="44.60613" lon="0.9195">
        <ele>193</ele>
        <time>2012-07-22T08:05:32Z</time>
      </trkpt>
      <trkpt lat="44.60596" lon="0.91958">
        <ele>196</ele>
        <time>2012-07-22T08:05:37Z</time>
      </trkpt>
      <trkpt lat="44.60581" lon="0.91962">
        <ele>197</ele>
        <time>2012-07-22T08:05:42Z</time>
      </trkpt>
      <trkpt lat="44.60566" lon="0.91971">
        <ele>202</ele>
        <time>2012-07-22T08:05:47Z</time>
      </trkpt>
      <trkpt lat="44.60551" lon="0.9198">
        <ele>207</ele>
        <time>2012-07-22T08:05:52Z</time>
      </trkpt>
      <trkpt lat="44.6053" lon="0.91983">
        <ele>207</ele>
        <time>2012-07-22T08:05:58Z</time>
      </trkpt>
      <trkpt lat="44.60513" lon="0.91996">
        <ele>207</ele>
        <time>2012-07-22T08:06:04Z</time>
      </trkpt>
      <trkpt lat="44.60495" lon="0.92004">
        <ele>207</ele>
        <time>2012-07-22T08:06:09Z</time>
      </trkpt>
      <trkpt lat="44.60479" lon="0.9201">
        <ele>207</ele>
        <time>2012-07-22T08:06:14Z</time>
      </trkpt>
      <trkpt lat="44.60459" lon="0.92023">
        <ele>207</ele>
        <time>2012-07-22T08:06:20Z</time>
      </trkpt>
      <trkpt lat="44.6044" lon="0.92032">
        <ele>208</ele>
        <time>2012-07-22T08:06:26Z</time>
      </trkpt>
      <trkpt lat="44.60426" lon="0.92031">
        <ele>210</ele>
        <time>2012-07-22T08:06:31Z</time>
      </trkpt>
      <trkpt lat="44.60415" lon="0.92028">
        <ele>212</ele>
        <time>2012-07-22T08:06:36Z</time>
      </trkpt>
      <trkpt lat="44.60395" lon="0.92023">
        <ele>213</ele>
        <time>2012-07-22T08:06:41Z</time>
      </trkpt>
      <trkpt lat="44.60366" lon="0.91996">
        <ele>213</ele>
        <time>2012-07-22T08:06:47Z</time>
      </trkpt>
      <trkpt lat="44.60332" lon="0.9197">
        <ele>211</ele>
        <time>2012-07-22T08:06:52Z</time>
      </trkpt>
      <trkpt lat="44.60286" lon="0.9197">
        <ele>205</ele>
        <time>2012-07-22T08:06:58Z</time>
      </trkpt>
      <trkpt lat="44.60257" lon="0.91996">
        <ele>200</ele>
        <time>2012-07-22T08:07:03Z</time>
      </trkpt>
      <trkpt lat="44.60236" lon="0.91987">
        <ele>195</ele>
        <time>2012-07-22T08:07:08Z</time>
      </trkpt>
      <trkpt lat="44.60208" lon="0.91948">
        <ele>194</ele>
        <time>2012-07-22T08:07:14Z</time>
      </trkpt>
      <trkpt lat="44.60176" lon="0.91899">
        <ele>193</ele>
        <time>2012-07-22T08:07:20Z</time>
      </trkpt>
      <trkpt lat="44.60163" lon="0.91873">
        <ele>193</ele>
        <time>2012-07-22T08:07:25Z</time>
      </trkpt>
      <trkpt lat="44.6014" lon="0.91847">
        <ele>193</ele>
        <time>2012-07-22T08:07:30Z</time>
      </trkpt>
      <trkpt lat="44.60115" lon="0.91829">
        <ele>193</ele>
        <time>2012-07-22T08:07:35Z</time>
      </trkpt>
      <trkpt lat="44.60092" lon="0.91823">
        <ele>193</ele>
        <time>2012-07-22T08:07:40Z</time>
      </trkpt>
      <trkpt lat="44.60077" lon="0.9178">
        <ele>193</ele>
        <time>2012-07-22T08:07:46Z</time>
      </trkpt>
      <trkpt lat="44.6008" lon="0.91745">
        <ele>193</ele>
        <time>2012-07-22T08:07:51Z</time>
      </trkpt>
      <trkpt lat="44.60058" lon="0.91736">
        <ele>193</ele>
        <time>2012-07-22T08:07:57Z</time>
      </trkpt>
      <trkpt lat="44.60039" lon="0.91741">
        <ele>193</ele>
        <time>2012-07-22T08:08:02Z</time>
      </trkpt>
      <trkpt lat="44.60021" lon="0.91753">
        <ele>194</ele>
        <time>2012-07-22T08:08:07Z</time>
      </trkpt>
      <trkpt lat="44.59995" lon="0.91763">
        <ele>195</ele>
        <time>2012-07-22T08:08:12Z</time>
      </trkpt>
      <trkpt lat="44.59972" lon="0.91777">
        <ele>195</ele>
        <time>2012-07-22T08:08:17Z</time>
      </trkpt>
      <trkpt lat="44.59951" lon="0.91791">
        <ele>195</ele>
        <time>2012-07-22T08:08:22Z</time>
      </trkpt>
      <trkpt lat="44.5993" lon="0.91803">
        <ele>195</ele>
        <time>2012-07-22T08:08:27Z</time>
      </trkpt>
      <trkpt lat="44.59913" lon="0.91816">
        <ele>195</ele>
        <time>2012-07-22T08:08:32Z</time>
      </trkpt>
      <trkpt lat="44.59892" lon="0.91826">
        <ele>195</ele>
        <time>2012-07-22T08:08:38Z</time>
      </trkpt>
      <trkpt lat="44.59875" lon="0.91829">
        <ele>195</ele>
        <time>2012-07-22T08:08:43Z</time>
      </trkpt>
      <trkpt lat="44.5986" lon="0.91839">
        <ele>195</ele>
        <time>2012-07-22T08:08:48Z</time>
      </trkpt>
      <trkpt lat="44.59846" lon="0.91843">
        <ele>195</ele>
        <time>2012-07-22T08:08:53Z</time>
      </trkpt>
      <trkpt lat="44.59832" lon="0.91845">
        <ele>195</ele>
        <time>2012-07-22T08:08:58Z</time>
      </trkpt>
      <trkpt lat="44.59819" lon="0.91847">
        <ele>196</ele>
        <time>2012-07-22T08:09:03Z</time>
      </trkpt>
      <trkpt lat="44.59808" lon="0.91851">
        <ele>198</ele>
        <time>2012-07-22T08:09:08Z</time>
      </trkpt>
      <trkpt lat="44.598" lon="0.91861">
        <ele>199</ele>
        <time>2012-07-22T08:09:13Z</time>
      </trkpt>
      <trkpt lat="44.59787" lon="0.91873">
        <ele>199</ele>
        <time>2012-07-22T08:09:18Z</time>
      </trkpt>
      <trkpt lat="44.59772" lon="0.91884">
        <ele>199</ele>
        <time>2012-07-22T08:09:23Z</time>
      </trkpt>
      <trkpt lat="44.59757" lon="0.91897">
        <ele>199</ele>
        <time>2012-07-22T08:09:28Z</time>
      </trkpt>
      <trkpt lat="44.59738" lon="0.91905">
        <ele>199</ele>
        <time>2012-07-22T08:09:33Z</time>
      </trkpt>
      <trkpt lat="44.59723" lon="0.91912">
        <ele>203</ele>
        <time>2012-07-22T08:09:38Z</time>
      </trkpt>
      <trkpt lat="44.59711" lon="0.91921">
        <ele>208</ele>
        <time>2012-07-22T08:09:43Z</time>
      </trkpt>
      <trkpt lat="44.59697" lon="0.91931">
        <ele>211</ele>
        <time>2012-07-22T08:09:48Z</time>
      </trkpt>
      <trkpt lat="44.59682" lon="0.91943">
        <ele>214</ele>
        <time>2012-07-22T08:09:53Z</time>
      </trkpt>
      <trkpt lat="44.59669" lon="0.91957">
        <ele>216</ele>
        <time>2012-07-22T08:09:58Z</time>
      </trkpt>
      <trkpt lat="44.59664" lon="0.91964">
        <ele>217</ele>
        <time>2012-07-22T08:10:04Z</time>
      </trkpt>
      <trkpt lat="44.59665" lon="0.91952">
        <ele>217</ele>
        <time>2012-07-22T08:10:09Z</time>
      </trkpt>
      <trkpt lat="44.59666" lon="0.91935">
        <ele>220</ele>
        <time>2012-07-22T08:10:14Z</time>
      </trkpt>
      <trkpt lat="44.59669" lon="0.91912">
        <ele>225</ele>
        <time>2012-07-22T08:10:19Z</time>
      </trkpt>
      <trkpt lat="44.59675" lon="0.91885">
        <ele>230</ele>
        <time>2012-07-22T08:10:24Z</time>
      </trkpt>
      <trkpt lat="44.59678" lon="0.91857">
        <ele>231</ele>
        <time>2012-07-22T08:10:29Z</time>
      </trkpt>
      <trkpt lat="44.59681" lon="0.91829">
        <ele>230</ele>
        <time>2012-07-22T08:10:34Z</time>
      </trkpt>
      <trkpt lat="44.59682" lon="0.918">
        <ele>225</ele>
        <time>2012-07-22T08:10:39Z</time>
      </trkpt>
      <trkpt lat="44.59684" lon="0.91773">
        <ele>220</ele>
        <time>2012-07-22T08:10:44Z</time>
      </trkpt>
      <trkpt lat="44.59679" lon="0.91744">
        <ele>218</ele>
        <time>2012-07-22T08:10:49Z</time>
      </trkpt>
      <trkpt lat="44.5968" lon="0.9171">
        <ele>216</ele>
        <time>2012-07-22T08:10:54Z</time>
      </trkpt>
      <trkpt lat="44.59681" lon="0.91675">
        <ele>215</ele>
        <time>2012-07-22T08:10:59Z</time>
      </trkpt>
      <trkpt lat="44.59684" lon="0.91628">
        <ele>213</ele>
        <time>2012-07-22T08:11:05Z</time>
      </trkpt>
      <trkpt lat="44.59692" lon="0.91587">
        <ele>213</ele>
        <time>2012-07-22T08:11:10Z</time>
      </trkpt>
      <trkpt lat="44.59703" lon="0.91548">
        <ele>213</ele>
        <time>2012-07-22T08:11:15Z</time>
      </trkpt>
      <trkpt lat="44.59711" lon="0.91505">
        <ele>213</ele>
        <time>2012-07-22T08:11:20Z</time>
      </trkpt>
      <trkpt lat="44.59716" lon="0.91464">
        <ele>213</ele>
        <time>2012-07-22T08:11:25Z</time>
      </trkpt>
      <trkpt lat="44.59721" lon="0.91427">
        <ele>213</ele>
        <time>2012-07-22T08:11:30Z</time>
      </trkpt>
      <trkpt lat="44.59729" lon="0.91392">
        <ele>212</ele>
        <time>2012-07-22T08:11:35Z</time>
      </trkpt>
      <trkpt lat="44.59731" lon="0.9136">
        <ele>212</ele>
        <time>2012-07-22T08:11:40Z</time>
      </trkpt>
      <trkpt lat="44.59737" lon="0.91332">
        <ele>212</ele>
        <time>2012-07-22T08:11:45Z</time>
      </trkpt>
      <trkpt lat="44.59741" lon="0.91306">
        <ele>212</ele>
        <time>2012-07-22T08:11:50Z</time>
      </trkpt>
      <trkpt lat="44.59745" lon="0.91277">
        <ele>212</ele>
        <time>2012-07-22T08:11:55Z</time>
      </trkpt>
      <trkpt lat="44.59752" lon="0.91245">
        <ele>212</ele>
        <time>2012-07-22T08:12:00Z</time>
      </trkpt>
      <trkpt lat="44.59761" lon="0.91208">
        <ele>210</ele>
        <time>2012-07-22T08:12:05Z</time>
      </trkpt>
      <trkpt lat="44.5977" lon="0.9117">
        <ele>208</ele>
        <time>2012-07-22T08:12:10Z</time>
      </trkpt>
      <trkpt lat="44.59789" lon="0.91131">
        <ele>206</ele>
        <time>2012-07-22T08:12:15Z</time>
      </trkpt>
      <trkpt lat="44.59811" lon="0.91083">
        <ele>203</ele>
        <time>2012-07-22T08:12:20Z</time>
      </trkpt>
      <trkpt lat="44.59835" lon="0.91035">
        <ele>198</ele>
        <time>2012-07-22T08:12:25Z</time>
      </trkpt>
      <trkpt lat="44.59867" lon="0.9099">
        <ele>193</ele>
        <time>2012-07-22T08:12:30Z</time>
      </trkpt>
      <trkpt lat="44.59904" lon="0.90946">
        <ele>188</ele>
        <time>2012-07-22T08:12:35Z</time>
      </trkpt>
      <trkpt lat="44.5993" lon="0.90913">
        <ele>183</ele>
        <time>2012-07-22T08:12:40Z</time>
      </trkpt>
      <trkpt lat="44.59942" lon="0.90875">
        <ele>178</ele>
        <time>2012-07-22T08:12:45Z</time>
      </trkpt>
      <trkpt lat="44.59948" lon="0.90829">
        <ele>176</ele>
        <time>2012-07-22T08:12:50Z</time>
      </trkpt>
      <trkpt lat="44.59956" lon="0.90775">
        <ele>176</ele>
        <time>2012-07-22T08:12:55Z</time>
      </trkpt>
      <trkpt lat="44.59963" lon="0.90717">
        <ele>176</ele>
        <time>2012-07-22T08:13:00Z</time>
      </trkpt>
      <trkpt lat="44.59975" lon="0.90673">
        <ele>176</ele>
        <time>2012-07-22T08:13:05Z</time>
      </trkpt>
      <trkpt lat="44.59992" lon="0.90642">
        <ele>176</ele>
        <time>2012-07-22T08:13:10Z</time>
      </trkpt>
      <trkpt lat="44.60004" lon="0.90609">
        <ele>176</ele>
        <time>2012-07-22T08:13:15Z</time>
      </trkpt>
      <trkpt lat="44.59996" lon="0.90565">
        <ele>176</ele>
        <time>2012-07-22T08:13:20Z</time>
      </trkpt>
      <trkpt lat="44.59998" lon="0.905">
        <ele>176</ele>
        <time>2012-07-22T08:13:25Z</time>
      </trkpt>
      <trkpt lat="44.59994" lon="0.90429">
        <ele>173</ele>
        <time>2012-07-22T08:13:30Z</time>
      </trkpt>
      <trkpt lat="44.59989" lon="0.90363">
        <ele>171</ele>
        <time>2012-07-22T08:13:35Z</time>
      </trkpt>
      <trkpt lat="44.59984" lon="0.903">
        <ele>168</ele>
        <time>2012-07-22T08:13:40Z</time>
      </trkpt>
      <trkpt lat="44.59975" lon="0.90233">
        <ele>164</ele>
        <time>2012-07-22T08:13:45Z</time>
      </trkpt>
      <trkpt lat="44.59955" lon="0.90169">
        <ele>159</ele>
        <time>2012-07-22T08:13:50Z</time>
      </trkpt>
      <trkpt lat="44.59948" lon="0.90111">
        <ele>154</ele>
        <time>2012-07-22T08:13:55Z</time>
      </trkpt>
      <trkpt lat="44.59969" lon="0.9007">
        <ele>149</ele>
        <time>2012-07-22T08:14:00Z</time>
      </trkpt>
      <trkpt lat="44.59988" lon="0.90021">
        <ele>144</ele>
        <time>2012-07-22T08:14:05Z</time>
      </trkpt>
      <trkpt lat="44.60006" lon="0.8997">
        <ele>142</ele>
        <time>2012-07-22T08:14:10Z</time>
      </trkpt>
      <trkpt lat="44.60017" lon="0.89919">
        <ele>142</ele>
        <time>2012-07-22T08:14:15Z</time>
      </trkpt>
      <trkpt lat="44.60009" lon="0.8987">
        <ele>142</ele>
        <time>2012-07-22T08:14:20Z</time>
      </trkpt>
      <trkpt lat="44.6002" lon="0.89824">
        <ele>142</ele>
        <time>2012-07-22T08:14:25Z</time>
      </trkpt>
      <trkpt lat="44.60026" lon="0.89796">
        <ele>142</ele>
        <time>2012-07-22T08:14:30Z</time>
      </trkpt>
      <trkpt lat="44.60038" lon="0.89773">
        <ele>143</ele>
        <time>2012-07-22T08:14:35Z</time>
      </trkpt>
      <trkpt lat="44.60036" lon="0.89753">
        <ele>146</ele>
        <time>2012-07-22T08:14:40Z</time>
      </trkpt>
      <trkpt lat="44.60034" lon="0.89732">
        <ele>147</ele>
        <time>2012-07-22T08:14:45Z</time>
      </trkpt>
      <trkpt lat="44.6004" lon="0.89711">
        <ele>148</ele>
        <time>2012-07-22T08:14:50Z</time>
      </trkpt>
      <trkpt lat="44.60048" lon="0.89685">
        <ele>151</ele>
        <time>2012-07-22T08:14:55Z</time>
      </trkpt>
      <trkpt lat="44.60059" lon="0.89656">
        <ele>156</ele>
        <time>2012-07-22T08:15:00Z</time>
      </trkpt>
      <trkpt lat="44.60059" lon="0.89619">
        <ele>157</ele>
        <time>2012-07-22T08:15:05Z</time>
      </trkpt>
      <trkpt lat="44.60059" lon="0.8958">
        <ele>157</ele>
        <time>2012-07-22T08:15:10Z</time>
      </trkpt>
      <trkpt lat="44.60065" lon="0.89544">
        <ele>157</ele>
        <time>2012-07-22T08:15:15Z</time>
      </trkpt>
      <trkpt lat="44.60067" lon="0.89514">
        <ele>157</ele>
        <time>2012-07-22T08:15:20Z</time>
      </trkpt>
      <trkpt lat="44.60065" lon="0.89505">
        <ele>157</ele>
        <time>2012-07-22T08:15:25Z</time>
      </trkpt>
      <trkpt lat="44.60057" lon="0.89495">
        <ele>157</ele>
        <time>2012-07-22T08:15:30Z</time>
      </trkpt>
      <trkpt lat="44.6004" lon="0.8948">
        <ele>157</ele>
        <time>2012-07-22T08:15:35Z</time>
      </trkpt>
      <trkpt lat="44.60018" lon="0.89474">
        <ele>157</ele>
        <time>2012-07-22T08:15:40Z</time>
      </trkpt>
      <trkpt lat="44.59996" lon="0.89474">
        <ele>157</ele>
        <time>2012-07-22T08:15:45Z</time>
      </trkpt>
      <trkpt lat="44.59975" lon="0.89462">
        <ele>158</ele>
        <time>2012-07-22T08:15:50Z</time>
      </trkpt>
      <trkpt lat="44.59956" lon="0.89441">
        <ele>158</ele>
        <time>2012-07-22T08:15:55Z</time>
      </trkpt>
      <trkpt lat="44.59937" lon="0.89417">
        <ele>158</ele>
        <time>2012-07-22T08:16:00Z</time>
      </trkpt>
      <trkpt lat="44.59915" lon="0.89389">
        <ele>158</ele>
        <time>2012-07-22T08:16:05Z</time>
      </trkpt>
      <trkpt lat="44.59888" lon="0.8936">
        <ele>157</ele>
        <time>2012-07-22T08:16:10Z</time>
      </trkpt>
      <trkpt lat="44.59858" lon="0.89328">
        <ele>156</ele>
        <time>2012-07-22T08:16:15Z</time>
      </trkpt>
      <trkpt lat="44.59826" lon="0.89292">
        <ele>155</ele>
        <time>2012-07-22T08:16:20Z</time>
      </trkpt>
      <trkpt lat="44.59799" lon="0.89259">
        <ele>153</ele>
        <time>2012-07-22T08:16:25Z</time>
      </trkpt>
      <trkpt lat="44.59771" lon="0.89221">
        <ele>153</ele>
        <time>2012-07-22T08:16:30Z</time>
      </trkpt>
      <trkpt lat="44.59744" lon="0.89183">
        <ele>152</ele>
        <time>2012-07-22T08:16:35Z</time>
      </trkpt>
      <trkpt lat="44.59711" lon="0.89156">
        <ele>152</ele>
        <time>2012-07-22T08:16:40Z</time>
      </trkpt>
      <trkpt lat="44.5968" lon="0.89129">
        <ele>152</ele>
        <time>2012-07-22T08:16:45Z</time>
      </trkpt>
      <trkpt lat="44.59655" lon="0.89108">
        <ele>153</ele>
        <time>2012-07-22T08:16:50Z</time>
      </trkpt>
      <trkpt lat="44.59642" lon="0.89093">
        <ele>155</ele>
        <time>2012-07-22T08:16:55Z</time>
      </trkpt>
      <trkpt lat="44.59633" lon="0.89079">
        <ele>156</ele>
        <time>2012-07-22T08:17:00Z</time>
      </trkpt>
      <trkpt lat="44.59628" lon="0.89065">
        <ele>157</ele>
        <time>2012-07-22T08:17:05Z</time>
      </trkpt>
      <trkpt lat="44.5962" lon="0.89049">
        <ele>158</ele>
        <time>2012-07-22T08:17:10Z</time>
      </trkpt>
      <trkpt lat="44.5961" lon="0.89028">
        <ele>159</ele>
        <time>2012-07-22T08:17:15Z</time>
      </trkpt>
      <trkpt lat="44.59598" lon="0.89003">
        <ele>159</ele>
        <time>2012-07-22T08:17:20Z</time>
      </trkpt>
      <trkpt lat="44.59584" lon="0.88974">
        <ele>159</ele>
        <time>2012-07-22T08:17:25Z</time>
      </trkpt>
      <trkpt lat="44.59569" lon="0.88943">
        <ele>159</ele>
        <time>2012-07-22T08:17:30Z</time>
      </trkpt>
      <trkpt lat="44.59548" lon="0.88907">
        <ele>159</ele>
        <time>2012-07-22T08:17:35Z</time>
      </trkpt>
      <trkpt lat="44.5952" lon="0.88863">
        <ele>158</ele>
        <time>2012-07-22T08:17:40Z</time>
      </trkpt>
      <trkpt lat="44.59493" lon="0.88825">
        <ele>154</ele>
        <time>2012-07-22T08:17:45Z</time>
      </trkpt>
      <trkpt lat="44.59464" lon="0.88782">
        <ele>149</ele>
        <time>2012-07-22T08:17:50Z</time>
      </trkpt>
      <trkpt lat="44.59439" lon="0.88762">
        <ele>146</ele>
        <time>2012-07-22T08:17:55Z</time>
      </trkpt>
      <trkpt lat="44.59426" lon="0.88745">
        <ele>146</ele>
        <time>2012-07-22T08:18:00Z</time>
      </trkpt>
      <trkpt lat="44.59423" lon="0.88728">
        <ele>148</ele>
        <time>2012-07-22T08:18:05Z</time>
      </trkpt>
      <trkpt lat="44.59409" lon="0.88706">
        <ele>149</ele>
        <time>2012-07-22T08:18:10Z</time>
      </trkpt>
      <trkpt lat="44.59393" lon="0.8868">
        <ele>150</ele>
        <time>2012-07-22T08:18:15Z</time>
      </trkpt>
      <trkpt lat="44.59382" lon="0.8866">
        <ele>151</ele>
        <time>2012-07-22T08:18:20Z</time>
      </trkpt>
      <trkpt lat="44.59374" lon="0.88639">
        <ele>151</ele>
        <time>2012-07-22T08:18:25Z</time>
      </trkpt>
      <trkpt lat="44.59361" lon="0.88603">
        <ele>150</ele>
        <time>2012-07-22T08:18:30Z</time>
      </trkpt>
      <trkpt lat="44.59338" lon="0.88568">
        <ele>146</ele>
        <time>2012-07-22T08:18:35Z</time>
      </trkpt>
      <trkpt lat="44.59328" lon="0.88524">
        <ele>142</ele>
        <time>2012-07-22T08:18:40Z</time>
      </trkpt>
      <trkpt lat="44.5932" lon="0.88459">
        <ele>137</ele>
        <time>2012-07-22T08:18:45Z</time>
      </trkpt>
      <trkpt lat="44.5931" lon="0.88397">
        <ele>137</ele>
        <time>2012-07-22T08:18:50Z</time>
      </trkpt>
      <trkpt lat="44.59289" lon="0.88359">
        <ele>137</ele>
        <time>2012-07-22T08:18:55Z</time>
      </trkpt>
      <trkpt lat="44.59266" lon="0.88335">
        <ele>137</ele>
        <time>2012-07-22T08:19:00Z</time>
      </trkpt>
      <trkpt lat="44.59245" lon="0.88313">
        <ele>137</ele>
        <time>2012-07-22T08:19:05Z</time>
      </trkpt>
      <trkpt lat="44.5922" lon="0.88308">
        <ele>137</ele>
        <time>2012-07-22T08:19:10Z</time>
      </trkpt>
      <trkpt lat="44.59198" lon="0.88302">
        <ele>137</ele>
        <time>2012-07-22T08:19:15Z</time>
      </trkpt>
      <trkpt lat="44.59176" lon="0.88297">
        <ele>137</ele>
        <time>2012-07-22T08:19:20Z</time>
      </trkpt>
      <trkpt lat="44.59156" lon="0.88294">
        <ele>137</ele>
        <time>2012-07-22T08:19:25Z</time>
      </trkpt>
      <trkpt lat="44.59131" lon="0.88289">
        <ele>137</ele>
        <time>2012-07-22T08:19:30Z</time>
      </trkpt>
      <trkpt lat="44.59104" lon="0.8828">
        <ele>137</ele>
        <time>2012-07-22T08:19:35Z</time>
      </trkpt>
      <trkpt lat="44.59082" lon="0.88268">
        <ele>136</ele>
        <time>2012-07-22T08:19:40Z</time>
      </trkpt>
      <trkpt lat="44.59064" lon="0.8826">
        <ele>136</ele>
        <time>2012-07-22T08:19:45Z</time>
      </trkpt>
      <trkpt lat="44.59049" lon="0.88254">
        <ele>136</ele>
        <time>2012-07-22T08:19:50Z</time>
      </trkpt>
      <trkpt lat="44.59036" lon="0.88248">
        <ele>136</ele>
        <time>2012-07-22T08:19:56Z</time>
      </trkpt>
      <trkpt lat="44.59027" lon="0.88236">
        <ele>136</ele>
        <time>2012-07-22T08:20:01Z</time>
      </trkpt>
      <trkpt lat="44.59022" lon="0.88225">
        <ele>137</ele>
        <time>2012-07-22T08:20:07Z</time>
      </trkpt>
      <trkpt lat="44.59022" lon="0.88233">
        <ele>139</ele>
        <time>2012-07-22T08:20:12Z</time>
      </trkpt>
      <trkpt lat="44.59012" lon="0.88255">
        <ele>139</ele>
        <time>2012-07-22T08:20:17Z</time>
      </trkpt>
      <trkpt lat="44.58976" lon="0.88264">
        <ele>139</ele>
        <time>2012-07-22T08:20:22Z</time>
      </trkpt>
      <trkpt lat="44.58932" lon="0.88276">
        <ele>135</ele>
        <time>2012-07-22T08:20:27Z</time>
      </trkpt>
      <trkpt lat="44.58906" lon="0.88302">
        <ele>133</ele>
        <time>2012-07-22T08:20:32Z</time>
      </trkpt>
      <trkpt lat="44.58894" lon="0.88324">
        <ele>133</ele>
        <time>2012-07-22T08:20:37Z</time>
      </trkpt>
      <trkpt lat="44.58883" lon="0.88336">
        <ele>133</ele>
        <time>2012-07-22T08:20:42Z</time>
      </trkpt>
      <trkpt lat="44.58871" lon="0.88349">
        <ele>134</ele>
        <time>2012-07-22T08:20:47Z</time>
      </trkpt>
      <trkpt lat="44.58859" lon="0.88363">
        <ele>137</ele>
        <time>2012-07-22T08:20:52Z</time>
      </trkpt>
      <trkpt lat="44.58847" lon="0.88377">
        <ele>139</ele>
        <time>2012-07-22T08:20:57Z</time>
      </trkpt>
      <trkpt lat="44.58837" lon="0.88391">
        <ele>144</ele>
        <time>2012-07-22T08:21:02Z</time>
      </trkpt>
      <trkpt lat="44.58828" lon="0.88409">
        <ele>145</ele>
        <time>2012-07-22T08:21:07Z</time>
      </trkpt>
      <trkpt lat="44.58821" lon="0.88429">
        <ele>145</ele>
        <time>2012-07-22T08:21:12Z</time>
      </trkpt>
      <trkpt lat="44.58817" lon="0.88452">
        <ele>145</ele>
        <time>2012-07-22T08:21:17Z</time>
      </trkpt>
      <trkpt lat="44.58812" lon="0.88475">
        <ele>142</ele>
        <time>2012-07-22T08:21:22Z</time>
      </trkpt>
      <trkpt lat="44.58805" lon="0.88497">
        <ele>141</ele>
        <time>2012-07-22T08:21:27Z</time>
      </trkpt>
      <trkpt lat="44.58795" lon="0.88521">
        <ele>141</ele>
        <time>2012-07-22T08:21:32Z</time>
      </trkpt>
      <trkpt lat="44.58785" lon="0.88537">
        <ele>143</ele>
        <time>2012-07-22T08:21:37Z</time>
      </trkpt>
      <trkpt lat="44.58773" lon="0.88555">
        <ele>143</ele>
        <time>2012-07-22T08:21:42Z</time>
      </trkpt>
      <trkpt lat="44.5876" lon="0.8857">
        <ele>146</ele>
        <time>2012-07-22T08:21:47Z</time>
      </trkpt>
      <trkpt lat="44.58749" lon="0.88583">
        <ele>150</ele>
        <time>2012-07-22T08:21:52Z</time>
      </trkpt>
      <trkpt lat="44.58741" lon="0.88602">
        <ele>151</ele>
        <time>2012-07-22T08:21:57Z</time>
      </trkpt>
      <trkpt lat="44.5873" lon="0.88619">
        <ele>151</ele>
        <time>2012-07-22T08:22:02Z</time>
      </trkpt>
      <trkpt lat="44.58722" lon="0.88632">
        <ele>151</ele>
        <time>2012-07-22T08:22:07Z</time>
      </trkpt>
      <trkpt lat="44.58713" lon="0.88644">
        <ele>151</ele>
        <time>2012-07-22T08:22:12Z</time>
      </trkpt>
      <trkpt lat="44.58704" lon="0.88657">
        <ele>151</ele>
        <time>2012-07-22T08:22:17Z</time>
      </trkpt>
      <trkpt lat="44.58696" lon="0.88673">
        <ele>151</ele>
        <time>2012-07-22T08:22:22Z</time>
      </trkpt>
      <trkpt lat="44.58691" lon="0.88691">
        <ele>152</ele>
        <time>2012-07-22T08:22:27Z</time>
      </trkpt>
      <trkpt lat="44.58683" lon="0.88707">
        <ele>152</ele>
        <time>2012-07-22T08:22:32Z</time>
      </trkpt>
      <trkpt lat="44.58674" lon="0.88722">
        <ele>153</ele>
        <time>2012-07-22T08:22:37Z</time>
      </trkpt>
      <trkpt lat="44.58665" lon="0.88738">
        <ele>154</ele>
        <time>2012-07-22T08:22:42Z</time>
      </trkpt>
      <trkpt lat="44.58657" lon="0.88753">
        <ele>155</ele>
        <time>2012-07-22T08:22:47Z</time>
      </trkpt>
      <trkpt lat="44.58648" lon="0.88768">
        <ele>156</ele>
        <time>2012-07-22T08:22:52Z</time>
      </trkpt>
      <trkpt lat="44.58638" lon="0.88784">
        <ele>157</ele>
        <time>2012-07-22T08:22:57Z</time>
      </trkpt>
      <trkpt lat="44.58629" lon="0.88801">
        <ele>159</ele>
        <time>2012-07-22T08:23:02Z</time>
      </trkpt>
      <trkpt lat="44.5862" lon="0.88817">
        <ele>160</ele>
        <time>2012-07-22T08:23:07Z</time>
      </trkpt>
      <trkpt lat="44.58615" lon="0.88838">
        <ele>161</ele>
        <time>2012-07-22T08:23:12Z</time>
      </trkpt>
      <trkpt lat="44.58608" lon="0.88855">
        <ele>161</ele>
        <time>2012-07-22T08:23:17Z</time>
      </trkpt>
      <trkpt lat="44.58601" lon="0.88872">
        <ele>163</ele>
        <time>2012-07-22T08:23:22Z</time>
      </trkpt>
      <trkpt lat="44.58593" lon="0.88887">
        <ele>166</ele>
        <time>2012-07-22T08:23:27Z</time>
      </trkpt>
      <trkpt lat="44.58587" lon="0.88902">
        <ele>169</ele>
        <time>2012-07-22T08:23:32Z</time>
      </trkpt>
      <trkpt lat="44.58581" lon="0.88916">
        <ele>171</ele>
        <time>2012-07-22T08:23:37Z</time>
      </trkpt>
      <trkpt lat="44.58575" lon="0.88931">
        <ele>173</ele>
        <time>2012-07-22T08:23:42Z</time>
      </trkpt>
      <trkpt lat="44.58569" lon="0.88946">
        <ele>175</ele>
        <time>2012-07-22T08:23:47Z</time>
      </trkpt>
      <trkpt lat="44.58562" lon="0.88961">
        <ele>175</ele>
        <time>2012-07-22T08:23:52Z</time>
      </trkpt>
      <trkpt lat="44.58555" lon="0.88978">
        <ele>175</ele>
        <time>2012-07-22T08:23:57Z</time>
      </trkpt>
      <trkpt lat="44.58549" lon="0.89001">
        <ele>175</ele>
        <time>2012-07-22T08:24:02Z</time>
      </trkpt>
      <trkpt lat="44.58543" lon="0.89023">
        <ele>175</ele>
        <time>2012-07-22T08:24:07Z</time>
      </trkpt>
      <trkpt lat="44.58537" lon="0.89045">
        <ele>175</ele>
        <time>2012-07-22T08:24:12Z</time>
      </trkpt>
      <trkpt lat="44.58531" lon="0.89065">
        <ele>175</ele>
        <time>2012-07-22T08:24:17Z</time>
      </trkpt>
      <trkpt lat="44.58526" lon="0.89083">
        <ele>176</ele>
        <time>2012-07-22T08:24:22Z</time>
      </trkpt>
      <trkpt lat="44.58521" lon="0.89101">
        <ele>179</ele>
        <time>2012-07-22T08:24:27Z</time>
      </trkpt>
      <trkpt lat="44.58515" lon="0.89121">
        <ele>182</ele>
        <time>2012-07-22T08:24:32Z</time>
      </trkpt>
      <trkpt lat="44.58509" lon="0.89144">
        <ele>186</ele>
        <time>2012-07-22T08:24:37Z</time>
      </trkpt>
      <trkpt lat="44.58502" lon="0.89171">
        <ele>188</ele>
        <time>2012-07-22T08:24:42Z</time>
      </trkpt>
      <trkpt lat="44.58495" lon="0.89199">
        <ele>188</ele>
        <time>2012-07-22T08:24:47Z</time>
      </trkpt>
      <trkpt lat="44.5849" lon="0.89226">
        <ele>189</ele>
        <time>2012-07-22T08:24:52Z</time>
      </trkpt>
      <trkpt lat="44.58488" lon="0.89249">
        <ele>189</ele>
        <time>2012-07-22T08:24:57Z</time>
      </trkpt>
      <trkpt lat="44.58493" lon="0.89262">
        <ele>191</ele>
        <time>2012-07-22T08:25:02Z</time>
      </trkpt>
      <trkpt lat="44.58501" lon="0.89274">
        <ele>196</ele>
        <time>2012-07-22T08:25:07Z</time>
      </trkpt>
      <trkpt lat="44.58509" lon="0.89283">
        <ele>199</ele>
        <time>2012-07-22T08:25:12Z</time>
      </trkpt>
      <trkpt lat="44.58528" lon="0.89281">
        <ele>199</ele>
        <time>2012-07-22T08:25:17Z</time>
      </trkpt>
      <trkpt lat="44.58552" lon="0.89274">
        <ele>199</ele>
        <time>2012-07-22T08:25:22Z</time>
      </trkpt>
      <trkpt lat="44.58575" lon="0.89267">
        <ele>199</ele>
        <time>2012-07-22T08:25:27Z</time>
      </trkpt>
      <trkpt lat="44.58597" lon="0.89253">
        <ele>199</ele>
        <time>2012-07-22T08:25:32Z</time>
      </trkpt>
      <trkpt lat="44.58625" lon="0.89253">
        <ele>199</ele>
        <time>2012-07-22T08:25:37Z</time>
      </trkpt>
      <trkpt lat="44.58655" lon="0.89279">
        <ele>195</ele>
        <time>2012-07-22T08:25:42Z</time>
      </trkpt>
      <trkpt lat="44.58685" lon="0.89295">
        <ele>192</ele>
        <time>2012-07-22T08:25:47Z</time>
      </trkpt>
      <trkpt lat="44.58697" lon="0.89312">
        <ele>190</ele>
        <time>2012-07-22T08:25:52Z</time>
      </trkpt>
      <trkpt lat="44.58695" lon="0.89323">
        <ele>190</ele>
        <time>2012-07-22T08:25:57Z</time>
      </trkpt>
      <trkpt lat="44.58696" lon="0.89334">
        <ele>190</ele>
        <time>2012-07-22T08:26:02Z</time>
      </trkpt>
      <trkpt lat="44.587" lon="0.89349">
        <ele>190</ele>
        <time>2012-07-22T08:26:07Z</time>
      </trkpt>
      <trkpt lat="44.58701" lon="0.89358">
        <ele>190</ele>
        <time>2012-07-22T08:26:12Z</time>
      </trkpt>
      <trkpt lat="44.58705" lon="0.89372">
        <ele>190</ele>
        <time>2012-07-22T08:26:17Z</time>
      </trkpt>
      <trkpt lat="44.58709" lon="0.89384">
        <ele>192</ele>
        <time>2012-07-22T08:26:22Z</time>
      </trkpt>
      <trkpt lat="44.58711" lon="0.89397">
        <ele>193</ele>
        <time>2012-07-22T08:26:27Z</time>
      </trkpt>
      <trkpt lat="44.58714" lon="0.89411">
        <ele>197</ele>
        <time>2012-07-22T08:26:32Z</time>
      </trkpt>
      <trkpt lat="44.58712" lon="0.89432">
        <ele>199</ele>
        <time>2012-07-22T08:26:37Z</time>
      </trkpt>
      <trkpt lat="44.58711" lon="0.89455">
        <ele>201</ele>
        <time>2012-07-22T08:26:42Z</time>
      </trkpt>
      <trkpt lat="44.5871" lon="0.89477">
        <ele>201</ele>
        <time>2012-07-22T08:26:47Z</time>
      </trkpt>
      <trkpt lat="44.58711" lon="0.89499">
        <ele>202</ele>
        <time>2012-07-22T08:26:52Z</time>
      </trkpt>
      <trkpt lat="44.58719" lon="0.89519">
        <ele>202</ele>
        <time>2012-07-22T08:26:57Z</time>
      </trkpt>
      <trkpt lat="44.58726" lon="0.89532">
        <ele>202</ele>
        <time>2012-07-22T08:27:02Z</time>
      </trkpt>
      <trkpt lat="44.58732" lon="0.89544">
        <ele>202</ele>
        <time>2012-07-22T08:27:07Z</time>
      </trkpt>
      <trkpt lat="44.58741" lon="0.89556">
        <ele>202</ele>
        <time>2012-07-22T08:27:12Z</time>
      </trkpt>
      <trkpt lat="44.5875" lon="0.89565">
        <ele>202</ele>
        <time>2012-07-22T08:27:17Z</time>
      </trkpt>
      <trkpt lat="44.58756" lon="0.89575">
        <ele>202</ele>
        <time>2012-07-22T08:27:22Z</time>
      </trkpt>
      <trkpt lat="44.58763" lon="0.89586">
        <ele>202</ele>
        <time>2012-07-22T08:27:27Z</time>
      </trkpt>
      <trkpt lat="44.58768" lon="0.89592">
        <ele>202</ele>
        <time>2012-07-22T08:27:32Z</time>
      </trkpt>
      <trkpt lat="44.58776" lon="0.896">
        <ele>202</ele>
        <time>2012-07-22T08:27:37Z</time>
      </trkpt>
      <trkpt lat="44.58788" lon="0.89607">
        <ele>203</ele>
        <time>2012-07-22T08:27:42Z</time>
      </trkpt>
      <trkpt lat="44.58795" lon="0.89615">
        <ele>205</ele>
        <time>2012-07-22T08:27:47Z</time>
      </trkpt>
      <trkpt lat="44.58803" lon="0.89625">
        <ele>208</ele>
        <time>2012-07-22T08:27:52Z</time>
      </trkpt>
      <trkpt lat="44.58812" lon="0.89636">
        <ele>211</ele>
        <time>2012-07-22T08:27:57Z</time>
      </trkpt>
      <trkpt lat="44.58822" lon="0.89644">
        <ele>212</ele>
        <time>2012-07-22T08:28:02Z</time>
      </trkpt>
      <trkpt lat="44.58834" lon="0.89653">
        <ele>212</ele>
        <time>2012-07-22T08:28:07Z</time>
      </trkpt>
      <trkpt lat="44.58846" lon="0.89669">
        <ele>212</ele>
        <time>2012-07-22T08:28:12Z</time>
      </trkpt>
      <trkpt lat="44.58852" lon="0.89698">
        <ele>214</ele>
        <time>2012-07-22T08:28:17Z</time>
      </trkpt>
      <trkpt lat="44.58854" lon="0.89727">
        <ele>215</ele>
        <time>2012-07-22T08:28:22Z</time>
      </trkpt>
      <trkpt lat="44.58864" lon="0.89751">
        <ele>217</ele>
        <time>2012-07-22T08:28:27Z</time>
      </trkpt>
      <trkpt lat="44.58875" lon="0.89773">
        <ele>217</ele>
        <time>2012-07-22T08:28:32Z</time>
      </trkpt>
      <trkpt lat="44.58888" lon="0.89794">
        <ele>217</ele>
        <time>2012-07-22T08:28:37Z</time>
      </trkpt>
      <trkpt lat="44.58899" lon="0.89812">
        <ele>217</ele>
        <time>2012-07-22T08:28:42Z</time>
      </trkpt>
      <trkpt lat="44.5891" lon="0.89829">
        <ele>217</ele>
        <time>2012-07-22T08:28:47Z</time>
      </trkpt>
      <trkpt lat="44.58918" lon="0.8985">
        <ele>217</ele>
        <time>2012-07-22T08:28:52Z</time>
      </trkpt>
      <trkpt lat="44.58922" lon="0.89876">
        <ele>217</ele>
        <time>2012-07-22T08:28:57Z</time>
      </trkpt>
      <trkpt lat="44.58921" lon="0.89905">
        <ele>218</ele>
        <time>2012-07-22T08:29:02Z</time>
      </trkpt>
      <trkpt lat="44.58919" lon="0.89935">
        <ele>218</ele>
        <time>2012-07-22T08:29:07Z</time>
      </trkpt>
      <trkpt lat="44.58915" lon="0.89967">
        <ele>219</ele>
        <time>2012-07-22T08:29:12Z</time>
      </trkpt>
      <trkpt lat="44.58909" lon="0.89998">
        <ele>219</ele>
        <time>2012-07-22T08:29:17Z</time>
      </trkpt>
      <trkpt lat="44.58903" lon="0.9003">
        <ele>220</ele>
        <time>2012-07-22T08:29:22Z</time>
      </trkpt>
      <trkpt lat="44.58899" lon="0.90064">
        <ele>220</ele>
        <time>2012-07-22T08:29:27Z</time>
      </trkpt>
      <trkpt lat="44.58898" lon="0.90096">
        <ele>220</ele>
        <time>2012-07-22T08:29:32Z</time>
      </trkpt>
      <trkpt lat="44.58902" lon="0.90125">
        <ele>220</ele>
        <time>2012-07-22T08:29:37Z</time>
      </trkpt>
      <trkpt lat="44.5891" lon="0.9015">
        <ele>220</ele>
        <time>2012-07-22T08:29:42Z</time>
      </trkpt>
      <trkpt lat="44.5892" lon="0.90176">
        <ele>220</ele>
        <time>2012-07-22T08:29:47Z</time>
      </trkpt>
      <trkpt lat="44.58925" lon="0.90207">
        <ele>220</ele>
        <time>2012-07-22T08:29:52Z</time>
      </trkpt>
      <trkpt lat="44.58923" lon="0.90241">
        <ele>220</ele>
        <time>2012-07-22T08:29:57Z</time>
      </trkpt>
      <trkpt lat="44.58921" lon="0.90274">
        <ele>220</ele>
        <time>2012-07-22T08:30:02Z</time>
      </trkpt>
      <trkpt lat="44.58927" lon="0.90301">
        <ele>221</ele>
        <time>2012-07-22T08:30:07Z</time>
      </trkpt>
      <trkpt lat="44.58941" lon="0.90324">
        <ele>221</ele>
        <time>2012-07-22T08:30:12Z</time>
      </trkpt>
      <trkpt lat="44.58964" lon="0.9035">
        <ele>221</ele>
        <time>2012-07-22T08:30:17Z</time>
      </trkpt>
      <trkpt lat="44.58981" lon="0.90376">
        <ele>221</ele>
        <time>2012-07-22T08:30:22Z</time>
      </trkpt>
      <trkpt lat="44.58997" lon="0.90383">
        <ele>221</ele>
        <time>2012-07-22T08:30:27Z</time>
      </trkpt>
      <trkpt lat="44.59012" lon="0.90402">
        <ele>219</ele>
        <time>2012-07-22T08:30:32Z</time>
      </trkpt>
      <trkpt lat="44.59025" lon="0.90435">
        <ele>217</ele>
        <time>2012-07-22T08:30:37Z</time>
      </trkpt>
      <trkpt lat="44.59041" lon="0.90478">
        <ele>215</ele>
        <time>2012-07-22T08:30:42Z</time>
      </trkpt>
      <trkpt lat="44.59055" lon="0.90538">
        <ele>211</ele>
        <time>2012-07-22T08:30:47Z</time>
      </trkpt>
      <trkpt lat="44.59062" lon="0.90595">
        <ele>206</ele>
        <time>2012-07-22T08:30:52Z</time>
      </trkpt>
      <trkpt lat="44.59071" lon="0.90652">
        <ele>201</ele>
        <time>2012-07-22T08:30:57Z</time>
      </trkpt>
      <trkpt lat="44.5906" lon="0.90708">
        <ele>197</ele>
        <time>2012-07-22T08:31:02Z</time>
      </trkpt>
      <trkpt lat="44.59037" lon="0.90764">
        <ele>193</ele>
        <time>2012-07-22T08:31:07Z</time>
      </trkpt>
      <trkpt lat="44.59012" lon="0.90819">
        <ele>188</ele>
        <time>2012-07-22T08:31:12Z</time>
      </trkpt>
      <trkpt lat="44.59008" lon="0.90854">
        <ele>183</ele>
        <time>2012-07-22T08:31:17Z</time>
      </trkpt>
      <trkpt lat="44.58991" lon="0.90865">
        <ele>181</ele>
        <time>2012-07-22T08:31:22Z</time>
      </trkpt>
      <trkpt lat="44.58975" lon="0.90869">
        <ele>181</ele>
        <time>2012-07-22T08:31:27Z</time>
      </trkpt>
      <trkpt lat="44.58956" lon="0.90886">
        <ele>181</ele>
        <time>2012-07-22T08:31:32Z</time>
      </trkpt>
      <trkpt lat="44.58941" lon="0.90904">
        <ele>181</ele>
        <time>2012-07-22T08:31:37Z</time>
      </trkpt>
      <trkpt lat="44.58924" lon="0.9092">
        <ele>183</ele>
        <time>2012-07-22T08:31:42Z</time>
      </trkpt>
      <trkpt lat="44.5891" lon="0.90937">
        <ele>188</ele>
        <time>2012-07-22T08:31:47Z</time>
      </trkpt>
      <trkpt lat="44.58898" lon="0.90952">
        <ele>191</ele>
        <time>2012-07-22T08:31:52Z</time>
      </trkpt>
      <trkpt lat="44.58892" lon="0.90968">
        <ele>192</ele>
        <time>2012-07-22T08:31:57Z</time>
      </trkpt>
      <trkpt lat="44.58888" lon="0.90986">
        <ele>193</ele>
        <time>2012-07-22T08:32:02Z</time>
      </trkpt>
      <trkpt lat="44.58881" lon="0.91005">
        <ele>197</ele>
        <time>2012-07-22T08:32:07Z</time>
      </trkpt>
      <trkpt lat="44.58872" lon="0.91026">
        <ele>197</ele>
        <time>2012-07-22T08:32:12Z</time>
      </trkpt>
      <trkpt lat="44.58867" lon="0.9105">
        <ele>197</ele>
        <time>2012-07-22T08:32:17Z</time>
      </trkpt>
      <trkpt lat="44.58861" lon="0.91071">
        <ele>197</ele>
        <time>2012-07-22T08:32:22Z</time>
      </trkpt>
      <trkpt lat="44.58851" lon="0.91093">
        <ele>197</ele>
        <time>2012-07-22T08:32:27Z</time>
      </trkpt>
      <trkpt lat="44.58842" lon="0.91114">
        <ele>197</ele>
        <time>2012-07-22T08:32:32Z</time>
      </trkpt>
      <trkpt lat="44.58835" lon="0.91136">
        <ele>197</ele>
        <time>2012-07-22T08:32:37Z</time>
      </trkpt>
      <trkpt lat="44.58832" lon="0.91157">
        <ele>199</ele>
        <time>2012-07-22T08:32:42Z</time>
      </trkpt>
      <trkpt lat="44.5883" lon="0.91173">
        <ele>204</ele>
        <time>2012-07-22T08:32:47Z</time>
      </trkpt>
      <trkpt lat="44.58825" lon="0.91191">
        <ele>208</ele>
        <time>2012-07-22T08:32:52Z</time>
      </trkpt>
      <trkpt lat="44.58818" lon="0.91212">
        <ele>211</ele>
        <time>2012-07-22T08:32:57Z</time>
      </trkpt>
      <trkpt lat="44.58808" lon="0.91236">
        <ele>214</ele>
        <time>2012-07-22T08:33:02Z</time>
      </trkpt>
      <trkpt lat="44.58802" lon="0.91258">
        <ele>217</ele>
        <time>2012-07-22T08:33:07Z</time>
      </trkpt>
      <trkpt lat="44.58796" lon="0.91277">
        <ele>217</ele>
        <time>2012-07-22T08:33:12Z</time>
      </trkpt>
      <trkpt lat="44.58786" lon="0.91295">
        <ele>217</ele>
        <time>2012-07-22T08:33:17Z</time>
      </trkpt>
      <trkpt lat="44.58777" lon="0.91303">
        <ele>217</ele>
        <time>2012-07-22T08:33:22Z</time>
      </trkpt>
      <trkpt lat="44.58767" lon="0.91319">
        <ele>219</ele>
        <time>2012-07-22T08:33:27Z</time>
      </trkpt>
      <trkpt lat="44.58757" lon="0.91331">
        <ele>221</ele>
        <time>2012-07-22T08:33:32Z</time>
      </trkpt>
      <trkpt lat="44.58749" lon="0.9135">
        <ele>223</ele>
        <time>2012-07-22T08:33:37Z</time>
      </trkpt>
      <trkpt lat="44.5874" lon="0.91366">
        <ele>223</ele>
        <time>2012-07-22T08:33:42Z</time>
      </trkpt>
      <trkpt lat="44.58732" lon="0.91386">
        <ele>223</ele>
        <time>2012-07-22T08:33:47Z</time>
      </trkpt>
      <trkpt lat="44.5872" lon="0.91401">
        <ele>223</ele>
        <time>2012-07-22T08:33:52Z</time>
      </trkpt>
      <trkpt lat="44.58707" lon="0.91413">
        <ele>224</ele>
        <time>2012-07-22T08:33:57Z</time>
      </trkpt>
      <trkpt lat="44.58696" lon="0.91429">
        <ele>225</ele>
        <time>2012-07-22T08:34:02Z</time>
      </trkpt>
      <trkpt lat="44.58683" lon="0.91444">
        <ele>225</ele>
        <time>2012-07-22T08:34:07Z</time>
      </trkpt>
      <trkpt lat="44.5867" lon="0.91457">
        <ele>225</ele>
        <time>2012-07-22T08:34:12Z</time>
      </trkpt>
      <trkpt lat="44.58658" lon="0.91468">
        <ele>225</ele>
        <time>2012-07-22T08:34:17Z</time>
      </trkpt>
      <trkpt lat="44.58645" lon="0.91482">
        <ele>225</ele>
        <time>2012-07-22T08:34:22Z</time>
      </trkpt>
      <trkpt lat="44.58632" lon="0.91494">
        <ele>225</ele>
        <time>2012-07-22T08:34:27Z</time>
      </trkpt>
      <trkpt lat="44.5862" lon="0.91503">
        <ele>225</ele>
        <time>2012-07-22T08:34:32Z</time>
      </trkpt>
      <trkpt lat="44.58609" lon="0.91512">
        <ele>225</ele>
        <time>2012-07-22T08:34:37Z</time>
      </trkpt>
      <trkpt lat="44.58596" lon="0.91525">
        <ele>225</ele>
        <time>2012-07-22T08:34:42Z</time>
      </trkpt>
      <trkpt lat="44.58593" lon="0.91549">
        <ele>225</ele>
        <time>2012-07-22T08:34:47Z</time>
      </trkpt>
      <trkpt lat="44.58583" lon="0.91571">
        <ele>227</ele>
        <time>2012-07-22T08:34:52Z</time>
      </trkpt>
      <trkpt lat="44.58569" lon="0.91596">
        <ele>227</ele>
        <time>2012-07-22T08:34:57Z</time>
      </trkpt>
      <trkpt lat="44.58544" lon="0.91624">
        <ele>227</ele>
        <time>2012-07-22T08:35:02Z</time>
      </trkpt>
      <trkpt lat="44.5852" lon="0.91672">
        <ele>225</ele>
        <time>2012-07-22T08:35:07Z</time>
      </trkpt>
      <trkpt lat="44.58494" lon="0.91713">
        <ele>220</ele>
        <time>2012-07-22T08:35:12Z</time>
      </trkpt>
      <trkpt lat="44.58462" lon="0.9171">
        <ele>218</ele>
        <time>2012-07-22T08:35:17Z</time>
      </trkpt>
      <trkpt lat="44.58439" lon="0.91703">
        <ele>218</ele>
        <time>2012-07-22T08:35:22Z</time>
      </trkpt>
      <trkpt lat="44.58421" lon="0.91695">
        <ele>218</ele>
        <time>2012-07-22T08:35:27Z</time>
      </trkpt>
      <trkpt lat="44.58402" lon="0.91698">
        <ele>218</ele>
        <time>2012-07-22T08:35:32Z</time>
      </trkpt>
      <trkpt lat="44.58387" lon="0.91712">
        <ele>218</ele>
        <time>2012-07-22T08:35:37Z</time>
      </trkpt>
      <trkpt lat="44.58372" lon="0.91724">
        <ele>218</ele>
        <time>2012-07-22T08:35:42Z</time>
      </trkpt>
      <trkpt lat="44.58358" lon="0.91736">
        <ele>218</ele>
        <time>2012-07-22T08:35:47Z</time>
      </trkpt>
      <trkpt lat="44.58344" lon="0.91749">
        <ele>218</ele>
        <time>2012-07-22T08:35:52Z</time>
      </trkpt>
      <trkpt lat="44.58332" lon="0.91763">
        <ele>218</ele>
        <time>2012-07-22T08:35:57Z</time>
      </trkpt>
      <trkpt lat="44.58317" lon="0.9178">
        <ele>218</ele>
        <time>2012-07-22T08:36:02Z</time>
      </trkpt>
      <trkpt lat="44.58314" lon="0.91799">
        <ele>219</ele>
        <time>2012-07-22T08:36:07Z</time>
      </trkpt>
      <trkpt lat="44.58328" lon="0.9182">
        <ele>221</ele>
        <time>2012-07-22T08:36:12Z</time>
      </trkpt>
      <trkpt lat="44.58341" lon="0.91839">
        <ele>224</ele>
        <time>2012-07-22T08:36:17Z</time>
      </trkpt>
      <trkpt lat="44.58351" lon="0.91865">
        <ele>226</ele>
        <time>2012-07-22T08:36:22Z</time>
      </trkpt>
      <trkpt lat="44.58359" lon="0.91897">
        <ele>228</ele>
        <time>2012-07-22T08:36:27Z</time>
      </trkpt>
      <trkpt lat="44.58366" lon="0.91931">
        <ele>229</ele>
        <time>2012-07-22T08:36:32Z</time>
      </trkpt>
      <trkpt lat="44.5838" lon="0.91962">
        <ele>230</ele>
        <time>2012-07-22T08:36:37Z</time>
      </trkpt>
      <trkpt lat="44.58402" lon="0.91988">
        <ele>230</ele>
        <time>2012-07-22T08:36:42Z</time>
      </trkpt>
      <trkpt lat="44.58427" lon="0.9201">
        <ele>230</ele>
        <time>2012-07-22T08:36:47Z</time>
      </trkpt>
      <trkpt lat="44.58452" lon="0.92025">
        <ele>230</ele>
        <time>2012-07-22T08:36:52Z</time>
      </trkpt>
      <trkpt lat="44.58476" lon="0.92038">
        <ele>229</ele>
        <time>2012-07-22T08:36:57Z</time>
      </trkpt>
      <trkpt lat="44.58502" lon="0.92051">
        <ele>229</ele>
        <time>2012-07-22T08:37:02Z</time>
      </trkpt>
      <trkpt lat="44.58525" lon="0.92067">
        <ele>229</ele>
        <time>2012-07-22T08:37:07Z</time>
      </trkpt>
      <trkpt lat="44.58545" lon="0.92091">
        <ele>231</ele>
        <time>2012-07-22T08:37:12Z</time>
      </trkpt>
      <trkpt lat="44.58562" lon="0.9212">
        <ele>234</ele>
        <time>2012-07-22T08:37:17Z</time>
      </trkpt>
      <trkpt lat="44.58579" lon="0.92149">
        <ele>236</ele>
        <time>2012-07-22T08:37:22Z</time>
      </trkpt>
      <trkpt lat="44.58592" lon="0.92181">
        <ele>236</ele>
        <time>2012-07-22T08:37:27Z</time>
      </trkpt>
      <trkpt lat="44.58602" lon="0.92215">
        <ele>237</ele>
        <time>2012-07-22T08:37:32Z</time>
      </trkpt>
      <trkpt lat="44.58612" lon="0.92248">
        <ele>239</ele>
        <time>2012-07-22T08:37:37Z</time>
      </trkpt>
      <trkpt lat="44.58621" lon="0.92281">
        <ele>241</ele>
        <time>2012-07-22T08:37:42Z</time>
      </trkpt>
      <trkpt lat="44.58629" lon="0.92312">
        <ele>244</ele>
        <time>2012-07-22T08:37:47Z</time>
      </trkpt>
      <trkpt lat="44.58637" lon="0.92345">
        <ele>246</ele>
        <time>2012-07-22T08:37:52Z</time>
      </trkpt>
      <trkpt lat="44.58643" lon="0.92379">
        <ele>248</ele>
        <time>2012-07-22T08:37:57Z</time>
      </trkpt>
      <trkpt lat="44.58648" lon="0.92416">
        <ele>248</ele>
        <time>2012-07-22T08:38:02Z</time>
      </trkpt>
      <trkpt lat="44.58655" lon="0.92457">
        <ele>248</ele>
        <time>2012-07-22T08:38:07Z</time>
      </trkpt>
      <trkpt lat="44.5867" lon="0.92467">
        <ele>244</ele>
        <time>2012-07-22T08:38:12Z</time>
      </trkpt>
      <trkpt lat="44.58691" lon="0.92462">
        <ele>239</ele>
        <time>2012-07-22T08:38:17Z</time>
      </trkpt>
      <trkpt lat="44.58713" lon="0.92459">
        <ele>236</ele>
        <time>2012-07-22T08:38:22Z</time>
      </trkpt>
      <trkpt lat="44.58733" lon="0.92456">
        <ele>235</ele>
        <time>2012-07-22T08:38:27Z</time>
      </trkpt>
      <trkpt lat="44.58754" lon="0.9245">
        <ele>232</ele>
        <time>2012-07-22T08:38:32Z</time>
      </trkpt>
      <trkpt lat="44.58776" lon="0.92445">
        <ele>229</ele>
        <time>2012-07-22T08:38:37Z</time>
      </trkpt>
      <trkpt lat="44.58801" lon="0.9244">
        <ele>228</ele>
        <time>2012-07-22T08:38:42Z</time>
      </trkpt>
      <trkpt lat="44.58825" lon="0.92434">
        <ele>228</ele>
        <time>2012-07-22T08:38:47Z</time>
      </trkpt>
      <trkpt lat="44.58848" lon="0.92423">
        <ele>228</ele>
        <time>2012-07-22T08:38:52Z</time>
      </trkpt>
      <trkpt lat="44.58871" lon="0.9241">
        <ele>228</ele>
        <time>2012-07-22T08:38:57Z</time>
      </trkpt>
      <trkpt lat="44.58899" lon="0.92401">
        <ele>228</ele>
        <time>2012-07-22T08:39:02Z</time>
      </trkpt>
      <trkpt lat="44.5893" lon="0.92388">
        <ele>228</ele>
        <time>2012-07-22T08:39:07Z</time>
      </trkpt>
      <trkpt lat="44.58957" lon="0.92406">
        <ele>228</ele>
        <time>2012-07-22T08:39:12Z</time>
      </trkpt>
      <trkpt lat="44.58974" lon="0.9244">
        <ele>228</ele>
        <time>2012-07-22T08:39:17Z</time>
      </trkpt>
      <trkpt lat="44.58989" lon="0.92474">
        <ele>230</ele>
        <time>2012-07-22T08:39:22Z</time>
      </trkpt>
      <trkpt lat="44.59003" lon="0.92505">
        <ele>233</ele>
        <time>2012-07-22T08:39:27Z</time>
      </trkpt>
      <trkpt lat="44.59016" lon="0.92534">
        <ele>236</ele>
        <time>2012-07-22T08:39:32Z</time>
      </trkpt>
      <trkpt lat="44.59027" lon="0.92561">
        <ele>238</ele>
        <time>2012-07-22T08:39:37Z</time>
      </trkpt>
      <trkpt lat="44.59034" lon="0.92594">
        <ele>238</ele>
        <time>2012-07-22T08:39:42Z</time>
      </trkpt>
      <trkpt lat="44.59024" lon="0.92638">
        <ele>238</ele>
        <time>2012-07-22T08:39:47Z</time>
      </trkpt>
      <trkpt lat="44.5901" lon="0.92675">
        <ele>238</ele>
        <time>2012-07-22T08:39:52Z</time>
      </trkpt>
      <trkpt lat="44.58996" lon="0.92708">
        <ele>238</ele>
        <time>2012-07-22T08:39:57Z</time>
      </trkpt>
      <trkpt lat="44.58999" lon="0.92732">
        <ele>237</ele>
        <time>2012-07-22T08:40:02Z</time>
      </trkpt>
      <trkpt lat="44.5902" lon="0.92739">
        <ele>236</ele>
        <time>2012-07-22T08:40:07Z</time>
      </trkpt>
      <trkpt lat="44.59046" lon="0.92748">
        <ele>233</ele>
        <time>2012-07-22T08:40:12Z</time>
      </trkpt>
      <trkpt lat="44.59072" lon="0.92757">
        <ele>230</ele>
        <time>2012-07-22T08:40:17Z</time>
      </trkpt>
      <trkpt lat="44.59097" lon="0.92769">
        <ele>229</ele>
        <time>2012-07-22T08:40:22Z</time>
      </trkpt>
      <trkpt lat="44.59119" lon="0.92781">
        <ele>229</ele>
        <time>2012-07-22T08:40:27Z</time>
      </trkpt>
      <trkpt lat="44.59136" lon="0.92769">
        <ele>224</ele>
        <time>2012-07-22T08:40:32Z</time>
      </trkpt>
      <trkpt lat="44.59145" lon="0.92764">
        <ele>221</ele>
        <time>2012-07-22T08:40:37Z</time>
      </trkpt>
      <trkpt lat="44.59158" lon="0.92754">
        <ele>221</ele>
        <time>2012-07-22T08:40:42Z</time>
      </trkpt>
      <trkpt lat="44.59176" lon="0.92751">
        <ele>221</ele>
        <time>2012-07-22T08:40:48Z</time>
      </trkpt>
      <trkpt lat="44.59189" lon="0.92751">
        <ele>221</ele>
        <time>2012-07-22T08:40:53Z</time>
      </trkpt>
      <trkpt lat="44.59192" lon="0.92749">
        <ele>221</ele>
        <time>2012-07-22T08:41:05Z</time>
      </trkpt>
    </trkseg>
  </trk>
</gpx>